[[{"header":{"parameterUnit":"m.s-1","parameterCategory":1,"la1":31.0,"la2":29.5877,"lo1":-88.7671,"lo2":-86.6584,"dy":0.0162,"dx":0.0185,"nx":115,"ny":88,"refTime":"2024-05-09T06:00:00:Z","depth":0,"parameterNumber":2,"parameterNumberName":"U-component_of_WINDS"},"data":[0.0,0.0,0.0,0.0,0.0,0.0,0.0,0.0,0.0,0.0,0.0,0.0,0.0,0.0,0.0,0.0,0.0,0.0,0.0,0.0,0.0,0.0,0.0,0.0,0.0,0.0,0.0,0.0,0.0,0.0,0.0,0.0,0.0,0.0,0.0,0.0,0.0,0.0,0.0,0.0,0.0,0.0,0.0,0.0,0.0,0.0,0.0,0.0,0.0,0.0,0.0,0.0,0.0,0.0,0.0,0.0,0.0,0.0,0.0,0.0,0.0,0.0,0.0,0.0,0.0,0.0,0.0,0.0,0.0,0.0,0.0,0.0,0.0,0.0,0.0,0.0,0.0,0.0,0.0,0.0,0.0,0.0,0.0,0.0,0.0,0.0,0.0,0.0,0.0,0.0,0.0,0.0,0.0,0.0,0.0,0.0,0.0,0.0,0.0,0.0,0.0,0.0,0.0,0.0,0.0,0.0,0.0,0.0,0.0,0.0,0.0,0.0,0.0,0.0,0.0,0.0,0.0,0.0,0.0,0.0,0.0,0.0,0.0,0.0,0.0,0.0,0.0,0.0,0.0,0.0,0.0,0.0,0.0,0.0,0.0,0.0,0.0,0.0,0.0,0.0,0.0,0.0,0.0,0.0,0.0,0.0,0.0,0.0,0.0,0.0,0.0,0.0,0.0,0.0,0.0,0.0,0.0,0.0,0.0,0.0,0.0,0.0,0.0,0.0,0.0,0.0,0.0,0.0,0.0,0.0,0.0,0.0,0.0,0.0,0.0,0.0,0.0,0.0,0.0,0.0,0.0,0.0,0.0,0.0,0.0,0.0,0.0,0.0,0.0,0.0,0.0,0.0,0.0,0.0,0.0,0.0,0.0,0.0,0.0,0.0,0.0,0.0,0.0,0.0,0.0,0.0,0.0,0.0,0.0,0.0,0.0,0.0,0.0,0.0,0.0,0.0,0.0,0.0,0.0,0.0,0.0,0.0,0.0,0.0,0.0,0.0,0.0,0.0,0.0,0.0,0.0,0.0,0.0,0.0,0.0,0.0,0.0,0.0,0.0,0.0,0.0,0.0,0.0,0.0,0.0,0.0,0.0,0.0,0.0,0.0,0.0,0.0,0.0,0.0,0.0,0.0,0.0,0.0,0.0,0.0,0.0,0.0,0.0,0.0,0.0,0.0,0.0,0.0,0.0,0.0,0.0,0.0,0.0,0.0,0.0,0.0,0.0,0.0,0.0,0.0,0.0,0.0,0.0,0.0,0.0,0.0,0.0,0.0,0.0,0.0,0.0,0.0,0.0,0.0,0.0,0.0,0.0,0.0,0.0,0.0,0.0,0.0,0.0,0.0,0.0,0.0,0.0,0.0,0.0,0.0,0.0,0.0,0.0,0.0,0.0,0.0,0.0,0.0,0.0,0.0,0.0,0.0,0.0,0.0,0.0,0.0,0.0,0.0,0.0,0.0,0.0,0.0,0.0,0.0,0.0,0.0,0.0,0.0,0.0,0.0,0.0,0.0,0.0,0.0,0.0,0.0,0.0,0.0,0.0,0.0,0.0,0.0,0.0,0.0,0.0,0.0,0.0,0.0,0.0,0.0,0.0,0.0,0.0,0.0,0.0,0.0,0.0,0.0,0.0,0.0,0.0,0.0,0.0,0.0,0.0,0.0,0.0,0.0,0.0,0.0,0.0,0.0,0.0,0.0,0.0,0.0,0.0,0.0,0.0,0.0,0.0,0.0,0.0,0.0,0.0,0.0,0.0,0.0,0.0,0.0,0.0,0.0,0.0,0.0,0.0,0.0,0.0,0.0,0.0,0.0,0.0,0.0,0.0,0.0,0.0,0.0,0.0,0.0,0.0,0.0,0.0,0.0,0.0,0.0,0.0,0.0,0.0,0.0,0.0,0.0,0.0,0.0,0.0,0.0,0.0,0.0,0.0,0.0,0.0,0.0,0.0,0.0,0.0,0.0,0.0,0.0,0.0,0.0,0.0,0.0,0.0,0.0,0.0,0.0,0.0,0.0,0.0,0.0,0.0,0.0,0.0,0.0,0.0,0.0,0.0,0.0,0.0,0.0,0.0,0.0,0.0,0.0,0.0,0.0,0.0,0.0,0.0,0.0,0.0,0.0,0.0,0.0,0.0,0.0,0.0,0.0,0.0,0.0,0.0,0.0,0.0,0.0,0.0,0.0,0.0,0.0,0.0,0.0,0.0,0.0,0.0,0.0,0.0,0.0,0.0,0.0,0.0,0.0,0.0,0.0,0.0,0.0,0.0,0.0,0.0,0.0,0.0,0.0,0.0,0.0,0.0,0.0,0.0,0.0,0.0,0.0,0.0,0.0,0.0,0.0,0.0,0.0,0.0,0.0,0.0,0.0,0.0,0.0,0.0,0.0,0.0,0.0,0.0,0.0,0.0,0.0,0.0,0.0,0.0,0.0,0.0,0.0,0.0,0.0,0.0,0.0,0.0,0.0,0.0,0.0,0.0,0.0,0.0,0.0,0.0,0.0,0.0,0.0,0.0,0.0,0.0,0.0,0.0,0.0,0.0,0.0,0.0,0.0,0.0,0.0,0.0,0.0,0.0,0.0,0.0,0.0,0.0,0.0,0.0,0.0,0.0,0.0,0.0,0.0,0.0,0.0,0.0,0.0,0.0,0.0,0.0,0.0,0.0,0.0,0.0,0.0,0.0,0.0,0.0,0.0,0.0,0.0,0.0,0.0,0.0,0.0,0.0,0.0,0.0,0.0,0.0,0.0,0.0,0.0,0.0,0.0,0.0,0.0,0.0,0.0,0.0,0.0,0.0,0.0,0.0,0.0,0.0,0.0,0.0,0.0,0.0,0.0,0.0,0.0,0.0,0.0,0.0,0.0,0.0,0.0,0.0,0.0,0.0,0.0,0.0,0.0,0.0,0.0,0.0,0.0,0.0,0.0,0.0,0.0,0.0,0.0,0.0,0.0,0.0,0.0,0.0,0.0,0.0,0.0,0.0,0.0,0.0,0.0,0.0,0.0,0.0,0.0,0.0,0.0,0.0,0.0,0.0,0.0,0.0,0.0,0.0,0.0,0.0,0.0,0.0,0.0,0.0,0.0,0.0,0.0,0.0,0.0,0.0,0.0,0.0,0.0,0.0,0.0,0.0,0.0,0.0,0.0,0.0,0.0,0.0,0.0,0.0,0.0,0.0,0.0,0.0,0.0,0.0,0.0,0.0,0.0,0.0,0.0,0.0,0.0,0.0,0.0,0.0,0.0,0.0,0.0,0.0,0.0,0.0,0.0,0.0,0.0,0.0,0.0,0.0,0.0,0.0,0.0,0.0,0.0,0.0,0.0,0.0,0.0,0.0,0.0,0.0,0.0,0.0,0.0,0.0,0.0,0.0,0.0,0.0,0.0,0.0,0.0,0.0,0.0,0.0,0.0,0.0,0.0,0.0,0.0,0.0,0.0,0.0,0.0,0.0,0.0,0.0,0.0,0.0,0.0,0.0,0.0,0.0,0.0,0.0,0.0,0.0,0.0,0.0,0.0,0.0,0.0,0.0,0.0,0.0,0.0,0.0,0.0,0.0,0.0,0.0,0.0,0.0,0.0,0.0,0.0,0.0,0.0,0.0,0.0,0.0,0.0,0.0,0.0,0.0,0.0,0.0,0.0,0.0,0.0,0.0,0.0,0.0,0.0,0.0,0.0,0.0,0.0,0.0,0.0,0.0,0.0,0.0,0.0,0.0,0.0,0.0,0.0,0.0,0.0,0.0,0.0,0.0,0.0,0.0,0.0,0.0,0.0,0.0,0.0,0.0,0.0,0.0,0.0,0.0,0.0,0.0,0.0,0.0,0.0,0.0,0.0,0.0,0.0,0.0,0.0,0.0,0.0,0.0,0.0,0.0,0.0,0.0,0.0,0.0,0.0,0.0,0.0,0.0,0.0,0.0,0.0,0.0,0.0,0.0,0.0,0.0,0.0,0.0,0.0,0.0,0.0,0.0,0.0,0.0,0.0,0.0,0.0,0.0,0.0,0.0,0.0,0.0,0.0,0.0,0.0,0.0,0.0,0.0,0.0,0.0,0.0,0.0,0.0,0.0,0.0,0.0,0.0,0.0,0.0,0.0,0.0,0.0,0.0,0.0,0.0,0.0,0.0,0.0,0.0,0.0,0.0,0.0,0.0,0.0,0.0,0.0,0.0,0.0,0.0,0.0,0.0,0.0,0.0,0.0,0.0,0.0,0.0,0.0,0.0,0.0,0.0,0.0,0.0,0.0,0.0,0.0,0.0,0.0,0.0,-2.7655,0.0,0.0,0.0,0.0,0.0,0.0,0.0,0.0,0.0,0.0,0.0,0.0,0.0,0.0,0.0,0.0,0.0,0.0,0.0,0.0,0.0,0.0,0.0,0.0,0.0,0.0,0.0,0.0,0.0,0.0,0.0,0.0,0.0,0.0,0.0,0.0,0.0,0.0,0.0,0.0,0.0,0.0,0.0,0.0,0.0,0.0,0.0,0.0,0.0,0.0,0.0,0.0,0.0,0.0,0.0,0.0,0.0,0.0,0.0,0.0,0.0,0.0,0.0,0.0,0.0,0.0,0.0,0.0,0.0,0.0,0.0,0.0,0.0,0.0,0.0,0.0,0.0,0.0,0.0,0.0,0.0,0.0,0.0,0.0,0.0,0.0,0.0,0.0,0.0,0.0,0.0,0.0,0.0,0.0,0.0,0.0,0.0,0.0,0.0,0.0,0.0,0.0,0.0,0.0,0.0,0.0,0.0,0.0,0.0,0.0,-2.7943,-2.9416,-2.7232,-2.6556,-2.779,0.0,0.0,0.0,0.0,0.0,0.0,0.0,0.0,0.0,0.0,0.0,0.0,0.0,0.0,0.0,0.0,0.0,0.0,0.0,0.0,0.0,0.0,0.0,0.0,0.0,0.0,0.0,0.0,0.0,0.0,0.0,0.0,0.0,0.0,0.0,0.0,0.0,0.0,0.0,0.0,0.0,0.0,0.0,0.0,0.0,0.0,0.0,0.0,0.0,0.0,0.0,0.0,0.0,0.0,0.0,0.0,0.0,0.0,0.0,0.0,0.0,0.0,0.0,0.0,0.0,0.0,0.0,0.0,0.0,0.0,0.0,0.0,0.0,0.0,0.0,0.0,0.0,0.0,0.0,0.0,0.0,0.0,0.0,0.0,0.0,0.0,0.0,0.0,0.0,0.0,0.0,0.0,0.0,0.0,0.0,0.0,0.0,0.0,0.0,0.0,0.0,0.0,0.0,0.0,0.0,0.0,0.0,0.0,0.0,0.0,0.0,0.0,-2.725,-2.6894,-2.8703,0.0,0.0,0.0,0.0,0.0,0.0,0.0,0.0,0.0,0.0,0.0,0.0,0.0,0.0,0.0,0.0,0.0,0.0,0.0,0.0,0.0,0.0,0.0,0.0,0.0,0.0,0.0,0.0,0.0,0.0,0.0,0.0,0.0,0.0,0.0,0.0,0.0,0.0,0.0,0.0,0.0,0.0,0.0,0.0,0.0,0.0,0.0,0.0,0.0,0.0,0.0,0.0,0.0,0.0,0.0,0.0,0.0,0.0,0.0,0.0,0.0,0.0,0.0,0.0,0.0,0.0,0.0,0.0,0.0,0.0,0.0,0.0,0.0,0.0,0.0,0.0,0.0,0.0,0.0,0.0,0.0,0.0,0.0,0.0,0.0,0.0,0.0,0.0,0.0,0.0,0.0,0.0,0.0,0.0,0.0,0.0,0.0,0.0,0.0,0.0,0.0,0.0,0.0,0.0,0.0,0.0,0.0,0.0,0.0,0.0,-2.8737,-3.0886,-3.0683,0.0,-3.1658,0.0,0.0,0.0,0.0,0.0,0.0,0.0,0.0,0.0,0.0,0.0,0.0,0.0,0.0,0.0,0.0,0.0,0.0,0.0,0.0,0.0,0.0,0.0,0.0,0.0,0.0,0.0,0.0,0.0,0.0,0.0,0.0,0.0,0.0,0.0,0.0,0.0,0.0,0.0,0.0,0.0,0.0,0.0,0.0,0.0,0.0,0.0,0.0,0.0,0.0,0.0,0.0,0.0,0.0,0.0,0.0,0.0,0.0,0.0,0.0,0.0,0.0,0.0,0.0,0.0,0.0,0.0,0.0,0.0,0.0,0.0,0.0,0.0,0.0,0.0,0.0,0.0,0.0,0.0,0.0,0.0,0.0,0.0,0.0,0.0,0.0,0.0,0.0,0.0,0.0,0.0,0.0,0.0,0.0,0.0,0.0,0.0,0.0,0.0,0.0,0.0,0.0,0.0,0.0,0.0,0.0,0.0,0.0,0.0,0.0,-2.8669,-3.0514,-3.0548,-3.0128,0.0,0.0,0.0,0.0,0.0,0.0,0.0,0.0,0.0,0.0,0.0,0.0,0.0,0.0,0.0,0.0,0.0,0.0,0.0,0.0,0.0,0.0,0.0,0.0,0.0,0.0,0.0,0.0,0.0,0.0,0.0,0.0,0.0,0.0,0.0,0.0,0.0,0.0,0.0,0.0,0.0,0.0,0.0,0.0,0.0,0.0,0.0,0.0,0.0,0.0,0.0,0.0,0.0,0.0,0.0,0.0,0.0,0.0,0.0,0.0,0.0,0.0,0.0,0.0,0.0,0.0,0.0,0.0,0.0,0.0,0.0,0.0,0.0,0.0,0.0,0.0,0.0,0.0,0.0,0.0,0.0,0.0,0.0,0.0,0.0,0.0,0.0,0.0,0.0,0.0,0.0,0.0,0.0,0.0,0.0,0.0,0.0,0.0,0.0,0.0,0.0,0.0,0.0,0.0,0.0,0.0,0.0,0.0,0.0,0.0,-2.8466,-2.9244,-3.0852,-3.0209,-2.9196,-2.7954,0.0,0.0,0.0,0.0,0.0,0.0,0.0,0.0,0.0,0.0,0.0,0.0,0.0,0.0,0.0,0.0,0.0,0.0,0.0,0.0,0.0,0.0,0.0,0.0,0.0,0.0,0.0,0.0,0.0,0.0,0.0,0.0,0.0,0.0,0.0,0.0,0.0,0.0,0.0,0.0,0.0,0.0,0.0,0.0,0.0,0.0,0.0,0.0,0.0,0.0,0.0,0.0,0.0,0.0,0.0,0.0,0.0,0.0,0.0,0.0,0.0,0.0,0.0,0.0,0.0,0.0,0.0,0.0,0.0,0.0,0.0,0.0,0.0,0.0,0.0,0.0,0.0,0.0,0.0,0.0,0.0,0.0,0.0,0.0,0.0,0.0,0.0,0.0,0.0,0.0,0.0,0.0,0.0,0.0,0.0,0.0,0.0,0.0,0.0,0.0,0.0,0.0,0.0,0.0,0.0,0.0,0.0,0.0,-3.2692,-3.1002,-3.1055,-3.3051,-3.0533,-2.9311,0.0,0.0,0.0,0.0,0.0,0.0,0.0,0.0,0.0,0.0,0.0,0.0,0.0,0.0,0.0,0.0,0.0,0.0,0.0,0.0,0.0,0.0,0.0,0.0,0.0,0.0,0.0,0.0,0.0,0.0,0.0,0.0,0.0,0.0,0.0,0.0,0.0,0.0,0.0,0.0,0.0,0.0,0.0,0.0,0.0,0.0,0.0,0.0,0.0,0.0,0.0,0.0,0.0,0.0,0.0,0.0,0.0,0.0,0.0,0.0,0.0,0.0,0.0,0.0,0.0,0.0,0.0,0.0,0.0,0.0,0.0,0.0,0.0,0.0,0.0,0.0,0.0,0.0,0.0,0.0,0.0,0.0,0.0,0.0,0.0,0.0,0.0,0.0,0.0,0.0,0.0,0.0,0.0,0.0,0.0,0.0,0.0,0.0,0.0,0.0,0.0,0.0,0.0,0.0,0.0,0.0,0.0,0.0,0.0,-2.9041,-2.9717,-3.092,-3.2564,-3.0751,-2.9907,0.0,0.0,0.0,0.0,0.0,0.0,0.0,0.0,0.0,0.0,0.0,0.0,0.0,0.0,0.0,0.0,0.0,0.0,0.0,0.0,0.0,0.0,0.0,0.0,0.0,0.0,0.0,0.0,0.0,0.0,0.0,0.0,0.0,0.0,0.0,0.0,0.0,0.0,0.0,0.0,0.0,0.0,0.0,0.0,0.0,0.0,0.0,0.0,0.0,0.0,0.0,0.0,0.0,0.0,0.0,0.0,0.0,0.0,0.0,0.0,0.0,0.0,0.0,0.0,0.0,0.0,0.0,0.0,0.0,0.0,0.0,0.0,0.0,0.0,0.0,0.0,0.0,0.0,0.0,0.0,0.0,0.0,0.0,0.0,0.0,0.0,0.0,0.0,0.0,0.0,0.0,0.0,0.0,0.0,0.0,0.0,0.0,0.0,0.0,0.0,0.0,0.0,0.0,0.0,0.0,0.0,0.0,0.0,0.0,-2.8466,0.0,-3.1529,-3.2192,-3.0852,-2.982,0.0,0.0,0.0,0.0,0.0,0.0,0.0,0.0,0.0,0.0,0.0,0.0,0.0,0.0,0.0,0.0,0.0,0.0,0.0,0.0,0.0,0.0,0.0,0.0,0.0,0.0,0.0,0.0,0.0,0.0,0.0,0.0,0.0,0.0,0.0,0.0,0.0,0.0,0.0,0.0,0.0,0.0,0.0,0.0,0.0,0.0,0.0,0.0,0.0,0.0,0.0,0.0,0.0,0.0,0.0,0.0,0.0,0.0,0.0,0.0,0.0,0.0,0.0,0.0,0.0,0.0,0.0,0.0,0.0,0.0,0.0,0.0,0.0,0.0,0.0,0.0,0.0,0.0,0.0,0.0,0.0,0.0,0.0,0.0,0.0,0.0,0.0,0.0,0.0,0.0,0.0,0.0,0.0,0.0,0.0,0.0,0.0,0.0,0.0,0.0,0.0,0.0,0.0,0.0,0.0,0.0,0.0,0.0,-2.7499,-3.1948,-3.2827,-3.2929,-3.2361,-3.0866,-2.9075,0.0,0.0,0.0,0.0,0.0,0.0,0.0,0.0,0.0,0.0,0.0,0.0,0.0,0.0,0.0,0.0,0.0,0.0,0.0,0.0,0.0,0.0,0.0,0.0,0.0,0.0,0.0,0.0,0.0,0.0,0.0,0.0,0.0,0.0,0.0,0.0,0.0,0.0,0.0,0.0,0.0,0.0,0.0,0.0,0.0,0.0,0.0,0.0,0.0,0.0,0.0,0.0,0.0,0.0,0.0,0.0,0.0,0.0,0.0,0.0,0.0,0.0,0.0,0.0,0.0,0.0,0.0,0.0,0.0,0.0,0.0,0.0,0.0,0.0,0.0,0.0,0.0,0.0,0.0,0.0,0.0,0.0,0.0,0.0,0.0,0.0,0.0,0.0,0.0,0.0,0.0,0.0,0.0,0.0,0.0,0.0,0.0,0.0,0.0,0.0,0.0,0.0,0.0,0.0,0.0,0.0,0.0,0.0,0.0,-2.9191,-3.0563,-3.2591,-3.5059,-3.053,-2.9468,0.0,0.0,0.0,0.0,0.0,0.0,0.0,0.0,0.0,0.0,0.0,0.0,0.0,0.0,0.0,0.0,0.0,0.0,0.0,0.0,0.0,0.0,0.0,0.0,0.0,0.0,0.0,0.0,0.0,0.0,0.0,0.0,0.0,0.0,0.0,0.0,0.0,0.0,0.0,0.0,0.0,0.0,0.0,0.0,0.0,0.0,0.0,0.0,0.0,0.0,0.0,0.0,0.0,0.0,0.0,0.0,0.0,0.0,0.0,0.0,0.0,0.0,0.0,0.0,0.0,0.0,0.0,0.0,0.0,0.0,0.0,0.0,0.0,0.0,0.0,0.0,0.0,0.0,0.0,0.0,0.0,0.0,0.0,0.0,0.0,0.0,0.0,0.0,0.0,0.0,0.0,0.0,0.0,0.0,0.0,0.0,0.0,0.0,0.0,0.0,0.0,0.0,0.0,0.0,0.0,0.0,0.0,0.0,0.0,-2.9834,-3.166,-3.3608,-3.5551,-3.1581,-3.0326,-3.2298,0.0,0.0,0.0,0.0,0.0,0.0,0.0,0.0,0.0,0.0,0.0,0.0,0.0,0.0,0.0,0.0,0.0,0.0,0.0,0.0,0.0,0.0,0.0,0.0,0.0,0.0,0.0,0.0,0.0,0.0,0.0,0.0,0.0,0.0,0.0,0.0,0.0,0.0,0.0,0.0,0.0,0.0,0.0,0.0,0.0,0.0,0.0,0.0,0.0,0.0,0.0,0.0,0.0,0.0,0.0,0.0,0.0,0.0,0.0,0.0,0.0,0.0,0.0,0.0,0.0,0.0,0.0,0.0,0.0,0.0,0.0,0.0,0.0,0.0,0.0,0.0,0.0,0.0,0.0,0.0,0.0,0.0,0.0,0.0,0.0,0.0,0.0,0.0,0.0,0.0,0.0,0.0,0.0,0.0,0.0,0.0,0.0,0.0,0.0,0.0,0.0,0.0,0.0,0.0,0.0,0.0,0.0,0.0,-3.3168,-3.581,-3.6287,-3.4296,-3.3738,-3.1677,0.0,0.0,0.0,0.0,0.0,0.0,0.0,0.0,0.0,0.0,0.0,0.0,0.0,0.0,0.0,0.0,0.0,0.0,0.0,0.0,0.0,0.0,0.0,0.0,0.0,0.0,0.0,0.0,0.0,0.0,0.0,0.0,0.0,0.0,0.0,0.0,0.0,0.0,0.0,0.0,0.0,0.0,0.0,0.0,0.0,0.0,0.0,0.0,0.0,0.0,0.0,0.0,0.0,0.0,0.0,0.0,0.0,0.0,0.0,0.0,0.0,0.0,0.0,0.0,0.0,0.0,0.0,0.0,0.0,0.0,0.0,0.0,0.0,0.0,0.0,0.0,0.0,0.0,0.0,0.0,0.0,0.0,0.0,0.0,0.0,0.0,0.0,0.0,0.0,0.0,0.0,0.0,0.0,0.0,0.0,0.0,0.0,0.0,0.0,0.0,0.0,0.0,0.0,0.0,0.0,0.0,0.0,0.0,0.0,-3.6514,-4.0511,-4.1917,-4.026,-3.5012,-3.2643,0.0,0.0,0.0,0.0,0.0,0.0,0.0,0.0,0.0,0.0,0.0,0.0,0.0,0.0,0.0,0.0,0.0,0.0,0.0,0.0,0.0,0.0,0.0,0.0,0.0,0.0,0.0,0.0,0.0,0.0,0.0,0.0,0.0,0.0,0.0,0.0,0.0,0.0,0.0,0.0,0.0,0.0,0.0,0.0,0.0,0.0,0.0,0.0,0.0,0.0,0.0,0.0,0.0,0.0,0.0,0.0,0.0,0.0,0.0,0.0,0.0,0.0,0.0,0.0,0.0,0.0,0.0,0.0,0.0,0.0,0.0,0.0,0.0,0.0,0.0,0.0,0.0,0.0,0.0,0.0,0.0,0.0,0.0,0.0,0.0,0.0,0.0,0.0,0.0,0.0,0.0,0.0,0.0,0.0,0.0,0.0,0.0,0.0,0.0,0.0,0.0,0.0,0.0,0.0,0.0,0.0,0.0,0.0,-3.6661,-3.8571,-4.3127,-4.5341,-4.5059,-3.9514,-3.5889,0.0,0.0,0.0,0.0,0.0,0.0,0.0,0.0,0.0,0.0,0.0,0.0,0.0,0.0,0.0,0.0,0.0,0.0,0.0,0.0,0.0,0.0,0.0,0.0,0.0,0.0,0.0,0.0,0.0,0.0,0.0,0.0,0.0,0.0,0.0,0.0,0.0,0.0,0.0,0.0,0.0,0.0,0.0,0.0,0.0,0.0,0.0,0.0,0.0,0.0,0.0,0.0,0.0,0.0,0.0,0.0,0.0,0.0,0.0,0.0,0.0,0.0,0.0,0.0,0.0,0.0,0.0,0.0,0.0,0.0,0.0,0.0,0.0,0.0,0.0,0.0,0.0,0.0,0.0,0.0,0.0,0.0,0.0,0.0,0.0,0.0,0.0,0.0,0.0,0.0,0.0,0.0,0.0,0.0,0.0,0.0,0.0,0.0,0.0,0.0,0.0,0.0,0.0,0.0,0.0,0.0,0.0,0.0,-3.8089,-3.9943,-4.4534,-4.7409,-4.8324,-4.4916,-3.9964,0.0,0.0,0.0,0.0,0.0,0.0,0.0,0.0,0.0,0.0,0.0,0.0,0.0,0.0,0.0,0.0,0.0,0.0,0.0,0.0,0.0,0.0,0.0,0.0,0.0,0.0,0.0,0.0,0.0,0.0,0.0,0.0,0.0,0.0,0.0,0.0,0.0,0.0,0.0,0.0,0.0,0.0,0.0,0.0,0.0,0.0,0.0,0.0,0.0,0.0,0.0,0.0,0.0,0.0,0.0,0.0,0.0,0.0,0.0,0.0,0.0,0.0,0.0,0.0,0.0,0.0,0.0,0.0,0.0,0.0,0.0,0.0,0.0,0.0,0.0,0.0,0.0,0.0,0.0,0.0,0.0,0.0,0.0,0.0,0.0,0.0,0.0,0.0,0.0,0.0,0.0,0.0,0.0,0.0,0.0,0.0,0.0,0.0,0.0,0.0,0.0,0.0,0.0,0.0,0.0,0.0,0.0,0.0,-3.925,-4.1111,-4.6408,-4.9447,-4.9833,-4.3897,-3.9546,0.0,0.0,0.0,0.0,0.0,0.0,0.0,0.0,0.0,0.0,0.0,0.0,0.0,0.0,0.0,0.0,0.0,0.0,0.0,0.0,0.0,0.0,0.0,0.0,0.0,0.0,0.0,0.0,0.0,0.0,0.0,0.0,0.0,0.0,0.0,0.0,0.0,0.0,0.0,0.0,0.0,0.0,0.0,0.0,0.0,0.0,0.0,0.0,-2.4345,0.0,0.0,0.0,0.0,0.0,0.0,0.0,0.0,0.0,0.0,0.0,0.0,0.0,0.0,0.0,0.0,0.0,0.0,0.0,0.0,0.0,0.0,0.0,0.0,0.0,0.0,0.0,0.0,0.0,0.0,0.0,0.0,0.0,0.0,0.0,0.0,0.0,0.0,0.0,0.0,0.0,0.0,0.0,0.0,0.0,0.0,0.0,0.0,0.0,0.0,0.0,0.0,0.0,0.0,0.0,0.0,0.0,0.0,0.0,-4.1024,-4.3444,-4.7715,-5.0184,-5.0423,-4.5467,-4.1626,0.0,0.0,0.0,0.0,0.0,0.0,0.0,0.0,0.0,0.0,0.0,0.0,0.0,0.0,0.0,0.0,0.0,0.0,0.0,0.0,0.0,0.0,0.0,0.0,0.0,0.0,0.0,0.0,0.0,0.0,0.0,0.0,0.0,0.0,0.0,0.0,0.0,0.0,0.0,0.0,0.0,0.0,0.0,0.0,0.0,0.0,0.0,0.0,0.0,0.0,0.0,0.0,0.0,0.0,0.0,0.0,0.0,0.0,0.0,0.0,0.0,0.0,0.0,0.0,0.0,0.0,0.0,0.0,0.0,0.0,0.0,0.0,0.0,0.0,0.0,0.0,0.0,0.0,0.0,0.0,0.0,0.0,0.0,0.0,0.0,0.0,0.0,0.0,0.0,0.0,0.0,0.0,0.0,0.0,0.0,0.0,0.0,0.0,0.0,0.0,0.0,0.0,0.0,0.0,0.0,0.0,0.0,-3.946,-4.2329,-4.5803,-4.864,-5.0379,-5.0793,-4.7809,-4.4481,-4.0926,0.0,0.0,0.0,0.0,0.0,0.0,0.0,0.0,0.0,0.0,0.0,0.0,0.0,0.0,0.0,0.0,0.0,0.0,0.0,0.0,0.0,0.0,0.0,0.0,0.0,0.0,0.0,0.0,0.0,0.0,0.0,0.0,0.0,0.0,0.0,0.0,0.0,0.0,-2.0778,-2.1862,0.0,0.0,0.0,0.0,0.0,0.0,0.0,0.0,-2.4986,0.0,0.0,0.0,0.0,0.0,0.0,0.0,0.0,0.0,0.0,0.0,0.0,0.0,0.0,0.0,0.0,0.0,0.0,0.0,0.0,0.0,0.0,0.0,0.0,0.0,0.0,0.0,0.0,0.0,0.0,0.0,0.0,0.0,0.0,0.0,0.0,0.0,0.0,0.0,0.0,0.0,0.0,0.0,0.0,0.0,0.0,0.0,0.0,0.0,0.0,0.0,0.0,0.0,0.0,0.0,0.0,-3.8617,-3.9001,-4.1621,-4.6578,-4.9243,-5.0511,-5.0362,-4.892,-4.6234,-4.2334,0.0,0.0,0.0,0.0,0.0,0.0,0.0,0.0,0.0,0.0,0.0,0.0,0.0,0.0,0.0,0.0,0.0,0.0,0.0,0.0,0.0,0.0,0.0,0.0,0.0,0.0,0.0,0.0,0.0,0.0,0.0,0.0,0.0,0.0,0.0,0.0,0.0,0.0,0.0,-2.2615,-2.351,0.0,0.0,0.0,0.0,0.0,0.0,0.0,0.0,-2.5276,0.0,0.0,0.0,0.0,0.0,0.0,0.0,0.0,0.0,0.0,0.0,0.0,0.0,0.0,0.0,0.0,0.0,0.0,0.0,0.0,0.0,0.0,0.0,0.0,0.0,0.0,0.0,0.0,0.0,0.0,0.0,0.0,0.0,0.0,0.0,0.0,0.0,0.0,0.0,0.0,0.0,0.0,0.0,0.0,0.0,0.0,0.0,0.0,0.0,0.0,0.0,0.0,0.0,0.0,0.0,-3.9253,-4.0261,-4.2984,-4.7596,-4.9109,-4.9862,-4.9925,-4.7049,-4.4636,0.0,0.0,0.0,0.0,0.0,0.0,0.0,0.0,0.0,0.0,0.0,0.0,0.0,0.0,0.0,0.0,0.0,0.0,0.0,0.0,0.0,0.0,0.0,0.0,0.0,0.0,0.0,0.0,0.0,0.0,0.0,0.0,0.0,0.0,0.0,0.0,0.0,0.0,0.0,0.0,-2.2461,-2.2995,-2.3962,0.0,0.0,0.0,0.0,0.0,0.0,-2.6456,-2.5734,0.0,0.0,0.0,0.0,0.0,0.0,0.0,0.0,0.0,0.0,0.0,0.0,0.0,0.0,0.0,0.0,0.0,0.0,0.0,0.0,0.0,0.0,0.0,0.0,0.0,0.0,0.0,0.0,0.0,0.0,0.0,0.0,0.0,0.0,0.0,0.0,0.0,0.0,0.0,0.0,0.0,0.0,0.0,0.0,0.0,0.0,0.0,0.0,0.0,0.0,0.0,0.0,0.0,0.0,0.0,-3.939,-4.1399,-4.433,-4.8214,-4.8893,-4.9336,-4.9601,-4.5546,-4.3218,0.0,0.0,0.0,0.0,0.0,0.0,0.0,0.0,0.0,0.0,0.0,0.0,0.0,0.0,0.0,0.0,0.0,0.0,0.0,0.0,0.0,0.0,0.0,0.0,0.0,0.0,0.0,0.0,0.0,0.0,0.0,0.0,0.0,0.0,0.0,0.0,0.0,0.0,0.0,0.0,0.0,-2.3063,-2.4568,-2.4832,0.0,0.0,0.0,0.0,-2.7616,-2.7686,0.0,0.0,0.0,0.0,0.0,0.0,0.0,0.0,0.0,0.0,0.0,0.0,0.0,0.0,0.0,0.0,0.0,0.0,0.0,0.0,0.0,0.0,0.0,0.0,0.0,0.0,0.0,0.0,0.0,0.0,0.0,0.0,0.0,0.0,0.0,0.0,0.0,0.0,0.0,0.0,0.0,0.0,0.0,0.0,0.0,0.0,0.0,0.0,0.0,0.0,0.0,0.0,0.0,0.0,0.0,0.0,-3.8104,-4.0861,-4.4076,-4.7567,-4.8984,-4.9631,-4.9662,-4.7314,-4.4837,0.0,0.0,0.0,0.0,0.0,0.0,0.0,0.0,0.0,0.0,0.0,0.0,0.0,0.0,0.0,0.0,0.0,0.0,0.0,0.0,0.0,0.0,0.0,0.0,0.0,0.0,0.0,0.0,0.0,0.0,0.0,0.0,0.0,0.0,0.0,0.0,0.0,0.0,0.0,0.0,0.0,-2.5279,-2.5398,-2.5596,-2.6339,0.0,0.0,-2.8502,-3.0748,-3.1527,0.0,0.0,0.0,0.0,0.0,0.0,0.0,0.0,0.0,0.0,0.0,0.0,0.0,0.0,0.0,0.0,0.0,0.0,0.0,0.0,0.0,0.0,0.0,0.0,0.0,0.0,0.0,0.0,0.0,0.0,0.0,0.0,0.0,0.0,0.0,0.0,0.0,0.0,0.0,0.0,0.0,0.0,0.0,0.0,0.0,0.0,0.0,0.0,0.0,0.0,0.0,0.0,0.0,0.0,0.0,-3.5835,-3.9035,-4.1695,-4.4489,-4.7496,-4.8168,-4.8687,-4.9066,-4.5018,-4.2583,0.0,0.0,0.0,0.0,0.0,0.0,0.0,0.0,0.0,0.0,0.0,0.0,0.0,0.0,0.0,0.0,0.0,0.0,0.0,0.0,0.0,0.0,0.0,0.0,0.0,0.0,0.0,0.0,0.0,0.0,0.0,0.0,0.0,0.0,0.0,0.0,0.0,0.0,0.0,0.0,0.0,0.0,-2.6245,-2.7253,0.0,0.0,0.0,-3.0435,-3.1269,0.0,0.0,0.0,0.0,0.0,0.0,0.0,0.0,0.0,0.0,0.0,0.0,0.0,0.0,0.0,0.0,0.0,0.0,0.0,0.0,0.0,0.0,0.0,0.0,0.0,0.0,0.0,0.0,0.0,0.0,0.0,0.0,0.0,0.0,0.0,0.0,0.0,0.0,0.0,0.0,0.0,0.0,0.0,0.0,0.0,0.0,0.0,0.0,0.0,0.0,0.0,0.0,0.0,0.0,0.0,0.0,0.0,-3.9708,-4.2252,-4.471,-4.7038,-4.7226,-4.7473,-4.7768,-4.3125,0.0,0.0,0.0,0.0,0.0,0.0,0.0,0.0,0.0,0.0,0.0,0.0,0.0,0.0,0.0,0.0,0.0,0.0,0.0,0.0,0.0,0.0,0.0,0.0,0.0,0.0,0.0,-2.0505,0.0,0.0,0.0,0.0,0.0,0.0,0.0,0.0,0.0,0.0,0.0,0.0,0.0,0.0,-2.6543,-2.7004,-2.8644,-2.9713,0.0,0.0,-3.1792,-3.1514,-3.158,-3.0681,0.0,0.0,0.0,0.0,0.0,0.0,0.0,0.0,0.0,0.0,0.0,0.0,0.0,0.0,0.0,0.0,0.0,0.0,0.0,0.0,0.0,0.0,0.0,0.0,0.0,0.0,0.0,0.0,0.0,0.0,0.0,0.0,0.0,0.0,0.0,0.0,0.0,0.0,0.0,0.0,0.0,0.0,0.0,0.0,0.0,0.0,0.0,0.0,0.0,0.0,0.0,0.0,0.0,0.0,0.0,-3.9099,-4.2007,-4.4248,-4.5675,-4.6304,-4.6313,-4.5809,-4.3538,-4.1679,0.0,0.0,0.0,0.0,0.0,0.0,0.0,0.0,0.0,0.0,0.0,0.0,0.0,0.0,0.0,0.0,0.0,0.0,0.0,0.0,0.0,0.0,0.0,0.0,0.0,0.0,0.0,0.0,0.0,0.0,0.0,0.0,0.0,0.0,0.0,0.0,0.0,0.0,0.0,0.0,0.0,-2.7653,-2.7551,-2.9247,-3.0833,0.0,0.0,-3.1692,-3.2073,-3.3529,-3.3157,-2.8497,0.0,0.0,0.0,0.0,0.0,0.0,0.0,0.0,0.0,0.0,0.0,0.0,0.0,0.0,0.0,0.0,0.0,0.0,0.0,0.0,0.0,0.0,0.0,0.0,0.0,0.0,0.0,0.0,0.0,0.0,0.0,0.0,0.0,0.0,0.0,0.0,0.0,0.0,0.0,0.0,0.0,0.0,0.0,0.0,0.0,0.0,0.0,0.0,0.0,0.0,0.0,0.0,0.0,-3.7889,-3.9692,-4.2218,-4.4178,-4.5476,-4.5771,-4.5785,-4.5577,-4.3197,-4.0949,0.0,0.0,0.0,0.0,0.0,0.0,0.0,0.0,0.0,0.0,0.0,0.0,0.0,0.0,0.0,0.0,0.0,0.0,0.0,0.0,0.0,0.0,0.0,0.0,0.0,0.0,0.0,0.0,-2.1383,-2.1131,-2.1269,0.0,0.0,0.0,0.0,0.0,0.0,0.0,0.0,0.0,0.0,-2.8833,-2.9808,-3.12,0.0,0.0,-3.1743,-3.1519,-3.07,-3.0853,-2.9859,-2.6278,-2.4771,0.0,0.0,0.0,0.0,0.0,0.0,0.0,0.0,0.0,0.0,0.0,0.0,0.0,0.0,0.0,0.0,0.0,0.0,0.0,0.0,0.0,0.0,0.0,0.0,0.0,0.0,0.0,0.0,0.0,0.0,0.0,0.0,0.0,0.0,0.0,0.0,0.0,0.0,0.0,0.0,0.0,0.0,0.0,0.0,0.0,0.0,0.0,0.0,0.0,0.0,0.0,0.0,-3.8336,-4.0388,-4.2241,-4.3931,-4.5475,-4.5091,-4.4854,-4.4647,-4.2279,-4.0038,0.0,0.0,0.0,0.0,0.0,0.0,0.0,0.0,0.0,0.0,0.0,0.0,0.0,0.0,0.0,0.0,0.0,0.0,0.0,0.0,0.0,0.0,0.0,0.0,0.0,0.0,0.0,0.0,-2.1806,-2.1434,-2.1564,0.0,0.0,0.0,0.0,0.0,0.0,0.0,0.0,0.0,0.0,-2.9854,-3.1009,-3.2265,-3.2664,-3.1504,-3.1346,-3.0891,-2.9508,-2.8631,-2.7329,-2.5038,0.0,0.0,0.0,0.0,0.0,0.0,0.0,0.0,0.0,0.0,0.0,0.0,0.0,0.0,0.0,0.0,0.0,0.0,0.0,0.0,0.0,0.0,0.0,0.0,0.0,0.0,0.0,0.0,0.0,0.0,-3.3636,0.0,0.0,0.0,0.0,0.0,0.0,0.0,0.0,0.0,0.0,0.0,0.0,0.0,0.0,0.0,0.0,0.0,0.0,0.0,0.0,0.0,0.0,-3.9052,-4.1052,-4.2047,-4.3507,-4.5389,-4.4195,-4.329,-4.2688,-4.0858,-3.9127,-3.7605,0.0,0.0,0.0,0.0,0.0,0.0,0.0,0.0,0.0,0.0,0.0,0.0,0.0,0.0,0.0,0.0,0.0,0.0,0.0,0.0,0.0,0.0,0.0,0.0,0.0,0.0,-2.3605,-2.2424,-2.1563,0.0,0.0,0.0,0.0,0.0,0.0,0.0,0.0,0.0,0.0,-2.8499,-3.0583,-3.0618,-3.2039,-3.2605,-3.1372,-3.0405,-2.9527,-2.8622,-2.7637,-2.6643,0.0,0.0,0.0,0.0,0.0,0.0,0.0,0.0,0.0,0.0,0.0,0.0,0.0,0.0,0.0,0.0,0.0,0.0,0.0,0.0,0.0,0.0,0.0,0.0,0.0,0.0,0.0,-3.4824,-3.5592,0.0,0.0,0.0,0.0,0.0,0.0,0.0,0.0,0.0,0.0,0.0,-3.809,-3.9054,0.0,0.0,0.0,0.0,0.0,0.0,0.0,0.0,0.0,0.0,0.0,0.0,-3.8653,-4.1016,-4.2021,-4.3251,-4.471,-4.3924,-4.3216,-4.257,-4.1165,-3.909,-3.6345,0.0,0.0,0.0,0.0,0.0,0.0,0.0,0.0,0.0,0.0,0.0,0.0,0.0,0.0,0.0,0.0,0.0,0.0,0.0,0.0,0.0,0.0,0.0,0.0,0.0,-2.3734,0.0,0.0,0.0,0.0,0.0,0.0,0.0,0.0,0.0,0.0,0.0,-2.6751,-2.8197,-2.9352,-3.0457,-3.1512,-3.2139,-3.207,0.0,0.0,0.0,0.0,0.0,0.0,0.0,0.0,0.0,0.0,0.0,0.0,0.0,0.0,-2.6363,-2.2595,-2.2492,-2.2995,-2.2995,0.0,0.0,0.0,0.0,0.0,0.0,0.0,0.0,0.0,0.0,0.0,0.0,0.0,0.0,-3.5832,0.0,-3.5906,0.0,0.0,0.0,0.0,0.0,0.0,0.0,0.0,-3.7671,-3.9187,-4.0137,-4.1355,-4.1504,0.0,-4.07,-3.9191,0.0,0.0,0.0,0.0,0.0,0.0,0.0,0.0,-3.8548,-4.0694,-4.1912,-4.3228,-4.4645,-4.3747,-4.2992,-4.257,-4.0716,-3.8505,-3.5881,-3.4143,-3.257,0.0,0.0,0.0,0.0,0.0,0.0,0.0,0.0,0.0,0.0,0.0,0.0,0.0,0.0,0.0,0.0,0.0,0.0,0.0,0.0,0.0,0.0,0.0,-2.377,0.0,0.0,0.0,0.0,0.0,0.0,0.0,0.0,0.0,-2.649,-2.7002,-2.7996,-2.9829,-3.008,-3.0413,-3.124,0.0,0.0,0.0,0.0,0.0,0.0,0.0,-2.4102,-2.3939,-2.4341,-2.4978,-2.5883,-2.7425,-2.8612,-2.8756,0.0,0.0,-2.5164,-2.5088,-2.5601,-2.5601,-2.6024,-2.6177,-2.5472,-2.6223,-2.6615,0.0,0.0,0.0,0.0,0.0,0.0,0.0,0.0,-3.639,-3.6616,0.0,-3.5753,0.0,0.0,0.0,0.0,0.0,-3.4981,0.0,0.0,-3.971,-4.1315,-4.1028,-4.2,-4.2408,-4.238,-4.33,-4.2405,-3.996,-3.8322,0.0,0.0,0.0,0.0,0.0,0.0,-3.8757,-4.0208,-4.1759,-4.3487,-4.5269,-4.3551,-4.257,-4.243,-3.9564,-3.74,-3.6202,-3.52,-3.4127,-3.3025,-3.2315,0.0,0.0,0.0,0.0,0.0,0.0,0.0,0.0,0.0,0.0,0.0,0.0,0.0,0.0,0.0,0.0,0.0,0.0,0.0,0.0,-2.4704,0.0,0.0,0.0,0.0,0.0,0.0,0.0,0.0,0.0,0.0,-2.6671,-2.7971,-2.9339,-3.0507,0.0,0.0,0.0,0.0,-2.9017,-2.664,-2.6328,-2.618,-2.5337,-2.564,-2.6046,-2.6433,0.0,0.0,-2.9761,-2.9409,-2.9114,-2.9066,-2.9618,-2.965,-2.9612,-2.91,-2.8807,-2.8702,-2.7319,-2.6004,-2.5883,-2.6487,-2.6546,-3.9553,0.0,0.0,0.0,0.0,-3.8007,-3.8996,-4.0396,-3.9382,-3.8852,-3.8546,-3.7194,0.0,0.0,0.0,0.0,0.0,0.0,-3.5695,-3.75,-4.0207,-4.2205,-4.366,-4.5539,-4.5946,-4.5148,-4.4553,-4.3409,-4.1822,-4.0428,-3.9024,-3.7528,0.0,0.0,0.0,0.0,-3.9235,-4.1635,-4.2673,-4.3453,-4.4043,-4.3127,-4.2149,-4.125,-3.9549,-3.8255,-3.74,-3.5883,-3.4795,-3.4184,-3.3188,0.0,0.0,0.0,0.0,0.0,0.0,0.0,0.0,0.0,0.0,0.0,0.0,0.0,0.0,0.0,0.0,0.0,0.0,0.0,-2.6263,-2.5272,-2.4614,0.0,0.0,0.0,0.0,0.0,0.0,0.0,0.0,0.0,-2.9289,-2.9478,-3.0105,0.0,0.0,-3.0113,-3.0332,-3.0366,-2.9876,-2.8589,-2.8451,0.0,-2.739,-2.7077,-2.7027,-2.713,-2.8795,-3.051,-3.196,-3.265,-3.3152,-3.3575,-3.3831,-3.3843,-3.3431,-3.1934,-3.0597,-2.9915,-3.0277,-3.0556,-3.0001,-3.0156,-3.0267,-4.3215,-4.1367,-4.0129,-3.9852,-4.0268,-4.0526,-4.1281,-4.2317,-4.1413,-4.0783,-4.0205,-3.8693,-3.7411,-3.6342,-3.5399,0.0,0.0,0.0,-3.6667,-3.9267,-4.1195,-4.3299,-4.5545,-4.7299,-4.76,-4.6645,-4.5886,-4.5015,-4.4031,-4.2947,-4.1568,-3.9807,0.0,0.0,-3.8365,-3.8935,-4.0139,-4.1877,-4.2911,-4.3466,-4.3469,-4.2402,-4.1362,-4.035,-3.9142,-3.8299,-3.7906,-3.6624,-3.5714,-3.5249,-3.4199,-3.3503,0.0,0.0,0.0,0.0,0.0,0.0,0.0,0.0,0.0,0.0,0.0,-2.7898,-2.7052,0.0,0.0,0.0,-2.5864,-2.6059,-2.6601,-2.5935,0.0,0.0,0.0,0.0,0.0,0.0,0.0,-2.7832,-2.885,-2.993,-3.0783,-3.0633,-3.0959,-3.2365,-3.1336,-3.0473,-3.0589,0.0,-2.997,-2.9095,-2.897,-2.89,-2.8718,-2.8819,-2.9127,-2.9823,-3.1156,-3.2499,-3.3588,-3.4511,-3.5182,-3.5386,-3.5467,-3.5263,-3.4647,-3.3632,-3.2798,-3.2221,-3.289,-3.3452,-3.3222,-3.2749,-3.2179,-4.6083,-4.5344,-4.3211,-4.2353,-4.2479,-4.3032,-4.3109,-4.289,-4.2749,-4.2412,-4.1811,-4.017,-3.9455,-3.9316,-3.7389,0.0,-3.7408,-3.7015,-3.8521,-4.1356,-4.2687,-4.4543,-4.6736,-4.7671,-4.7718,-4.715,-4.715,-4.6813,-4.6139,-4.5336,-4.4374,-4.3177,-4.144,-4.0134,-3.9275,-4.0535,-4.1241,-4.1312,-4.2737,-4.3403,-4.3245,-4.1502,-4.0266,-3.962,-3.8468,-3.7793,-3.7737,-3.7147,-3.6624,-3.6033,-3.5135,-3.4377,-3.3825,0.0,0.0,0.0,0.0,0.0,0.0,0.0,0.0,0.0,0.0,0.0,0.0,0.0,0.0,0.0,-2.6147,0.0,-2.6725,-2.6725,0.0,0.0,0.0,-2.8448,-2.8913,-2.9503,-2.9854,-2.9854,0.0,0.0,-3.1386,-3.1461,-3.1863,-3.2943,-3.2089,-3.1232,-3.0778,-3.0398,-2.9652,-2.8988,-2.8795,-2.9005,-2.9847,-3.0715,-3.1807,-3.3182,-3.4288,-3.4553,-3.4744,-3.5196,-3.5507,-3.529,-3.5127,-3.4853,-3.3979,-3.447,-3.5086,-3.4924,-3.4897,-3.5032,-3.5233,-3.4047,-3.2857,-4.76,-4.7403,-4.6869,-4.5825,-4.4593,-4.4687,-4.5053,-4.536,-4.4746,-4.3552,-4.2012,-4.1008,-4.0138,-3.9351,-3.9462,-4.0034,-4.0973,-4.0892,-4.1878,-4.3804,-4.484,-4.5598,-4.6189,-4.7476,-4.7572,-4.656,-4.6504,-4.6195,-4.5549,-4.4884,-4.4326,-4.3832,-4.3421,-4.2324,-4.0596,-4.1324,-4.1835,-4.2024,-4.2849,-4.2672,-4.1362,-4.0013,-3.9002,-3.8355,-3.7597,-3.6978,-3.6539,-3.5949,-3.5555,-3.5414,-3.4719,-3.4158,-3.3819,-3.3495,0.0,0.0,0.0,0.0,0.0,0.0,0.0,0.0,0.0,-2.9922,-2.9531,0.0,-2.8306,0.0,-2.7214,-2.7501,-2.8875,-2.8599,0.0,0.0,-2.9302,-2.9453,-2.9578,-3.0041,-3.0432,-3.0407,-3.0884,-3.1411,-3.1964,-3.2014,-3.2265,-3.2943,-3.2114,-3.1505,-3.1779,-3.1737,-3.1522,-3.1151,-3.1309,-3.18,-3.2081,-3.2665,-3.3384,-3.4314,-3.4579,-3.4895,-3.5386,-3.5588,-3.5669,-3.5548,-3.529,-3.5044,-3.4756,-3.4962,-3.5086,-3.5127,-3.5304,-3.5426,-3.5303,-3.4797,-3.4454,-4.8083,-4.8083,-4.8083,-4.7466,-4.6511,-4.6511,-4.6785,-4.7045,-4.6645,-4.5399,-4.3557,-4.2526,-4.1619,-4.0839,-4.1656,-4.2396,-4.2961,-4.2961,-4.3808,-4.5299,-4.5789,-4.6283,-4.6865,-4.7404,-4.7375,-4.6701,-4.642,-4.6111,-4.5745,-4.5408,-4.4931,-4.4213,-4.4259,-4.3377,-4.1689,-4.2087,-4.2434,-4.2567,-4.2153,-4.1398,-4.0337,-3.9086,-3.8211,-3.772,-3.6844,-3.6155,-3.5744,-3.5117,-3.4954,-3.521,-3.4605,-3.4162,-3.4031,-3.3512,-3.297,0.0,0.0,0.0,0.0,0.0,0.0,0.0,0.0,0.0,0.0,0.0,-2.9726,-2.8883,-2.8574,-2.8813,-2.9704,-2.969,-2.9905,-3.0457,-3.0733,-3.0959,-3.1235,-3.1537,-3.1712,-3.1712,-3.1964,-3.2265,-3.2566,-3.2591,-3.2717,-3.3043,-3.2541,-3.224,-3.2516,-3.2591,-3.2536,-3.2313,-3.2519,-3.2869,-3.338,-3.4048,-3.4617,-3.503,-3.5141,-3.5263,-3.5629,-3.571,-3.5588,-3.5223,-3.51,-3.4962,-3.4605,-3.4853,-3.5086,-3.5168,-3.5413,-3.5588,-3.5413,-3.5249,-3.5086,-4.8139,-4.8083,-4.8083,-4.8083,-4.8083,-4.8083,-4.8083,-4.8083,-4.8083,-4.7208,-4.5582,-4.4254,-4.3464,-4.3206,-4.4037,-4.4447,-4.4447,-4.4447,-4.5102,-4.6256,-4.6283,-4.6888,-4.7915,-4.7459,-4.7122,-4.6954,-4.642,-4.6139,-4.6055,-4.597,-4.5372,-4.4275,-4.418,-4.3506,-4.2296,-4.2449,-4.2502,-4.2415,-4.0945,-3.9991,-3.966,-3.842,-3.7685,-3.731,-3.6196,-3.5397,-3.5056,-3.4592,-3.4506,-3.4882,-3.4506,-3.4303,-3.424,-3.3553,-3.3157,0.0,-3.2089,0.0,0.0,0.0,0.0,0.0,0.0,0.0,0.0,-3.2146,-3.1409,-3.0098,-2.996,-2.9955,-3.008,-3.0532,-3.1035,-3.1562,-3.2039,-3.2541,-3.3036,-3.3136,-3.3136,-3.3136,-3.3136,-3.3111,-3.3086,-3.3136,-3.3111,-3.3111,-3.3061,-3.3036,-3.3068,-3.3086,-3.2978,-3.2767,-3.2861,-3.3319,-3.3976,-3.4864,-3.5508,-3.5656,-3.5669,-3.571,-3.571,-3.571,-3.5467,-3.4853,-3.4895,-3.4853,-3.4037,-3.4647,-3.5127,-3.5208,-3.5467,-3.5669,-3.5669,-3.5453,-3.5208,-4.8532,-4.8083,-4.8083,-4.8083,-4.8083,-4.8083,-4.8083,-4.8083,-4.8083,-4.7545,-4.6506,-4.5528,-4.5421,-4.6075,-4.6929,-4.7286,-4.7313,-4.7313,-4.7471,-4.7684,-4.7684,-4.7589,-4.7353,-4.7263,-4.6673,-4.5717,-4.5577,-4.524,-4.4762,-4.4256,-4.3821,-4.3446,-4.2934,-4.251,-4.2013,0.0,0.0,0.0,-3.9154,-3.8831,-3.8695,-3.7806,-3.7082,-3.6519,-3.5761,0.0,-3.3844,-3.4163,-3.3931,-3.3028,-3.3873,0.0,0.0,0.0,0.0,0.0,0.0,0.0,0.0,0.0,0.0,0.0,-3.4113,-3.3706,-3.2453,-3.1646,-3.1185,-3.1099,-3.0698,-3.0809,-3.1662,-3.1838,-3.2139,-3.2692,-3.2885,-3.2943,-3.3111,-3.3136,-3.3136,-3.3136,-3.3136,-3.3136,-3.3136,-3.3136,-3.3136,-3.3136,-3.3136,-3.3136,-3.3136,-3.3136,-3.3075,-3.3089,-3.3546,-3.4091,-3.4302,-3.508,-3.5737,-3.5696,-3.571,-3.571,-3.571,-3.571,-3.571,-3.5426,-3.5263,-3.5208,-3.5263,-3.5223,-3.5304,-3.5548,-3.5629,-3.571,-3.571,-3.5629,-3.5588,-4.8813,0.0,-4.8195,-4.8083,0.0,-4.8083,-4.8083,-4.8083,-4.8083,-4.7647,-4.6794,-4.6348,-4.6401,-4.6818,-4.7699,-4.8083,-4.8083,-4.8083,-4.8083,-4.8083,-4.8083,-4.7746,-4.7207,-4.6897,-4.6251,-4.5276,-4.5015,-4.4706,-4.4397,-4.4088,-4.3607,-4.2927,-4.2587,-4.2094,-4.1339,-4.0151,-3.9143,-3.8352,-3.8159,-3.7965,-3.7742,-3.7339,-3.69,-3.6453,-3.5784,0.0,0.0,0.0,0.0,0.0,0.0,0.0,0.0,-3.4692,0.0,-3.4004,-3.3742,-3.3512,-3.3477,-3.333,-3.3409,-3.3699,-3.3725,-3.3489,-3.3013,-3.2398,-3.2077,-3.2248,-3.1989,-3.2039,-3.2566,-3.2641,-3.2767,-3.3043,-3.3136,-3.3136,-3.3136,-3.3136,-3.3136,-3.3136,-3.3136,-3.3136,-3.3136,-3.3136,-3.3136,-3.3136,-3.3136,-3.3136,-3.3136,-3.3136,-3.3136,-3.3111,-3.381,-3.4397,-3.4522,-3.544,-3.6031,-3.5831,-3.5951,-3.6031,-3.575,-3.571,-3.5629,-3.5467,-3.5629,-3.5911,-3.5843,-3.6084,-3.6417,-3.654,-3.6405,-3.6233,-3.6182,-3.5939,-3.571,-4.9094,-4.8925,-4.8336,-4.8083,-4.8083,-4.8083,-4.8083,-4.8083,0.0,0.0,0.0,-4.6898,-4.6898,-4.7053,-4.775,-4.8083,-4.8083,-4.8083,-4.8083,-4.8083,-4.8083,-4.7746,-4.7178,-4.6588,-4.5942,-4.5324,-4.4706,-4.4425,-4.4397,-4.4312,-4.3694,-4.2654,-4.2458,-4.1783,-4.0547,-3.9577,-3.8613,-3.7699,-3.7643,-3.7433,-3.7095,-3.706,-3.694,-3.6728,-3.6061,-3.5576,-3.5317,-3.4882,-3.4761,-3.5114,-3.5317,-3.5427,-3.5392,-3.5443,-3.5246,-3.4646,-3.3833,-3.3545,-3.3885,-3.3091,-3.2693,-3.3086,-3.3136,-3.3225,-3.3569,-3.3301,-3.3136,-3.3136,-3.3136,-3.3111,-3.3136,-3.3111,-3.3136,-3.3136,-3.3136,-3.3136,-3.3136,-3.3136,-3.3136,-3.3136,-3.3136,-3.3136,-3.3136,-3.3136,-3.3136,-3.3136,-3.3136,-3.3136,-3.3136,-3.3136,-3.3111,-3.3283,-3.3937,-3.4439,-3.4688,-3.5683,-3.6389,-3.6031,-3.635,-3.6468,-3.6031,-3.5871,-3.575,-3.5548,-3.623,-3.6559,-3.6441,-3.6922,-3.7577,-3.7611,-3.7197,-3.6828,-3.6801,-3.6451,-3.6071,-4.9511,-4.8925,-4.8336,-4.8083,-4.8083,-4.8083,-4.8083,-4.8004,-4.7312,-4.7312,-4.7852,-4.7105,-4.7208,-4.7931,-4.8055,-4.8083,-4.8083,-4.8083,-4.8083,-4.8083,-4.8083,-4.7797,-4.7207,-4.6588,-4.597,-4.5324,-4.4706,-4.4425,-4.4369,-4.3891,-4.3273,-4.2598,-4.2036,-4.1137,-4.0013,-3.9732,-3.9071,-3.7873,-3.7689,-3.7586,-3.7481,-3.7279,-3.7147,-3.7098,-3.6461,-3.5861,-3.5317,-3.5693,-3.5462,-3.4529,-3.5491,-3.5927,-3.5596,-3.6119,-3.625,-3.579,-3.5608,-3.5371,-3.4858,-3.4184,-3.3606,-3.3154,-3.3136,-3.3129,-3.3182,-3.3129,-3.3136,-3.3136,-3.3136,-3.3136,-3.3136,-3.3136,-3.3136,-3.3136,-3.3136,-3.3136,-3.3136,-3.3136,-3.3136,-3.3136,-3.3136,-3.3136,-3.3136,-3.3136,-3.3111,-3.3111,-3.3283,-3.3154,-3.3197,-3.3136,-3.324,-3.3598,-3.4063,-3.4522,-3.5018,-3.5951,-3.6587,-3.6587,-3.6626,-3.6705,-3.6429,-3.6429,-3.6429,-3.6468,-3.7017,-3.7376,-3.7337,-3.7453,-3.7691,-3.7737,-3.7595,-3.749,-3.7455,-3.7353,-3.7106,-5.0073,-4.9483,-4.8893,-4.8392,-4.8083,-4.8083,-4.8083,-4.8083,-4.7699,-4.7699,-4.8032,-4.7647,-4.7699,-4.8083,-4.8083,-4.8083,-4.8083,-4.8083,-4.8083,-4.8083,-4.8083,-4.7797,-4.7235,-4.6926,-4.6279,-4.5304,-4.4995,-4.4734,-4.4425,-4.4144,-4.3694,-4.3048,-4.2121,-4.0997,-3.9873,-3.9788,-3.938,-3.848,-3.7992,-3.7618,-3.7317,-3.7158,-3.7092,-3.7092,-3.6778,-3.6522,-3.6237,-3.6493,-3.6379,-3.5801,-3.6313,-3.6523,-3.6401,-3.6656,-3.6553,-3.6044,-3.6018,-3.571,-3.5032,-3.4439,-3.3793,-3.3154,-3.3136,-3.3136,-3.3136,-3.3136,-3.3136,-3.3136,-3.3136,-3.3136,-3.3136,-3.3136,-3.3136,-3.3136,-3.3136,-3.3136,-3.3136,-3.3136,-3.3136,-3.3136,-3.3136,-3.3136,-3.3136,-3.3136,-3.3283,-3.3581,-3.3894,-3.4063,-3.3979,-3.4246,-3.4246,-3.3894,-3.4314,-3.4977,-3.5521,-3.648,-3.695,-3.6783,-3.6978,-3.6861,-3.6429,-3.6429,-3.6705,-3.6783,-3.7443,-3.8014,-3.8089,-3.8389,-3.8522,-3.8514,-3.8289,-3.811,-3.7978,-3.7901,-3.7767,-5.0547,-4.9957,-4.9314,-4.8644,-4.8083,-4.8083,-4.8083,-4.8083,-4.8083,-4.8083,-4.8083,-4.8083,-4.8083,-4.8083,-4.8083,-4.8083,-4.8083,-4.8083,-4.8083,-4.8083,-4.8083,-4.7746,-4.7235,-4.7066,-4.642,-4.536,-4.5136,-4.4874,-4.4453,-4.4425,-4.4088,-4.3413,-4.2233,-4.1137,-4.021,-4.0041,-3.9718,-3.9099,-3.844,-3.7821,-3.7203,-3.7102,-3.694,-3.6889,-3.694,-3.6968,-3.6889,-3.694,-3.6978,-3.6978,-3.6978,-3.6978,-3.6978,-3.6978,-3.6783,-3.627,-3.623,-3.5843,-3.5073,-3.4605,-3.4047,-3.3411,-3.3326,-3.3368,-3.3539,-3.3522,-3.3419,-3.3179,-3.3136,-3.3136,-3.3136,-3.3136,-3.3154,-3.3283,-3.3326,-3.3368,-3.3326,-3.3326,-3.324,-3.3154,-3.3136,-3.3154,-3.3283,-3.3326,-3.3624,-3.423,-3.4786,-3.5047,-3.4965,-3.5467,-3.5386,-3.4924,-3.5073,-3.5723,-3.6294,-3.7144,-3.7529,-3.7144,-3.7519,-3.7404,-3.6833,-3.69,-3.7095,-3.7289,-3.8014,-3.8575,-3.8752,-3.9046,-3.9265,-3.9258,-3.8936,-3.8679,-3.853,-3.8509,-3.8302,-5.0522,-4.9957,-4.9314,-4.8644,-4.8111,-4.8111,-4.8111,-4.8111,-4.8083,-4.8083,-4.8083,-4.8083,-4.8083,-4.8083,-4.8083,-4.8083,-4.8083,-4.8083,-4.8083,-4.8083,-4.8083,-4.7797,-4.7235,-4.6673,-4.5998,-4.5304,-4.4818,-4.4565,-4.4425,-4.4425,-4.4116,-4.3413,-4.2233,-4.1587,-4.139,-4.0884,-4.0322,-3.9704,-3.9127,-3.8468,-3.7821,-3.7288,-3.6811,-3.6457,-3.6811,-3.685,-3.6563,-3.6811,-3.6978,-3.6978,-3.6978,-3.6978,-3.6978,-3.6978,-3.694,-3.69,-3.69,-3.6362,-3.5155,-3.495,-3.4647,-3.4063,-3.403,-3.4256,-3.4729,-3.4778,-3.4328,-3.3504,-3.3154,-3.3197,-3.3136,-3.3154,-3.3454,-3.3962,-3.4004,-3.4004,-3.3979,-3.4004,-3.3793,-3.3154,-3.324,-3.3326,-3.3878,-3.4021,-3.4314,-3.4909,-3.5413,-3.5709,-3.5749,-3.6346,-3.6788,-3.6593,-3.6738,-3.6894,-3.7376,-3.7947,-3.8202,-3.824,-3.8315,-3.8165,-3.7938,-3.8014,-3.8277,-3.8052,-3.8752,-3.9192,-3.9228,-3.9373,-3.9373,-3.9403,-3.9301,-3.9265,-3.9265,-3.9228,-3.898,-5.0913,-5.0013,-4.9679,-4.923,-4.8701,-4.9061,-4.9005,-4.8616,-4.8616,-4.842,-4.8083,-4.8083,-4.8083,-4.8083,-4.8083,-4.8083,-4.8083,-4.8083,-4.8083,-4.8083,-4.8083,-4.7993,-4.7712,-4.7122,-4.6504,-4.5886,-4.524,-4.4762,-4.4453,-4.4425,-4.4088,-4.3526,-4.2964,-4.2345,-4.1671,-4.1362,-4.094,-4.035,-3.9704,-3.9283,-3.8889,-3.7681,-3.69,-3.6811,-3.6929,-3.694,-3.6811,-3.69,-3.6978,-3.6978,-3.6978,-3.6978,-3.6978,-3.6978,-3.6978,-3.6978,-3.6978,-3.6587,-3.5669,-3.5927,-3.5667,-3.4714,-3.5004,-3.5182,-3.5018,-3.5006,-3.4733,-3.433,-3.4184,-3.4225,-3.4204,-3.423,-3.433,-3.4605,-3.462,-3.4647,-3.4647,-3.4647,-3.4496,-3.4272,-3.4204,-3.4288,-3.4647,-3.4977,-3.5399,-3.5924,-3.6413,-3.6766,-3.6961,-3.7577,-3.7919,-3.7919,-3.8136,-3.8248,-3.824,-3.8315,-3.8493,-3.853,-3.853,-3.8456,-3.8165,-3.8315,-3.8493,-3.853,-3.901,-3.9373,-3.9337,-3.9403,-3.9403,-3.9403,-3.9403,-3.9403,-3.9403,-3.9403,-3.9265,-5.1169,-5.0322,-5.0097,-4.9707,-4.9342,-4.9764,-4.9595,-4.9037,-4.8981,-4.8644,-4.8111,-4.8083,-4.8083,-4.8083,-4.8083,-4.8083,-4.8083,-4.8083,-4.8083,-4.8083,-4.8083,-4.8083,-4.7999,-4.7488,-4.6897,-4.6307,-4.583,-4.5268,-4.4706,-4.4481,-4.4172,-4.3807,-4.3582,-4.3048,-4.2233,-4.198,-4.1559,-4.0969,-4.0322,-3.9957,-3.9592,-3.8311,-3.7389,-3.7102,-3.7024,-3.694,-3.685,-3.6968,-3.6978,-3.6978,-3.6978,-3.6978,-3.6978,-3.7147,-3.7316,-3.7484,-3.7484,-3.7123,-3.6318,-3.6838,-3.6716,-3.5735,-3.6124,-3.641,-3.6129,-3.59,-3.5913,-3.6062,-3.594,-3.5683,-3.5047,-3.4991,-3.5073,-3.5237,-3.5277,-3.5277,-3.5277,-3.5277,-3.5196,-3.5032,-3.4868,-3.5073,-3.5318,-3.5911,-3.6547,-3.6833,-3.7453,-3.7938,-3.8165,-3.8575,-3.887,-3.8789,-3.9119,-3.9156,-3.8826,-3.8789,-3.8752,-3.8752,-3.8789,-3.8649,-3.8173,-3.8538,-3.8752,-3.8973,-3.9228,-3.9337,-3.9403,-3.9403,-3.9403,-3.9403,-3.9403,-3.9403,-3.9403,-3.9403,-3.9403,-5.1421,-5.0829,-5.0238,-4.9985,-4.9985,-5.0013,-4.9623,-4.8981,-4.8981,-4.8644,-4.8111,-4.8083,-4.8083,-4.8083,-4.8083,-4.8083,-4.8083,-4.8083,-4.8083,-4.8083,-4.8083,-4.8083,-4.8027,-4.7488,-4.6897,-4.6392,-4.6223,-4.5858,-4.5192,-4.4678,-4.4397,-4.434,-4.3807,-4.3497,-4.3245,-4.2795,-4.2233,-4.1587,-4.0969,-4.0407,-3.9845,-3.9183,-3.8305,-3.7519,-3.7119,-3.6878,-3.6591,-3.6811,-3.7007,-3.7007,-3.7063,-3.7035,-3.7102,-3.7569,-3.8131,-3.8677,-3.879,-3.8224,-3.7181,-3.7552,-3.7593,-3.7044,-3.7427,-3.8048,-3.8295,-3.7805,-3.7721,-3.8555,-3.7789,-3.6847,-3.5466,-3.5438,-3.5561,-3.6047,-3.6006,-3.5978,-3.5978,-3.5978,-3.5642,-3.5237,-3.5237,-3.5481,-3.5951,-3.69,-3.7366,-3.7672,-3.824,-3.8686,-3.873,-3.9119,-3.9228,-3.9265,-3.9337,-3.9373,-3.9337,-3.9228,-3.9228,-3.9228,-3.9156,-3.9265,-3.9337,-3.9337,-3.9301,-3.9301,-3.9337,-3.9373,-3.9403,-3.9403,-3.9403,-3.9403,-3.9403,-3.9403,-3.9403,-3.9403,-3.9403,-5.1421,-5.0857,-5.0266,-5.0013,-5.0013,-5.0013,-4.9595,-4.9009,-4.8981,-4.8644,-4.8139,-4.8083,-4.8083,-4.8083,-4.8083,-4.8083,-4.8083,-4.8083,-4.8083,-4.8083,-4.8083,-4.8083,-4.7999,-4.7488,-4.7122,-4.6869,-4.6476,-4.597,-4.5324,-4.4706,-4.4425,-4.4397,-4.42,-4.3891,-4.3526,-4.3273,-4.2851,-4.2233,-4.1615,-4.1193,-4.0884,-3.9957,-3.9256,-3.8879,-3.8022,-3.7489,-3.7398,-3.7489,-3.7765,-3.8199,-3.8227,-3.8227,-3.8255,-3.8424,-3.8649,-3.8874,-3.893,-3.8667,-3.8322,-3.8797,-3.8811,-3.8309,-3.8727,-3.9006,-3.882,-3.8299,-3.8018,-3.8102,-3.7681,-3.69,-3.669,-3.6972,-3.7551,-3.7727,-3.7461,-3.7211,-3.7127,-3.6877,-3.6547,-3.6362,-3.648,-3.6783,-3.7046,-3.7596,-3.8052,-3.8315,-3.8427,-3.8649,-3.9017,-3.9156,-3.9156,-3.9337,-3.9403,-3.9403,-3.9403,-3.9403,-3.9403,-3.9373,-3.9373,-3.9337,-3.9403,-3.9403,-3.9337,-3.9337,-3.9403,-3.9403,-3.9403,-3.9403,-3.9403,-3.9403,-3.9403,-3.9373,-3.9403,-3.9265,-3.9301,-5.1534,-5.1084,-5.0547,-5.0294,-5.0294,-5.0097,-4.9595,-4.9037,-4.8981,-4.8644,-4.8139,-4.8083,-4.8083,-4.8083,-4.8083,-4.8083,-4.8083,-4.8083,-4.8083,-4.8083,-4.8083,-4.8083,-4.805,-4.7684,-4.7403,-4.7122,-4.6588,-4.6055,-4.5605,-4.5015,-4.4621,-4.4425,-4.4425,-4.42,-4.3863,-4.3807,-4.3497,-4.2879,-4.243,-4.2149,-4.184,-4.0912,-4.0266,-3.9957,-3.9058,-3.8412,-3.8243,-3.8215,-3.8424,-3.8846,-3.893,-3.8986,-3.9155,-3.917,-3.9296,-3.9423,-3.9479,-3.9408,-3.9296,-3.9732,-3.9816,-3.9296,-3.9732,-3.9873,-3.9465,-3.8693,-3.8355,-3.8271,-3.7737,-3.7372,-3.7974,-3.8664,-3.9043,-3.8677,-3.8159,-3.807,-3.8331,-3.7851,-3.7533,-3.7423,-3.7558,-3.7797,-3.8055,-3.8281,-3.8581,-3.9062,-3.8825,-3.8863,-3.9228,-3.9192,-3.9083,-3.9337,-3.9403,-3.9403,-3.9403,-3.9403,-3.9403,-3.9403,-3.9403,-3.9403,-3.9403,-3.9403,-3.9403,-3.9403,-3.9403,-3.9403,-3.9403,-3.9403,-3.9403,-3.9403,-3.9337,-3.9337,-3.9228,-3.9046,-3.8936,-5.1787,-5.1646,-5.1112,-5.0829,-5.0688,-5.0154,-4.9567,-4.8981,-4.8925,-4.856,-4.8111,-4.8083,-4.8083,-4.8083,-4.8083,-4.8083,-4.8083,-4.8083,-4.8083,-4.8083,-4.8083,-4.8083,-4.8055,-4.8078,-4.7718,-4.7291,-4.6645,-4.6335,-4.6251,-4.5577,-4.4939,-4.4537,-4.4453,-4.4369,-4.4397,-4.4312,-4.4059,-4.3582,-4.3385,-4.3104,-4.257,-4.1896,-4.1278,-4.0716,-4.0097,-3.9549,-3.8986,-3.893,-3.8958,-3.9015,-3.9043,-3.924,-3.9704,-3.9788,-4.0041,-4.0463,-4.0631,-4.035,-3.9929,-4.0322,-4.035,-3.9957,-4.035,-4.0575,-4.0322,-3.9507,-3.9099,-3.9324,-3.8677,-3.8299,-3.9296,-3.9577,-3.9324,-3.8215,-3.8295,-3.8597,-3.9173,-3.8939,-3.8456,-3.8332,-3.8397,-3.8522,-3.8926,-3.8969,-3.9076,-3.9445,-3.9343,-3.9238,-3.948,-3.9407,-3.939,-3.9403,-3.9403,-3.9403,-3.9403,-3.9403,-3.9403,-3.9403,-3.9403,-3.9403,-3.9403,-3.9403,-3.9403,-3.9403,-3.9403,-3.9403,-3.9403,-3.9403,-3.9403,-3.9403,-3.9337,-3.9156,-3.8936,-3.8679,-3.8315,-5.1787,-5.1702,-5.114,-5.066,-5.0238,-4.9595,-4.8925,-4.8392,-4.8415,-4.8302,-4.8083,-4.8083,-4.8083,-4.8083,-4.8083,-4.8083,-4.8083,-4.8083,-4.8083,-4.8083,-4.8083,-4.8083,-4.8083,-4.8083,-4.7971,-4.7769,-4.7207,-4.6926,-4.6729,-4.5858,-4.5164,-4.4967,-4.4621,-4.4425,-4.4453,-4.4397,-4.4284,-4.4116,-4.3722,-4.3385,-4.316,-4.2598,-4.198,-4.139,-4.1137,-4.0772,-4.0154,-3.9704,-3.9732,-4.0069,-4.0126,-4.021,-4.0378,-4.0407,-4.0491,-4.0659,-4.0716,-4.0659,-4.0491,-4.0575,-4.0631,-4.0463,-4.0603,-4.0688,-4.0631,-3.9957,-3.9605,-3.9703,-3.9084,-3.8858,-3.9053,-3.9168,-3.9476,-4.0218,-3.9905,-3.9784,-4.0343,-4.0047,-3.971,-3.9664,-3.9808,-3.9759,-3.9381,-3.9279,-3.9504,-3.9694,-3.9291,-3.9048,-3.978,-3.9572,-3.9276,-3.9348,-3.939,-3.9493,-3.9553,-3.9553,-3.9523,-3.9433,-3.9403,-3.9403,-3.9403,-3.9403,-3.9403,-3.9403,-3.9403,-3.9403,-3.9403,-3.9403,-3.9403,-3.9228,-3.9046,-3.8826,-3.8567,-3.8165,-3.7787,-5.1787,-5.1702,-5.114,-5.0716,-5.0294,-4.9651,-4.9174,-4.878,-4.8555,-4.8612,-4.8752,-4.8555,-4.8612,-4.878,-4.8808,-4.8668,-4.8499,-4.842,-4.8308,-4.8111,-4.8083,-4.8083,-4.8083,-4.8083,-4.8083,-4.8027,-4.774,-4.7431,-4.7178,-4.6448,-4.5914,-4.5633,-4.5071,-4.4762,-4.4706,-4.4537,-4.4425,-4.4369,-4.4031,-4.3835,-4.3666,-4.302,-4.2514,-4.2233,-4.1643,-4.1221,-4.0969,-4.0435,-4.0294,-4.0631,-4.0716,-4.0716,-4.0716,-4.0688,-4.0716,-4.0716,-4.0716,-4.0688,-4.0716,-4.0688,-4.0716,-4.0716,-4.0716,-4.0716,-4.0603,-4.0126,-3.9802,-3.9731,-3.9253,-3.8999,-3.9194,-3.9401,-4.0104,-4.1433,-4.0821,-4.074,-4.111,-4.1165,-4.0891,-4.0733,-4.0592,-4.0418,-4.0323,-3.9492,-3.977,-3.9833,-3.9255,-3.885,-3.9699,-3.9772,-3.9743,-3.9861,-4.0144,-4.0127,-3.9858,-3.9768,-3.9679,-3.9523,-3.9403,-3.9403,-3.9403,-3.9403,-3.9403,-3.9403,-3.9403,-3.9403,-3.9403,-3.9403,-3.9403,-3.9083,-3.8716,-3.8306,-3.7967,-3.7558,-3.7106,-5.1896,-5.1811,-5.1276,-5.1023,-5.0882,-5.0294,-4.9985,-4.9844,-4.9342,-4.937,-4.9651,-4.9286,-4.937,-4.9872,-4.9788,-4.9511,-4.9145,-4.8925,-4.8644,-4.8331,-4.819,-4.8083,-4.8083,-4.8083,-4.8083,-4.8055,-4.8078,-4.7797,-4.7375,-4.7122,-4.6926,-4.6307,-4.5717,-4.5276,-4.5136,-4.4734,-4.4481,-4.4425,-4.4369,-4.434,-4.4284,-4.3357,-4.2935,-4.3301,-4.1868,-4.1193,-4.139,-4.094,-4.0659,-4.0716,-4.0716,-4.0716,-4.0716,-4.0716,-4.0716,-4.0716,-4.0716,-4.0716,-4.0716,-4.0716,-4.0716,-4.0716,-4.0716,-4.0716,-4.0631,-4.0266,-3.9957,-3.9943,-3.9493,-3.9365,-3.9884,-4.0234,-4.0933,-4.172,-4.1377,-4.125,-4.1724,-4.2158,-4.195,-4.1492,-4.098,-4.0702,-4.1194,-3.9971,-3.9891,-4.0156,-3.9756,-3.966,-3.9936,-4.036,-4.0442,-4.0636,-4.0816,-4.0546,-4.0247,-4.0098,-3.9948,-3.9493,-3.9403,-3.9403,-3.9403,-3.9403,-3.9403,-3.9403,-3.9403,-3.9403,-3.9403,-3.9403,-3.9156,-3.8789,-3.8344,-3.7806,-3.7356,-3.694,-3.6626,-5.3025,-5.2996,-5.2398,-5.1925,-5.1445,-5.0876,-5.0435,-5.0041,-4.9872,-4.9848,-4.9985,-4.9792,-4.982,-5.0013,-5.0041,-4.99,-4.9679,-4.9286,-4.8953,-4.8701,-4.8252,-4.8083,-4.8083,-4.8083,-4.8083,-4.8083,-4.8083,-4.805,-4.7853,-4.7459,-4.715,-4.6954,-4.6364,-4.5802,-4.5352,-4.5136,-4.4846,-4.4481,-4.4425,-4.4425,-4.4369,-4.4088,-4.3778,-4.3385,-4.2542,-4.1924,-4.1615,-4.1025,-4.0716,-4.0716,-4.0716,-4.0716,-4.0716,-4.0744,-4.0744,-4.0716,-4.0716,-4.0716,-4.0716,-4.0716,-4.0716,-4.0716,-4.0716,-4.0716,-4.0716,-4.0575,-4.0463,-4.0435,-4.0266,-4.0407,-4.084,-4.1079,-4.1571,-4.2316,-4.2431,-4.2474,-4.2674,-4.2703,-4.2524,-4.2347,-4.1813,-4.1336,-4.0891,-4.0651,-4.05,-4.0752,-4.0695,-4.0538,-4.0888,-4.1135,-4.1245,-4.1167,-4.1242,-4.0876,-4.0636,-4.0457,-4.0157,-3.9553,-3.9403,-3.9403,-3.9403,-3.9403,-3.9403,-3.9403,-3.9403,-3.9403,-3.9403,-3.9403,-3.8973,-3.8567,-3.7956,-3.7396,-3.6872,-3.6468,-3.6151,-5.35,-5.3448,-5.2837,-5.2423,-5.2056,-5.1522,-5.1056,-5.0772,-5.0491,-5.0547,-5.066,-5.0491,-5.0547,-5.0772,-5.08,-5.0604,-5.0297,-4.996,-4.9679,-4.9314,-4.8757,-4.8364,-4.8218,-4.8083,-4.8083,-4.8083,-4.8083,-4.8083,-4.8027,-4.774,-4.76,-4.7488,-4.6982,-4.6476,-4.6167,-4.5473,-4.5183,-4.4818,-4.4593,-4.4425,-4.4425,-4.4144,-4.4059,-4.3666,-4.3104,-4.2345,-4.2008,-4.1671,-4.1278,-4.0912,-4.0912,-4.0969,-4.0744,-4.0969,-4.0969,-4.0772,-4.0716,-4.0716,-4.0716,-4.0716,-4.0716,-4.0716,-4.0716,-4.0716,-4.0716,-4.0716,-4.0716,-4.0688,-4.0859,-4.1099,-4.1392,-4.1686,-4.224,-4.2879,-4.3409,-4.3519,-4.315,-4.282,-4.2578,-4.2356,-4.1936,-4.1464,-4.085,-4.0804,-4.0833,-4.0953,-4.0948,-4.1194,-4.162,-4.1822,-4.1961,-4.1867,-4.1863,-4.1713,-4.1265,-4.0965,-4.0367,-3.9798,-3.9403,-3.9403,-3.9403,-3.9403,-3.9403,-3.9403,-3.9403,-3.9403,-3.9403,-3.9265,-3.8833,-3.836,-3.7614,-3.7003,-3.6492,-3.6151,-3.5831,-5.3658,-5.3635,-5.3049,-5.273,-5.2594,-5.2139,-5.1811,-5.1646,-5.1169,-5.1253,-5.1506,-5.1169,-5.1197,-5.1787,-5.1534,-5.145,-5.0944,-5.0747,-5.0435,-4.9848,-4.9258,-4.8701,-4.8359,-4.8139,-4.8083,-4.8083,-4.8083,-4.8083,-4.8055,-4.8078,-4.8106,-4.7937,-4.7516,-4.7263,-4.6841,-4.6026,-4.5416,-4.5108,-4.4678,-4.4425,-4.434,-4.4059,-4.4003,-4.4116,-4.3329,-4.2711,-4.2542,-4.243,-4.2036,-4.0969,-4.1418,-4.1446,-4.1081,-4.1474,-4.1474,-4.1081,-4.0997,-4.0884,-4.08,-4.08,-4.0716,-4.0716,-4.0716,-4.0716,-4.0716,-4.0773,-4.0915,-4.1084,-4.1341,-4.1665,-4.1888,-4.2368,-4.2858,-4.3409,-4.3947,-4.3675,-4.3083,-4.2754,-4.2532,-4.1976,-4.1401,-4.1254,-4.113,-4.0908,-4.0633,-4.162,-4.1615,-4.1952,-4.2225,-4.2404,-4.2485,-4.2512,-4.2551,-4.2671,-4.2102,-4.1542,-4.0763,-4.0038,-3.9589,-3.9403,-3.9403,-3.9403,-3.9403,-3.9403,-3.9403,-3.9403,-3.9403,-3.9156,-3.8797,-3.8211,-3.7587,-3.6816,-3.6123,-3.5951,-3.571,-5.4824,-5.4773,-5.423,-5.3681,-5.3237,-5.2677,-5.2193,-5.1759,-5.1646,-5.1646,-5.1731,-5.1618,-5.1646,-5.1787,-5.1787,-5.1702,-5.1478,-5.1112,-5.0604,-4.9985,-4.9342,-4.8981,-4.8644,-4.8308,-4.8083,-4.8083,-4.8083,-4.8083,-4.8083,-4.8083,-4.8083,-4.8027,-4.7965,-4.7684,-4.715,-4.6476,-4.5802,-4.5324,-4.4734,-4.4425,-4.4425,-4.4284,-4.4228,-4.434,-4.3694,-4.3104,-4.2683,-4.2598,-4.2458,-4.2289,-4.2289,-4.2345,-4.2149,-4.2261,-4.2233,-4.2008,-4.1643,-4.1418,-4.1362,-4.1053,-4.0744,-4.0828,-4.0884,-4.0716,-4.073,-4.1071,-4.1511,-4.1924,-4.2408,-4.2747,-4.3136,-4.3146,-4.3518,-4.3926,-4.3991,-4.3826,-4.3566,-4.3219,-4.2586,-4.1846,-4.1491,-4.135,-4.1451,-4.1942,-4.1964,-4.2302,-4.2524,-4.2753,-4.2832,-4.291,-4.294,-4.291,-4.297,-4.297,-4.2342,-4.1752,-4.1063,-4.0374,-3.9858,-3.9403,-3.9403,-3.9403,-3.9403,-3.9403,-3.9403,-3.9403,-3.9403,-3.9301,-3.9046,-3.8315,-3.7567,-3.694,-3.6389,-3.6031,-3.571,-5.5209,-5.5128,-5.459,-5.4023,-5.3448,-5.2837,-5.2301,-5.1896,-5.1787,-5.1787,-5.1787,-5.1787,-5.1787,-5.1787,-5.1787,-5.1787,-5.1731,-5.145,-5.0857,-5.0154,-4.9567,-4.9174,-4.856,-4.828,-4.8083,-4.8083,-4.8083,-4.8083,-4.8083,-4.8083,-4.8083,-4.8083,-4.8083,-4.7965,-4.7516,-4.6757,-4.6167,-4.5689,-4.4874,-4.4425,-4.4425,-4.4425,-4.4425,-4.4397,-4.4088,-4.375,-4.3526,-4.3469,-4.3469,-4.3441,-4.3413,-4.3132,-4.2784,-4.2823,-4.2851,-4.2542,-4.2317,-4.2064,-4.1952,-4.1783,-4.1615,-4.1559,-4.1559,-4.1587,-4.1631,-4.1849,-4.2179,-4.2739,-4.3171,-4.3682,-4.4353,-4.4352,-4.4445,-4.4377,-4.4524,-4.435,-4.392,-4.3398,-4.2736,-4.1994,-4.1778,-4.1731,-4.1922,-4.2579,-4.2695,-4.2688,-4.2881,-4.3101,-4.3071,-4.314,-4.317,-4.317,-4.323,-4.306,-4.2491,-4.1901,-4.1302,-4.0703,-4.0187,-3.9738,-3.9499,-3.9433,-3.9403,-3.9403,-3.9403,-3.9403,-3.9373,-3.9301,-3.9156,-3.853,-3.7825,-3.724,-3.6654,-3.6258,-3.5911,-5.5209,-5.5128,-5.4641,-5.4097,-5.3553,-5.2996,-5.2462,-5.2004,-5.1841,-5.1787,-5.1787,-5.1787,-5.1787,-5.1787,-5.1787,-5.1787,-5.1731,-5.1562,-5.0916,-5.0269,-4.9764,-4.9202,-4.8504,-4.8223,-4.8083,-4.8083,-4.8083,-4.8083,-4.8083,-4.8083,-4.8083,-4.8083,-4.8083,-4.8027,-4.7774,-4.6954,-4.6251,-4.6055,-4.5015,-4.4425,-4.4425,-4.4425,-4.4425,-4.4397,-4.4369,-4.4312,-4.4228,-4.4256,-4.434,-4.4425,-4.4425,-4.3863,-4.3329,-4.3273,-4.3469,-4.2907,-4.2823,-4.2711,-4.2654,-4.257,-4.2458,-4.2598,-4.2542,-4.2542,-4.2531,-4.2697,-4.3107,-4.3573,-4.4095,-4.4654,-4.5371,-4.5185,-4.5078,-4.5023,-4.5355,-4.5039,-4.4356,-4.366,-4.3185,-4.2768,-4.2778,-4.2844,-4.2865,-4.3225,-4.3142,-4.3086,-4.3309,-4.3439,-4.3409,-4.329,-4.329,-4.329,-4.329,-4.329,-4.2821,-4.2351,-4.1692,-4.14,-4.0793,-4.0374,-3.9918,-3.9828,-3.9828,-3.9433,-3.9403,-3.9403,-3.9403,-3.9373,-3.9083,-3.8634,-3.8356,-3.7959,-3.7314,-3.6524,-3.6298,-5.5209,-5.5179,-5.5078,-5.4692,-5.4097,-5.3553,-5.2943,-5.2462,-5.195,-5.1787,-5.1787,-5.1787,-5.1787,-5.1787,-5.1787,-5.1787,-5.1646,-5.1253,-5.0859,-5.0354,-4.9735,-4.8977,-4.8775,-4.8302,-4.8134,-4.8083,-4.8083,-4.8083,-4.8083,-4.8083,-4.8083,-4.8083,-4.8083,-4.8083,-4.7746,-4.6982,-4.6433,-4.6264,-4.5307,-4.4715,-4.4472,-4.4425,-4.4472,-4.4472,-4.4518,-4.4518,-4.4443,-4.4425,-4.4425,-4.4425,-4.4425,-4.4284,-4.4059,-4.4116,-4.4088,-4.3919,-4.3554,-4.3329,-4.3301,-4.2935,-4.2683,-4.2598,-4.2711,-4.2683,-4.2834,-4.3279,-4.3918,-4.4661,-4.53,-4.593,-4.61,-4.5813,-4.5651,-4.5696,-4.5447,-4.52,-4.5227,-4.4864,-4.4371,-4.4022,-4.4089,-4.4108,-4.4027,-4.4033,-4.4128,-4.4043,-4.3956,-4.3988,-4.3928,-4.3589,-4.329,-4.329,-4.329,-4.329,-4.321,-4.277,-4.2299,-4.2256,-4.1836,-4.131,-4.092,-4.0554,-4.0314,-4.0038,-3.9612,-3.9403,-3.9403,-3.9403,-3.9156,-3.8789,-3.8751,-3.8806,-3.7988,-3.7201,-3.7268,-5.5209,-5.5209,-5.5209,-5.4845,-5.4252,-5.371,-5.3184,-5.257,-5.203,-5.1787,-5.1787,-5.1787,-5.1787,-5.1787,-5.1787,-5.1618,-5.1253,-5.0744,-5.0241,-4.982,-4.9262,-4.899,-4.8918,-4.8398,-4.8364,-4.8358,-4.8286,-4.8083,-4.8083,-4.8083,-4.8083,-4.8083,-4.8083,-4.8083,-4.7988,-4.756,-4.7008,-4.6583,-4.6016,-4.5336,-4.4779,-4.4612,-4.4518,-4.4723,-4.4815,-4.4908,-4.5092,-4.4862,-4.4769,-4.4723,-4.4537,-4.4425,-4.4425,-4.4425,-4.4425,-4.434,-4.4116,-4.3947,-4.3947,-4.3666,-4.3582,-4.3554,-4.3497,-4.3526,-4.3709,-4.4174,-4.4847,-4.5654,-4.6282,-4.683,-4.68,-4.6471,-4.6275,-4.599,-4.5595,-4.5562,-4.5692,-4.5518,-4.5419,-4.533,-4.5128,-4.4971,-4.4894,-4.4989,-4.5203,-4.5035,-4.4706,-4.4556,-4.4496,-4.4047,-4.3589,-4.3409,-4.3439,-4.3349,-4.3319,-4.306,-4.271,-4.2698,-4.2617,-4.2158,-4.17,-4.1242,-4.0935,-4.0726,-4.0277,-3.9553,-3.9403,-3.9403,-3.9192,-3.9039,-3.907,-3.9002,-3.8452,-3.8063,-3.8092,-5.5128,-5.5027,-5.5128,-5.4926,-5.4406,-5.3762,-5.3237,-5.273,-5.1943,-5.1674,-5.1759,-5.1646,-5.1646,-5.1759,-5.1731,-5.1534,-5.0972,-5.0435,-4.9844,-4.9606,-4.9154,-4.8985,-4.8924,-4.861,-4.8459,-4.871,-4.8308,-4.8134,-4.8083,-4.8083,-4.8083,-4.8083,-4.8083,-4.8185,-4.8217,-4.7978,-4.7681,-4.7405,-4.6871,-4.6195,-4.5331,-4.4975,-4.4947,-4.523,-4.5247,-4.5429,-4.5611,-4.5247,-4.5064,-4.4954,-4.4676,-4.4425,-4.4425,-4.4518,-4.449,-4.4472,-4.449,-4.4537,-4.4509,-4.4527,-4.4386,-4.42,-4.434,-4.4369,-4.4527,-4.4847,-4.5615,-4.6535,-4.7019,-4.7249,-4.7189,-4.7249,-4.6872,-4.6432,-4.6092,-4.5972,-4.6016,-4.6048,-4.6241,-4.6121,-4.5985,-4.5891,-4.5848,-4.5938,-4.6172,-4.5963,-4.5633,-4.5304,-4.5155,-4.4526,-4.4077,-4.3738,-4.3589,-4.3469,-4.3409,-4.329,-4.303,-4.289,-4.2869,-4.259,-4.2201,-4.1782,-4.1564,-4.1384,-4.0427,-3.9792,-3.9649,-3.9469,-3.9331,-3.9281,-3.935,-3.9203,-3.8841,-3.8692,-3.8706,-5.4926,-5.4458,-5.4976,-5.5179,-5.4875,-5.3919,-5.3448,-5.3179,-5.1711,-5.1363,-5.1759,-5.1309,-5.1365,-5.1674,-5.1731,-5.1702,-5.1309,-5.0516,-5.0077,-4.9972,-4.9386,-4.928,-4.9482,-4.9058,-4.8995,-4.913,-4.8601,-4.8134,-4.8139,-4.8139,-4.8111,-4.8139,-4.8162,-4.8286,-4.8503,-4.8395,-4.8181,-4.8153,-4.7022,-4.6003,-4.5545,-4.6005,-4.6073,-4.5904,-4.5747,-4.5792,-4.5882,-4.552,-4.523,-4.5195,-4.4705,-4.4425,-4.4472,-4.4815,-4.4723,-4.4676,-4.4723,-4.5,-4.4954,-4.4862,-4.4723,-4.4443,-4.4425,-4.4425,-4.4723,-4.5293,-4.6106,-4.7092,-4.7309,-4.7309,-4.7309,-4.7309,-4.7222,-4.6931,-4.6535,-4.6447,-4.6447,-4.6314,-4.6535,-4.677,-4.6552,-4.6758,-4.6877,-4.6967,-4.707,-4.683,-4.6561,-4.6172,-4.5723,-4.5065,-4.4616,-4.4317,-4.4097,-4.4018,-4.3718,-4.3559,-4.3319,-4.315,-4.306,-4.303,-4.2731,-4.2372,-4.2351,-4.1893,-4.0965,-4.0427,-4.0457,-4.0217,-3.9642,-3.9516,-3.9645,-3.9563,-3.9331,-3.9341,-3.9484,-5.4518,-5.4355,-5.459,-5.4692,-5.4509,-5.35,-5.2996,-5.2779,-5.1884,-5.1534,-5.1731,-5.1534,-5.1562,-5.1702,-5.1478,-5.1253,-5.1107,-5.036,-4.9996,-5.0189,-4.9774,-4.9823,-5.0408,-5.0171,-4.9923,-4.986,-4.9658,-4.9257,-4.8878,-4.8331,-4.8195,-4.8504,-4.8302,-4.8156,-4.871,-4.8821,-4.8817,-4.8518,-4.7916,-4.7387,-4.7131,-4.6935,-4.6787,-4.6796,-4.6445,-4.6432,-4.6373,-4.5882,-4.5751,-4.5775,-4.5303,-4.5213,-4.5533,-4.5717,-4.5499,-4.5809,-4.5556,-4.5276,-4.4815,-4.4769,-4.463,-4.4518,-4.4472,-4.463,-4.5138,-4.5821,-4.6491,-4.7193,-4.7309,-4.7309,-4.7309,-4.7309,-4.7135,-4.6961,-4.6829,-4.6712,-4.6653,-4.6653,-4.6668,-4.6887,-4.7106,-4.7222,-4.7309,-4.7279,-4.7219,-4.707,-4.677,-4.6339,-4.5992,-4.5484,-4.5155,-4.4915,-4.4766,-4.4646,-4.4287,-4.3988,-4.3648,-4.3439,-4.323,-4.32,-4.317,-4.303,-4.2851,-4.2671,-4.2043,-4.1654,-4.1414,-4.0636,-3.9828,-3.9828,-3.9978,-3.9978,-4.0008,-4.0449,-4.0636,-5.3772,-5.3832,-5.4156,-5.4304,-5.42,-5.3102,-5.2623,-5.2516,-5.1833,-5.1618,-5.1759,-5.1759,-5.1759,-5.1702,-5.1365,-5.1225,-5.111,-5.0393,-5.0166,-5.0126,-5.0171,-5.0593,-5.1081,-5.1141,-5.0933,-5.1108,-5.0875,-5.0497,-4.9791,-4.924,-4.9048,-4.9005,-4.859,-4.8516,-4.876,-4.9288,-4.9591,-4.8997,-4.9186,-4.8933,-4.846,-4.8009,-4.7845,-4.7613,-4.7333,-4.7022,-4.6991,-4.6519,-4.6372,-4.6195,-4.5863,-4.5884,-4.6548,-4.6569,-4.6587,-4.6819,-4.6695,-4.6367,-4.5688,-4.5267,-4.4808,-4.4686,-4.5042,-4.5602,-4.6434,-4.6829,-4.7052,-4.7581,-4.7369,-4.7339,-4.7309,-4.7309,-4.7179,-4.7005,-4.6873,-4.6829,-4.6785,-4.6918,-4.6933,-4.7092,-4.7222,-4.7266,-4.7309,-4.7309,-4.7279,-4.7249,-4.698,-4.6578,-4.6322,-4.5992,-4.5813,-4.5633,-4.5514,-4.5304,-4.4825,-4.4466,-4.4097,-4.3868,-4.3688,-4.3409,-4.3349,-4.329,-4.314,-4.3,-4.2791,-4.241,-4.1901,-4.0876,-4.0038,-4.0367,-4.0636,-4.0636,-4.0816,-4.1294,-4.1632,-5.2505,-5.2603,-5.3802,-5.4193,-5.4171,-5.3102,-5.257,-5.232,-5.1355,-5.1253,-5.1674,-5.1787,-5.1787,-5.1759,-5.1702,-5.1672,-5.1701,-5.0938,-5.1024,-5.1012,-5.0896,-5.1224,-5.1636,-5.1727,-5.1641,-5.1953,-5.1845,-5.1592,-5.1172,-5.0335,-4.9795,-4.9103,-4.8994,-4.9215,-4.9473,-4.9834,-5.0033,-4.9823,-5.0199,-4.9902,-4.9419,-4.9156,-4.9282,-4.8432,-4.8148,-4.7747,-4.6786,-4.6764,-4.6836,-4.6638,-4.6481,-4.6757,-4.7472,-4.755,-4.7741,-4.7782,-4.7896,-4.752,-4.7033,-4.6137,-4.5545,-4.5539,-4.6022,-4.6882,-4.7678,-4.7655,-4.7807,-4.797,-4.7611,-4.7429,-4.7369,-4.7309,-4.7222,-4.7328,-4.7286,-4.7346,-4.7376,-4.739,-4.7404,-4.7326,-4.7459,-4.7728,-4.7668,-4.7802,-4.7399,-4.7339,-4.7279,-4.692,-4.701,-4.677,-4.6591,-4.6441,-4.6292,-4.5963,-4.5424,-4.5065,-4.4885,-4.4586,-4.4317,-4.3898,-4.3499,-4.3439,-4.3529,-4.317,-4.294,-4.2611,-4.2381,-4.1743,-4.1324,-4.1294,-4.1324,-4.1384,-4.1504,-4.1833,-4.2171,-5.2743,-5.3436,-5.2893,-5.2822,-5.3098,-5.1999,-5.1547,-5.1434,-5.0685,-5.0716,-5.1253,-5.159,-5.1787,-5.1759,-5.1841,-5.2004,-5.2187,-5.2029,-5.1889,-5.1912,-5.1816,-5.1876,-5.2181,-5.2334,-5.2496,-5.2466,-5.2432,-5.2179,-5.1497,-5.1067,-5.0585,-4.9975,-4.9614,-4.9511,-4.9844,-5.0231,-5.0437,-5.0632,-5.0909,-5.07,-5.0521,-4.9998,-4.9956,-4.9538,-4.8985,-4.8761,-4.8328,-4.7995,-4.7997,-4.7951,-4.7746,-4.817,-4.8661,-4.8781,-4.8757,-4.8764,-4.882,-4.8429,-4.7928,-4.709,-4.6355,-4.6488,-4.7153,-4.8093,-4.8676,-4.8534,-4.8149,-4.7985,-4.7909,-4.7848,-4.7399,-4.7339,-4.7399,-4.7625,-4.7834,-4.788,-4.8073,-4.8177,-4.8133,-4.8177,-4.8431,-4.87,-4.852,-4.8311,-4.7862,-4.7429,-4.7369,-4.7309,-4.7309,-4.7309,-4.707,-4.695,-4.68,-4.6591,-4.6052,-4.5843,-4.5693,-4.5406,-4.5046,-4.4597,-4.4137,-4.3947,-4.3958,-4.3539,-4.32,-4.309,-4.294,-4.2761,-4.2462,-4.2141,-4.2111,-4.2192,-4.2312,-4.2432,-4.2581,-5.2456,-5.3117,-5.1862,-5.1788,-5.2301,-5.1141,-5.066,-5.0575,-5.021,-5.0238,-5.0716,-5.1225,-5.1506,-5.1534,-5.1785,-5.195,-5.2181,-5.2133,-5.2122,-5.1983,-5.1854,-5.2001,-5.2306,-5.2557,-5.2651,-5.2714,-5.2881,-5.2682,-5.1806,-5.1326,-5.1004,-5.071,-5.0369,-5.0164,-5.0086,-5.0423,-5.0882,-5.1135,-5.1229,-5.1229,-5.1033,-5.0764,-5.0315,-5.0166,-4.9733,-4.9238,-4.8937,-4.8706,-4.8799,-4.8893,-4.9022,-4.9427,-4.987,-5.0075,-4.9842,-4.9766,-4.9567,-4.9103,-4.8664,-4.7875,-4.7524,-4.8018,-4.8466,-4.9081,-4.9321,-4.9491,-4.9103,-4.8565,-4.8537,-4.8386,-4.7864,-4.8073,-4.8177,-4.8506,-4.8402,-4.8492,-4.8984,-4.9179,-4.9134,-4.909,-4.9239,-4.9149,-4.894,-4.861,-4.8071,-4.7578,-4.7339,-4.7309,-4.7309,-4.7309,-4.7279,-4.7189,-4.7189,-4.695,-4.6711,-4.6561,-4.6424,-4.6311,-4.592,-4.5417,-4.5057,-4.4807,-4.4556,-4.4347,-4.4077,-4.3708,-4.3439,-4.3269,-4.3,-4.271,-4.274,-4.2731,-4.2821,-4.291,-4.294,-5.1272,-5.1208,-5.0867,-5.1403,-5.2207,-5.0739,-5.0041,-5.0013,-4.9957,-4.9985,-5.0125,-5.0716,-5.0972,-5.1112,-5.1534,-5.1976,-5.2156,-5.1984,-5.1889,-5.203,-5.1981,-5.19,-5.2037,-5.2318,-5.2557,-5.3054,-5.3047,-5.2681,-5.2114,-5.181,-5.156,-5.1262,-5.0959,-5.0805,-5.0548,-5.0947,-5.1182,-5.1229,-5.1229,-5.1229,-5.1199,-5.1063,-5.0734,-5.0435,-5.0255,-4.9865,-4.9456,-4.9495,-4.9575,-4.9398,-4.9685,-5.0063,-5.0467,-5.0496,-5.0567,-5.0879,-5.0956,-5.0926,-5.0879,-4.9347,-4.911,-4.9532,-4.9773,-5.0176,-5.0687,-5.0584,-5.006,-4.9488,-4.9447,-4.9253,-4.9164,-4.9134,-4.9105,-4.9164,-4.906,-4.9209,-4.9659,-5.0125,-5.0034,-4.9958,-4.9629,-4.9329,-4.912,-4.882,-4.8237,-4.7788,-4.7429,-4.7309,-4.7339,-4.7309,-4.7309,-4.7309,-4.7309,-4.7219,-4.704,-4.716,-4.7113,-4.7001,-4.6713,-4.6179,-4.5777,-4.5465,-4.5244,-4.5125,-4.4766,-4.4317,-4.4018,-4.3738,-4.3629,-4.3509,-4.321,-4.317,-4.326,-4.3379,-4.3469,-5.1468,-5.181,-5.0932,-5.0856,-5.1157,-4.9893,-4.9342,-4.9342,-4.9342,-4.9342,-4.9595,-5.0382,-5.0941,-5.1056,-5.1501,-5.2082,-5.2746,-5.2929,-5.2901,-5.3138,-5.258,-5.2378,-5.2306,-5.2187,-5.2276,-5.2456,-5.2516,-5.2456,-5.2169,-5.1905,-5.1528,-5.1259,-5.1323,-5.1135,-5.1041,-5.1182,-5.1229,-5.1229,-5.1229,-5.1229,-5.1229,-5.1199,-5.1109,-5.0794,-5.0794,-5.0521,-5.0143,-5.0394,-5.0283,-5.0171,-5.0478,-5.068,-5.0899,-5.0899,-5.0994,-5.1182,-5.1229,-5.1229,-5.1152,-5.0475,-5.0236,-5.0388,-5.0584,-5.0883,-5.1139,-5.105,-5.0657,-5.0342,-5.009,-4.9747,-4.9404,-4.9314,-4.9314,-4.9687,-4.9761,-4.9954,-5.0345,-5.0737,-5.0857,-5.078,-5.0571,-5.0423,-5.0229,-4.9629,-4.8985,-4.8461,-4.8161,-4.7638,-4.7549,-4.7399,-4.7309,-4.7309,-4.7309,-4.7309,-4.7309,-4.7309,-4.7309,-4.7186,-4.7006,-4.6783,-4.6411,-4.6124,-4.5783,-4.5574,-4.5214,-4.4855,-4.4496,-4.4246,-4.4426,-4.4336,-4.4007,-4.3977,-4.4287,-4.4317,-4.4257,-5.161,-5.2081,-5.0983,-5.0417,-5.0229,-4.9358,-4.8878,-4.8724,-4.8724,-4.8826,-4.9229,-4.9949,-5.0396,-5.0671,-5.1229,-5.1676,-5.2544,-5.2697,-5.307,-5.3436,-5.2797,-5.2318,-5.2157,-5.1977,-5.1828,-5.1858,-5.1858,-5.1828,-5.1815,-5.169,-5.1679,-5.1695,-5.1572,-5.1463,-5.1323,-5.1182,-5.1229,-5.1229,-5.1229,-5.1229,-5.1229,-5.1229,-5.1229,-5.1169,-5.1169,-5.1122,-5.1199,-5.1229,-5.1229,-5.1229,-5.1229,-5.1229,-5.1229,-5.1229,-5.1229,-5.1229,-5.1229,-5.1229,-5.1152,-5.1122,-5.0823,-5.0674,-5.105,-5.1199,-5.1229,-5.1169,-5.0943,-5.0704,-5.0524,-5.0361,-5.0002,-4.9883,-5.0002,-5.0329,-5.0418,-5.0657,-5.0747,-5.1109,-5.1216,-5.1169,-5.1169,-5.1219,-5.1116,-5.0543,-4.9853,-4.9359,-4.8895,-4.8401,-4.7908,-4.7758,-4.7638,-4.7638,-4.7489,-4.7429,-4.7399,-4.7309,-4.7309,-4.7309,-4.7249,-4.716,-4.701,-4.6681,-4.6352,-4.6052,-4.5783,-4.5484,-4.4945,-4.4755,-4.4964,-4.4964,-4.4725,-4.4885,-4.5244,-4.5125,-4.4915,-5.1618,-5.2033,-5.0994,-5.0231,-4.9698,-4.9215,-4.8666,-4.8162,-4.8111,-4.8538,-4.9215,-4.9098,-4.9568,-5.0204,-5.0566,-5.0961,-5.1299,-5.1587,-5.2161,-5.2339,-5.2133,-5.2019,-5.1887,-5.1648,-5.1468,-5.1319,-5.1319,-5.1439,-5.1306,-5.1834,-5.2124,-5.2215,-5.2124,-5.1757,-5.1386,-5.1229,-5.1229,-5.1229,-5.1229,-5.1229,-5.1229,-5.1229,-5.1229,-5.1229,-5.1229,-5.1229,-5.1229,-5.1229,-5.1229,-5.1229,-5.1229,-5.1229,-5.1229,-5.1229,-5.1229,-5.1229,-5.1229,-5.1229,-5.1229,-5.1229,-5.1199,-5.1003,-5.1139,-5.1229,-5.1229,-5.1229,-5.1109,-5.1079,-5.099,-5.1079,-5.105,-5.099,-5.096,-5.1033,-5.1033,-5.1092,-5.1092,-5.1199,-5.1199,-5.1229,-5.1229,-5.1186,-5.1126,-5.075,-5.0451,-5.0242,-4.9838,-4.9659,-4.9134,-4.8446,-4.8356,-4.8267,-4.8027,-4.7608,-4.7578,-4.7788,-4.7638,-4.7758,-4.7578,-4.7489,-4.7339,-4.7189,-4.692,-4.6651,-4.6471,-4.613,-4.5813,-4.5633,-4.5633,-4.5574,-4.5633,-4.5693,-4.6022,-4.5663,-4.5424,-5.1293,-5.1479,-5.1135,-5.071,-5.0231,-4.9669,-4.8959,-4.8156,-4.8083,-4.8258,-4.8487,-4.8883,-4.941,-4.9931,-5.048,-5.1142,-5.1649,-5.212,-5.2497,-5.2464,-5.2121,-5.2079,-5.1887,-5.1588,-5.1289,-5.1229,-5.1229,-5.1229,-5.1369,-5.1941,-5.2306,-5.2306,-5.2306,-5.1849,-5.1433,-5.1229,-5.1229,-5.1229,-5.1276,-5.1323,-5.1323,-5.1323,-5.1323,-5.1323,-5.1229,-5.1229,-5.1229,-5.1229,-5.1229,-5.1229,-5.1229,-5.1229,-5.1229,-5.1229,-5.1229,-5.1229,-5.1229,-5.1229,-5.1229,-5.1229,-5.1229,-5.1229,-5.1229,-5.1229,-5.1229,-5.1259,-5.1259,-5.1229,-5.1319,-5.1379,-5.1319,-5.1319,-5.1259,-5.1229,-5.1229,-5.1229,-5.1229,-5.1229,-5.1229,-5.1229,-5.1229,-5.1199,-5.1139,-5.1109,-5.087,-5.0794,-5.075,-5.0571,-5.0182,-4.9464,-4.9075,-4.8955,-4.873,-4.8297,-4.8506,-4.8716,-4.8416,-4.8177,-4.7997,-4.7758,-4.7519,-4.7399,-4.7339,-4.7189,-4.698,-4.692,-4.683,-4.6651,-4.6441,-4.6681,-4.677,-4.6741,-4.6651,-4.6292,-4.6142,-5.1339,-5.1572,-5.1293,-5.0947,-5.0453,-4.9941,-4.9277,-4.881,-4.876,-4.8831,-4.9186,-4.9281,-4.9603,-5.02,-5.0548,-5.0921,-5.1493,-5.1994,-5.2435,-5.2461,-5.2366,-5.2247,-5.1947,-5.1558,-5.1289,-5.1229,-5.1229,-5.1229,-5.1416,-5.1895,-5.2306,-5.2306,-5.2306,-5.1849,-5.1416,-5.1229,-5.1229,-5.1293,-5.1433,-5.1572,-5.1572,-5.1572,-5.1618,-5.1479,-5.1386,-5.1229,-5.1229,-5.1229,-5.1229,-5.1229,-5.1229,-5.1416,-5.1526,-5.1665,-5.1386,-5.1339,-5.1229,-5.1229,-5.1229,-5.1229,-5.1229,-5.1229,-5.1259,-5.1409,-5.1439,-5.1439,-5.1319,-5.1229,-5.1439,-5.1558,-5.1468,-5.1409,-5.1319,-5.1259,-5.1229,-5.1229,-5.1229,-5.1229,-5.1229,-5.1229,-5.1229,-5.1229,-5.1229,-5.1229,-5.1199,-5.1109,-5.1079,-5.102,-5.0661,-5.0122,-4.9793,-4.9643,-4.9344,-4.909,-4.9359,-4.9479,-4.9075,-4.8686,-4.8297,-4.8057,-4.7758,-4.7698,-4.7788,-4.7668,-4.7459,-4.7369,-4.7279,-4.7369,-4.7309,-4.7399,-4.7309,-4.7189,-4.704,-4.692,-4.689,-5.1572,-5.2124,-5.1479,-5.0947,-5.0519,-5.0086,-4.9863,-4.9844,-4.9815,-5.0105,-5.0394,-4.996,-5.0048,-5.0474,-5.0592,-5.0592,-5.1154,-5.1661,-5.1983,-5.2127,-5.2037,-5.1977,-5.1798,-5.1528,-5.1259,-5.1229,-5.1229,-5.1323,-5.1526,-5.1941,-5.2306,-5.2306,-5.2306,-5.1941,-5.1323,-5.1229,-5.1229,-5.1276,-5.1711,-5.2079,-5.1987,-5.2124,-5.2215,-5.1987,-5.1572,-5.1229,-5.1229,-5.1229,-5.1199,-5.1276,-5.1416,-5.1711,-5.2139,-5.217,-5.1803,-5.1493,-5.1319,-5.1229,-5.1229,-5.1229,-5.1319,-5.1319,-5.1319,-5.1738,-5.1917,-5.172,-5.1571,-5.1481,-5.1613,-5.1464,-5.1314,-5.1391,-5.1409,-5.1289,-5.1229,-5.1229,-5.1229,-5.1229,-5.1229,-5.1229,-5.1229,-5.1229,-5.1229,-5.1229,-5.1229,-5.1229,-5.1229,-5.1229,-5.105,-5.0631,-5.0405,-5.0226,-5.0122,-4.9883,-4.9853,-4.9883,-4.9643,-4.9254,-4.8865,-4.8566,-4.8416,-4.8356,-4.8297,-4.8117,-4.7908,-4.7728,-4.7638,-4.7608,-4.7489,-4.7369,-4.7339,-4.7369,-4.7339,-4.7369,-4.7249,-5.1293,-5.1433,-5.1276,-5.1135,-5.1041,-5.087,-5.0822,-5.0822,-5.0822,-5.0537,-5.0057,-4.9863,-5.0057,-5.0662,-5.071,-5.0757,-5.113,-5.1416,-5.1421,-5.1558,-5.1558,-5.1678,-5.1498,-5.1349,-5.1229,-5.1229,-5.1276,-5.1433,-5.1757,-5.2124,-5.2261,-5.2261,-5.2215,-5.1803,-5.1276,-5.1229,-5.1229,-5.1276,-5.1711,-5.1941,-5.1757,-5.1526,-5.1433,-5.1479,-5.1229,-5.1229,-5.1229,-5.1229,-5.1572,-5.1895,-5.1987,-5.2414,-5.2963,-5.2581,-5.2229,-5.191,-5.1528,-5.1349,-5.1229,-5.1259,-5.1409,-5.1768,-5.1977,-5.2396,-5.2516,-5.2199,-5.1972,-5.1864,-5.1745,-5.1536,-5.1404,-5.1511,-5.1498,-5.1379,-5.1259,-5.1259,-5.1259,-5.1229,-5.1229,-5.1229,-5.1229,-5.1229,-5.1229,-5.1229,-5.1229,-5.1229,-5.1229,-5.1229,-5.1229,-5.099,-5.093,-5.084,-5.093,-5.078,-5.0601,-5.0451,-5.0242,-5.0032,-4.9733,-4.9404,-4.9149,-4.882,-4.8566,-4.8506,-4.8356,-4.8087,-4.7788,-4.7578,-4.7459,-4.7459,-4.7549,-4.7668,-4.7818,-4.7848,-4.7549,-5.0361,-5.0391,-5.0614,-5.078,-5.084,-5.1079,-5.1229,-5.1229,-5.1229,-5.1105,-5.0887,-5.0917,-5.1011,-5.1246,-5.1293,-5.1041,-5.1336,-5.1588,-5.1498,-5.1379,-5.1409,-5.1468,-5.1379,-5.1229,-5.1229,-5.1229,-5.1229,-5.1463,-5.1803,-5.1803,-5.1757,-5.1849,-5.1803,-5.1665,-5.1229,-5.1229,-5.1229,-5.1229,-5.1665,-5.1711,-5.1526,-5.1618,-5.1665,-5.1665,-5.1463,-5.1323,-5.1229,-5.1276,-5.1618,-5.2337,-5.2778,-5.2963,-5.3362,-5.3284,-5.2805,-5.2304,-5.1858,-5.1528,-5.1349,-5.1379,-5.1618,-5.2067,-5.2247,-5.2486,-5.3443,-5.3185,-5.2916,-5.2856,-5.3047,-5.2897,-5.2378,-5.2306,-5.1887,-5.1618,-5.1648,-5.1678,-5.1439,-5.1229,-5.1229,-5.1229,-5.1229,-5.1229,-5.1229,-5.1229,-5.1229,-5.1229,-5.1229,-5.1276,-5.1276,-5.1229,-5.1229,-5.1229,-5.1229,-5.1229,-5.102,-5.093,-5.09,-5.0674,-5.0405,-5.0092,-4.9673,-4.9134,-4.8805,-4.8925,-4.8775,-4.8237,-4.7967,-4.7802,-4.7788,-4.7878,-4.8011,-4.8101,-4.8281,-4.8491,-4.8371,-4.9419,-4.9464,-5.0032,-5.0285,-5.0405,-5.096,-5.1246,-5.1369,-5.1276,-5.1665,-5.223,-5.2185,-5.2306,-5.2306,-5.2261,-5.1757,-5.1476,-5.1558,-5.1498,-5.1468,-5.1708,-5.1528,-5.1319,-5.1229,-5.1229,-5.1229,-5.1229,-5.1229,-5.1369,-5.1369,-5.1369,-5.1229,-5.1229,-5.1229,-5.1229,-5.1229,-5.1229,-5.1229,-5.1433,-5.1618,-5.1895,-5.2261,-5.2307,-5.2078,-5.1771,-5.14,-5.1336,-5.1353,-5.1649,-5.2658,-5.3619,-5.4097,-5.4006,-5.402,-5.3408,-5.2906,-5.2348,-5.2019,-5.172,-5.1738,-5.2067,-5.2336,-5.2366,-5.2935,-5.3982,-5.4162,-5.3862,-5.3862,-5.4102,-5.3704,-5.3185,-5.2845,-5.2366,-5.2097,-5.2157,-5.2067,-5.1708,-5.1409,-5.1379,-5.1349,-5.1289,-5.1289,-5.1289,-5.1259,-5.1323,-5.1276,-5.1276,-5.1323,-5.1323,-5.1229,-5.1229,-5.1229,-5.1229,-5.1229,-5.1229,-5.1199,-5.1169,-5.105,-5.0704,-5.0495,-5.0196,-4.9763,-4.9494,-4.9553,-4.9284,-4.8566,-4.8251,-4.8115,-4.8205,-4.8311,-4.8492,-4.8671,-4.906,-4.9239,-4.9374,-4.9583,-5.0016,-5.0136,-5.0465,-5.096,-5.1139,-5.1526,-5.1941,-5.1433,-5.1865,-5.2681,-5.2502,-5.2306,-5.2306,-5.2306,-5.1895,-5.1353,-5.1468,-5.1409,-5.1319,-5.1468,-5.1349,-5.1259,-5.1229,-5.1229,-5.1229,-5.1276,-5.1229,-5.1479,-5.1416,-5.1276,-5.1339,-5.1276,-5.1276,-5.1229,-5.1229,-5.1229,-5.1229,-5.1383,-5.1646,-5.1802,-5.2215,-5.2658,-5.2582,-5.2444,-5.2164,-5.1897,-5.1468,-5.2087,-5.3085,-5.4205,-5.4946,-5.5024,-5.4585,-5.4013,-5.3579,-5.2987,-5.2659,-5.2468,-5.2486,-5.2815,-5.3414,-5.3563,-5.3862,-5.4581,-5.488,-5.467,-5.461,-5.4501,-5.3754,-5.3277,-5.3335,-5.3054,-5.3121,-5.3151,-5.2654,-5.2217,-5.2007,-5.1917,-5.1708,-5.1468,-5.1516,-5.161,-5.1643,-5.1816,-5.1786,-5.1695,-5.1695,-5.1803,-5.1572,-5.1323,-5.1229,-5.1229,-5.1229,-5.1229,-5.1229,-5.1199,-5.1139,-5.1079,-5.0853,-5.0614,-5.0375,-5.0242,-5.0062,-4.9494,-4.8716,-4.852,-4.8519,-4.8549,-4.864,-4.8969,-4.9252,-4.9717,-4.9912,-5.0018]},{"header":{"parameterUnit":"m.s-1","parameterCategory":1,"la1":31.0,"la2":29.5877,"lo1":-88.7671,"lo2":-86.6584,"dy":0.0162,"dx":0.0185,"nx":115,"ny":88,"refTime":"2024-05-09T06:00:00:Z","depth":0,"parameterNumber":3,"parameterNumberName":"V-component_of_WINDS"},"data":[0.0,0.0,0.0,0.0,0.0,0.0,0.0,0.0,0.0,0.0,0.0,0.0,0.0,0.0,0.0,0.0,0.0,0.0,0.0,0.0,0.0,0.0,0.0,0.0,0.0,0.0,0.0,0.0,0.0,0.0,0.0,0.0,0.0,0.0,0.0,0.0,0.0,0.0,0.0,0.0,0.0,0.0,0.0,0.0,0.0,0.0,0.0,0.0,0.0,0.0,0.0,0.0,0.0,0.0,0.0,0.0,0.0,0.0,0.0,0.0,0.0,0.0,0.0,0.0,0.0,0.0,0.0,0.0,0.0,0.0,0.0,0.0,0.0,0.0,0.0,0.0,0.0,0.0,0.0,0.0,0.0,0.0,0.0,0.0,0.0,0.0,0.0,0.0,0.0,0.0,0.0,0.0,0.0,0.0,0.0,0.0,0.0,0.0,0.0,0.0,0.0,0.0,0.0,0.0,0.0,0.0,0.0,0.0,0.0,0.0,0.0,0.0,0.0,0.0,0.0,0.0,0.0,0.0,0.0,0.0,0.0,0.0,0.0,0.0,0.0,0.0,0.0,0.0,0.0,0.0,0.0,0.0,0.0,0.0,0.0,0.0,0.0,0.0,0.0,0.0,0.0,0.0,0.0,0.0,0.0,0.0,0.0,0.0,0.0,0.0,0.0,0.0,0.0,0.0,0.0,0.0,0.0,0.0,0.0,0.0,0.0,0.0,0.0,0.0,0.0,0.0,0.0,0.0,0.0,0.0,0.0,0.0,0.0,0.0,0.0,0.0,0.0,0.0,0.0,0.0,0.0,0.0,0.0,0.0,0.0,0.0,0.0,0.0,0.0,0.0,0.0,0.0,0.0,0.0,0.0,0.0,0.0,0.0,0.0,0.0,0.0,0.0,0.0,0.0,0.0,0.0,0.0,0.0,0.0,0.0,0.0,0.0,0.0,0.0,0.0,0.0,0.0,0.0,0.0,0.0,0.0,0.0,0.0,0.0,0.0,0.0,0.0,0.0,0.0,0.0,0.0,0.0,0.0,0.0,0.0,0.0,0.0,0.0,0.0,0.0,0.0,0.0,0.0,0.0,0.0,0.0,0.0,0.0,0.0,0.0,0.0,0.0,0.0,0.0,0.0,0.0,0.0,0.0,0.0,0.0,0.0,0.0,0.0,0.0,0.0,0.0,0.0,0.0,0.0,0.0,0.0,0.0,0.0,0.0,0.0,0.0,0.0,0.0,0.0,0.0,0.0,0.0,0.0,0.0,0.0,0.0,0.0,0.0,0.0,0.0,0.0,0.0,0.0,0.0,0.0,0.0,0.0,0.0,0.0,0.0,0.0,0.0,0.0,0.0,0.0,0.0,0.0,0.0,0.0,0.0,0.0,0.0,0.0,0.0,0.0,0.0,0.0,0.0,0.0,0.0,0.0,0.0,0.0,0.0,0.0,0.0,0.0,0.0,0.0,0.0,0.0,0.0,0.0,0.0,0.0,0.0,0.0,0.0,0.0,0.0,0.0,0.0,0.0,0.0,0.0,0.0,0.0,0.0,0.0,0.0,0.0,0.0,0.0,0.0,0.0,0.0,0.0,0.0,0.0,0.0,0.0,0.0,0.0,0.0,0.0,0.0,0.0,0.0,0.0,0.0,0.0,0.0,0.0,0.0,0.0,0.0,0.0,0.0,0.0,0.0,0.0,0.0,0.0,0.0,0.0,0.0,0.0,0.0,0.0,0.0,0.0,0.0,0.0,0.0,0.0,0.0,0.0,0.0,0.0,0.0,0.0,0.0,0.0,0.0,0.0,0.0,0.0,0.0,0.0,0.0,0.0,0.0,0.0,0.0,0.0,0.0,0.0,0.0,0.0,0.0,0.0,0.0,0.0,0.0,0.0,0.0,0.0,0.0,0.0,0.0,0.0,0.0,0.0,0.0,0.0,0.0,0.0,0.0,0.0,0.0,0.0,0.0,0.0,0.0,0.0,0.0,0.0,0.0,0.0,0.0,0.0,0.0,0.0,0.0,0.0,0.0,0.0,0.0,0.0,0.0,0.0,0.0,0.0,0.0,0.0,0.0,0.0,0.0,0.0,0.0,0.0,0.0,0.0,0.0,0.0,0.0,0.0,0.0,0.0,0.0,0.0,0.0,0.0,0.0,0.0,0.0,0.0,0.0,0.0,0.0,0.0,0.0,0.0,0.0,0.0,0.0,0.0,0.0,0.0,0.0,0.0,0.0,0.0,0.0,0.0,0.0,0.0,0.0,0.0,0.0,0.0,0.0,0.0,0.0,0.0,0.0,0.0,0.0,0.0,0.0,0.0,0.0,0.0,0.0,0.0,0.0,0.0,0.0,0.0,0.0,0.0,0.0,0.0,0.0,0.0,0.0,0.0,0.0,0.0,0.0,0.0,0.0,0.0,0.0,0.0,0.0,0.0,0.0,0.0,0.0,0.0,0.0,0.0,0.0,0.0,0.0,0.0,0.0,0.0,0.0,0.0,0.0,0.0,0.0,0.0,0.0,0.0,0.0,0.0,0.0,0.0,0.0,0.0,0.0,0.0,0.0,0.0,0.0,0.0,0.0,0.0,0.0,0.0,0.0,0.0,0.0,0.0,0.0,0.0,0.0,0.0,0.0,0.0,0.0,0.0,0.0,0.0,0.0,0.0,0.0,0.0,0.0,0.0,0.0,0.0,0.0,0.0,0.0,0.0,0.0,0.0,0.0,0.0,0.0,0.0,0.0,0.0,0.0,0.0,0.0,0.0,0.0,0.0,0.0,0.0,0.0,0.0,0.0,0.0,0.0,0.0,0.0,0.0,0.0,0.0,0.0,0.0,0.0,0.0,0.0,0.0,0.0,0.0,0.0,0.0,0.0,0.0,0.0,0.0,0.0,0.0,0.0,0.0,0.0,0.0,0.0,0.0,0.0,0.0,0.0,0.0,0.0,0.0,0.0,0.0,0.0,0.0,0.0,0.0,0.0,0.0,0.0,0.0,0.0,0.0,0.0,0.0,0.0,0.0,0.0,0.0,0.0,0.0,0.0,0.0,0.0,0.0,0.0,0.0,0.0,0.0,0.0,0.0,0.0,0.0,0.0,0.0,0.0,0.0,0.0,0.0,0.0,0.0,0.0,0.0,0.0,0.0,0.0,0.0,0.0,0.0,0.0,0.0,0.0,0.0,0.0,0.0,0.0,0.0,0.0,0.0,0.0,0.0,0.0,0.0,0.0,0.0,0.0,0.0,0.0,0.0,0.0,0.0,0.0,0.0,0.0,0.0,0.0,0.0,0.0,0.0,0.0,0.0,0.0,0.0,0.0,0.0,0.0,0.0,0.0,0.0,0.0,0.0,0.0,0.0,0.0,0.0,0.0,0.0,0.0,0.0,0.0,0.0,0.0,0.0,0.0,0.0,0.0,0.0,0.0,0.0,0.0,0.0,0.0,0.0,0.0,0.0,0.0,0.0,0.0,0.0,0.0,0.0,0.0,0.0,0.0,0.0,0.0,0.0,0.0,0.0,0.0,0.0,0.0,0.0,0.0,0.0,0.0,0.0,0.0,0.0,0.0,0.0,0.0,0.0,0.0,0.0,0.0,0.0,0.0,0.0,0.0,0.0,0.0,0.0,0.0,0.0,0.0,0.0,0.0,0.0,0.0,0.0,0.0,0.0,0.0,0.0,0.0,0.0,0.0,0.0,0.0,0.0,0.0,0.0,0.0,0.0,0.0,0.0,0.0,0.0,0.0,0.0,0.0,0.0,0.0,0.0,0.0,0.0,0.0,0.0,0.0,0.0,0.0,0.0,0.0,0.0,0.0,0.0,0.0,0.0,0.0,0.0,0.0,0.0,0.0,0.0,0.0,0.0,0.0,0.0,0.0,0.0,0.0,0.0,0.0,0.0,0.0,0.0,0.0,0.0,0.0,0.0,0.0,0.0,0.0,0.0,0.0,0.0,0.0,0.0,0.0,0.0,0.0,0.0,0.0,0.0,0.0,0.0,0.0,0.0,0.0,0.0,0.0,0.0,0.0,0.0,0.0,0.0,0.0,0.0,0.0,0.0,0.0,0.0,0.0,0.0,0.0,0.0,0.0,0.0,0.0,0.0,0.0,0.0,0.0,0.0,0.0,0.0,0.0,0.0,0.0,0.0,0.0,0.0,0.0,0.0,0.0,0.0,0.0,0.0,0.0,0.0,0.0,0.0,0.0,0.0,0.0,0.0,0.0,0.0,0.0,0.0,0.0,0.0,0.0,0.0,0.0,0.0,0.0,0.0,0.0,0.0,0.0,0.0,0.0,-1.6007,0.0,0.0,0.0,0.0,0.0,0.0,0.0,0.0,0.0,0.0,0.0,0.0,0.0,0.0,0.0,0.0,0.0,0.0,0.0,0.0,0.0,0.0,0.0,0.0,0.0,0.0,0.0,0.0,0.0,0.0,0.0,0.0,0.0,0.0,0.0,0.0,0.0,0.0,0.0,0.0,0.0,0.0,0.0,0.0,0.0,0.0,0.0,0.0,0.0,0.0,0.0,0.0,0.0,0.0,0.0,0.0,0.0,0.0,0.0,0.0,0.0,0.0,0.0,0.0,0.0,0.0,0.0,0.0,0.0,0.0,0.0,0.0,0.0,0.0,0.0,0.0,0.0,0.0,0.0,0.0,0.0,0.0,0.0,0.0,0.0,0.0,0.0,0.0,0.0,0.0,0.0,0.0,0.0,0.0,0.0,0.0,0.0,0.0,0.0,0.0,0.0,0.0,0.0,0.0,0.0,0.0,0.0,0.0,0.0,0.0,-1.6133,-1.6941,-1.5723,-1.5332,-1.6085,0.0,0.0,0.0,0.0,0.0,0.0,0.0,0.0,0.0,0.0,0.0,0.0,0.0,0.0,0.0,0.0,0.0,0.0,0.0,0.0,0.0,0.0,0.0,0.0,0.0,0.0,0.0,0.0,0.0,0.0,0.0,0.0,0.0,0.0,0.0,0.0,0.0,0.0,0.0,0.0,0.0,0.0,0.0,0.0,0.0,0.0,0.0,0.0,0.0,0.0,0.0,0.0,0.0,0.0,0.0,0.0,0.0,0.0,0.0,0.0,0.0,0.0,0.0,0.0,0.0,0.0,0.0,0.0,0.0,0.0,0.0,0.0,0.0,0.0,0.0,0.0,0.0,0.0,0.0,0.0,0.0,0.0,0.0,0.0,0.0,0.0,0.0,0.0,0.0,0.0,0.0,0.0,0.0,0.0,0.0,0.0,0.0,0.0,0.0,0.0,0.0,0.0,0.0,0.0,0.0,0.0,0.0,0.0,0.0,0.0,0.0,0.0,-1.5693,-1.5527,-1.6613,0.0,0.0,0.0,0.0,0.0,0.0,0.0,0.0,0.0,0.0,0.0,0.0,0.0,0.0,0.0,0.0,0.0,0.0,0.0,0.0,0.0,0.0,0.0,0.0,0.0,0.0,0.0,0.0,0.0,0.0,0.0,0.0,0.0,0.0,0.0,0.0,0.0,0.0,0.0,0.0,0.0,0.0,0.0,0.0,0.0,0.0,0.0,0.0,0.0,0.0,0.0,0.0,0.0,0.0,0.0,0.0,0.0,0.0,0.0,0.0,0.0,0.0,0.0,0.0,0.0,0.0,0.0,0.0,0.0,0.0,0.0,0.0,0.0,0.0,0.0,0.0,0.0,0.0,0.0,0.0,0.0,0.0,0.0,0.0,0.0,0.0,0.0,0.0,0.0,0.0,0.0,0.0,0.0,0.0,0.0,0.0,0.0,0.0,0.0,0.0,0.0,0.0,0.0,0.0,0.0,0.0,0.0,0.0,0.0,0.0,-1.6633,-1.7832,-1.7715,0.0,-1.837,0.0,0.0,0.0,0.0,0.0,0.0,0.0,0.0,0.0,0.0,0.0,0.0,0.0,0.0,0.0,0.0,0.0,0.0,0.0,0.0,0.0,0.0,0.0,0.0,0.0,0.0,0.0,0.0,0.0,0.0,0.0,0.0,0.0,0.0,0.0,0.0,0.0,0.0,0.0,0.0,0.0,0.0,0.0,0.0,0.0,0.0,0.0,0.0,0.0,0.0,0.0,0.0,0.0,0.0,0.0,0.0,0.0,0.0,0.0,0.0,0.0,0.0,0.0,0.0,0.0,0.0,0.0,0.0,0.0,0.0,0.0,0.0,0.0,0.0,0.0,0.0,0.0,0.0,0.0,0.0,0.0,0.0,0.0,0.0,0.0,0.0,0.0,0.0,0.0,0.0,0.0,0.0,0.0,0.0,0.0,0.0,0.0,0.0,0.0,0.0,0.0,0.0,0.0,0.0,0.0,0.0,0.0,0.0,0.0,0.0,-1.6594,-1.7617,-1.7637,-1.7658,0.0,0.0,0.0,0.0,0.0,0.0,0.0,0.0,0.0,0.0,0.0,0.0,0.0,0.0,0.0,0.0,0.0,0.0,0.0,0.0,0.0,0.0,0.0,0.0,0.0,0.0,0.0,0.0,0.0,0.0,0.0,0.0,0.0,0.0,0.0,0.0,0.0,0.0,0.0,0.0,0.0,0.0,0.0,0.0,0.0,0.0,0.0,0.0,0.0,0.0,0.0,0.0,0.0,0.0,0.0,0.0,0.0,0.0,0.0,0.0,0.0,0.0,0.0,0.0,0.0,0.0,0.0,0.0,0.0,0.0,0.0,0.0,0.0,0.0,0.0,0.0,0.0,0.0,0.0,0.0,0.0,0.0,0.0,0.0,0.0,0.0,0.0,0.0,0.0,0.0,0.0,0.0,0.0,0.0,0.0,0.0,0.0,0.0,0.0,0.0,0.0,0.0,0.0,0.0,0.0,0.0,0.0,0.0,0.0,0.0,-1.6476,-1.6926,-1.7812,-1.7441,-1.7241,-1.7256,0.0,0.0,0.0,0.0,0.0,0.0,0.0,0.0,0.0,0.0,0.0,0.0,0.0,0.0,0.0,0.0,0.0,0.0,0.0,0.0,0.0,0.0,0.0,0.0,0.0,0.0,0.0,0.0,0.0,0.0,0.0,0.0,0.0,0.0,0.0,0.0,0.0,0.0,0.0,0.0,0.0,0.0,0.0,0.0,0.0,0.0,0.0,0.0,0.0,0.0,0.0,0.0,0.0,0.0,0.0,0.0,0.0,0.0,0.0,0.0,0.0,0.0,0.0,0.0,0.0,0.0,0.0,0.0,0.0,0.0,0.0,0.0,0.0,0.0,0.0,0.0,0.0,0.0,0.0,0.0,0.0,0.0,0.0,0.0,0.0,0.0,0.0,0.0,0.0,0.0,0.0,0.0,0.0,0.0,0.0,0.0,0.0,0.0,0.0,0.0,0.0,0.0,0.0,0.0,0.0,0.0,0.0,0.0,-1.8922,-1.7944,-1.793,-1.9082,-1.7584,-1.6966,0.0,0.0,0.0,0.0,0.0,0.0,0.0,0.0,0.0,0.0,0.0,0.0,0.0,0.0,0.0,0.0,0.0,0.0,0.0,0.0,0.0,0.0,0.0,0.0,0.0,0.0,0.0,0.0,0.0,0.0,0.0,0.0,0.0,0.0,0.0,0.0,0.0,0.0,0.0,0.0,0.0,0.0,0.0,0.0,0.0,0.0,0.0,0.0,0.0,0.0,0.0,0.0,0.0,0.0,0.0,0.0,0.0,0.0,0.0,0.0,0.0,0.0,0.0,0.0,0.0,0.0,0.0,0.0,0.0,0.0,0.0,0.0,0.0,0.0,0.0,0.0,0.0,0.0,0.0,0.0,0.0,0.0,0.0,0.0,0.0,0.0,0.0,0.0,0.0,0.0,0.0,0.0,0.0,0.0,0.0,0.0,0.0,0.0,0.0,0.0,0.0,0.0,0.0,0.0,0.0,0.0,0.0,0.0,0.0,-1.6809,-1.72,-1.7852,-1.8754,-1.7754,-1.7573,0.0,0.0,0.0,0.0,0.0,0.0,0.0,0.0,0.0,0.0,0.0,0.0,0.0,0.0,0.0,0.0,0.0,0.0,0.0,0.0,0.0,0.0,0.0,0.0,0.0,0.0,0.0,0.0,0.0,0.0,0.0,0.0,0.0,0.0,0.0,0.0,0.0,0.0,0.0,0.0,0.0,0.0,0.0,0.0,0.0,0.0,0.0,0.0,0.0,0.0,0.0,0.0,0.0,0.0,0.0,0.0,0.0,0.0,0.0,0.0,0.0,0.0,0.0,0.0,0.0,0.0,0.0,0.0,0.0,0.0,0.0,0.0,0.0,0.0,0.0,0.0,0.0,0.0,0.0,0.0,0.0,0.0,0.0,0.0,0.0,0.0,0.0,0.0,0.0,0.0,0.0,0.0,0.0,0.0,0.0,0.0,0.0,0.0,0.0,0.0,0.0,0.0,0.0,0.0,0.0,0.0,0.0,0.0,0.0,-1.6476,0.0,-1.8203,-1.8539,-1.7812,-1.7566,0.0,0.0,0.0,0.0,0.0,0.0,0.0,0.0,0.0,0.0,0.0,0.0,0.0,0.0,0.0,0.0,0.0,0.0,0.0,0.0,0.0,0.0,0.0,0.0,0.0,0.0,0.0,0.0,0.0,0.0,0.0,0.0,0.0,0.0,0.0,0.0,0.0,0.0,0.0,0.0,0.0,0.0,0.0,0.0,0.0,0.0,0.0,0.0,0.0,0.0,0.0,0.0,0.0,0.0,0.0,0.0,0.0,0.0,0.0,0.0,0.0,0.0,0.0,0.0,0.0,0.0,0.0,0.0,0.0,0.0,0.0,0.0,0.0,0.0,0.0,0.0,0.0,0.0,0.0,0.0,0.0,0.0,0.0,0.0,0.0,0.0,0.0,0.0,0.0,0.0,0.0,0.0,0.0,0.0,0.0,0.0,0.0,0.0,0.0,0.0,0.0,0.0,0.0,0.0,0.0,0.0,0.0,0.0,-1.7901,-1.8492,-1.9001,-1.9059,-1.8637,-1.7866,-1.6829,0.0,0.0,0.0,0.0,0.0,0.0,0.0,0.0,0.0,0.0,0.0,0.0,0.0,0.0,0.0,0.0,0.0,0.0,0.0,0.0,0.0,0.0,0.0,0.0,0.0,0.0,0.0,0.0,0.0,0.0,0.0,0.0,0.0,0.0,0.0,0.0,0.0,0.0,0.0,0.0,0.0,0.0,0.0,0.0,0.0,0.0,0.0,0.0,0.0,0.0,0.0,0.0,0.0,0.0,0.0,0.0,0.0,0.0,0.0,0.0,0.0,0.0,0.0,0.0,0.0,0.0,0.0,0.0,0.0,0.0,0.0,0.0,0.0,0.0,0.0,0.0,0.0,0.0,0.0,0.0,0.0,0.0,0.0,0.0,0.0,0.0,0.0,0.0,0.0,0.0,0.0,0.0,0.0,0.0,0.0,0.0,0.0,0.0,0.0,0.0,0.0,0.0,0.0,0.0,0.0,0.0,0.0,0.0,0.0,-1.6939,-1.8455,-1.9631,-2.0292,-1.8435,-1.7926,0.0,0.0,0.0,0.0,0.0,0.0,0.0,0.0,0.0,0.0,0.0,0.0,0.0,0.0,0.0,0.0,0.0,0.0,0.0,0.0,0.0,0.0,0.0,0.0,0.0,0.0,0.0,0.0,0.0,0.0,0.0,0.0,0.0,0.0,0.0,0.0,0.0,0.0,0.0,0.0,0.0,0.0,0.0,0.0,0.0,0.0,0.0,0.0,0.0,0.0,0.0,0.0,0.0,0.0,0.0,0.0,0.0,0.0,0.0,0.0,0.0,0.0,0.0,0.0,0.0,0.0,0.0,0.0,0.0,0.0,0.0,0.0,0.0,0.0,0.0,0.0,0.0,0.0,0.0,0.0,0.0,0.0,0.0,0.0,0.0,0.0,0.0,0.0,0.0,0.0,0.0,0.0,0.0,0.0,0.0,0.0,0.0,0.0,0.0,0.0,0.0,0.0,0.0,0.0,0.0,0.0,0.0,0.0,0.0,-1.8597,-2.0024,-2.1256,-2.2053,-2.0509,-1.9788,-2.0035,0.0,0.0,0.0,0.0,0.0,0.0,0.0,0.0,0.0,0.0,0.0,0.0,0.0,0.0,0.0,0.0,0.0,0.0,0.0,0.0,0.0,0.0,0.0,0.0,0.0,0.0,0.0,0.0,0.0,0.0,0.0,0.0,0.0,0.0,0.0,0.0,0.0,0.0,0.0,0.0,0.0,0.0,0.0,0.0,0.0,0.0,0.0,0.0,0.0,0.0,0.0,0.0,0.0,0.0,0.0,0.0,0.0,0.0,0.0,0.0,0.0,0.0,0.0,0.0,0.0,0.0,0.0,0.0,0.0,0.0,0.0,0.0,0.0,0.0,0.0,0.0,0.0,0.0,0.0,0.0,0.0,0.0,0.0,0.0,0.0,0.0,0.0,0.0,0.0,0.0,0.0,0.0,0.0,0.0,0.0,0.0,0.0,0.0,0.0,0.0,0.0,0.0,0.0,0.0,0.0,0.0,0.0,0.0,-2.2636,-2.3534,-2.4018,-2.3959,-2.3734,-2.2387,0.0,0.0,0.0,0.0,0.0,0.0,0.0,0.0,0.0,0.0,0.0,0.0,0.0,0.0,0.0,0.0,0.0,0.0,0.0,0.0,0.0,0.0,0.0,0.0,0.0,0.0,0.0,0.0,0.0,0.0,0.0,0.0,0.0,0.0,0.0,0.0,0.0,0.0,0.0,0.0,0.0,0.0,0.0,0.0,0.0,0.0,0.0,0.0,0.0,0.0,0.0,0.0,0.0,0.0,0.0,0.0,0.0,0.0,0.0,0.0,0.0,0.0,0.0,0.0,0.0,0.0,0.0,0.0,0.0,0.0,0.0,0.0,0.0,0.0,0.0,0.0,0.0,0.0,0.0,0.0,0.0,0.0,0.0,0.0,0.0,0.0,0.0,0.0,0.0,0.0,0.0,0.0,0.0,0.0,0.0,0.0,0.0,0.0,0.0,0.0,0.0,0.0,0.0,0.0,0.0,0.0,0.0,0.0,0.0,-2.5627,-2.8498,-2.9624,-2.8651,-2.6623,-2.5218,0.0,0.0,0.0,0.0,0.0,0.0,0.0,0.0,0.0,0.0,0.0,0.0,0.0,0.0,0.0,0.0,0.0,0.0,0.0,0.0,0.0,0.0,0.0,0.0,0.0,0.0,0.0,0.0,0.0,0.0,0.0,0.0,0.0,0.0,0.0,0.0,0.0,0.0,0.0,0.0,0.0,0.0,0.0,0.0,0.0,0.0,0.0,0.0,0.0,0.0,0.0,0.0,0.0,0.0,0.0,0.0,0.0,0.0,0.0,0.0,0.0,0.0,0.0,0.0,0.0,0.0,0.0,0.0,0.0,0.0,0.0,0.0,0.0,0.0,0.0,0.0,0.0,0.0,0.0,0.0,0.0,0.0,0.0,0.0,0.0,0.0,0.0,0.0,0.0,0.0,0.0,0.0,0.0,0.0,0.0,0.0,0.0,0.0,0.0,0.0,0.0,0.0,0.0,0.0,0.0,0.0,0.0,0.0,-2.6697,-2.7386,-3.2795,-3.5107,-3.3801,-3.1081,-2.8675,0.0,0.0,0.0,0.0,0.0,0.0,0.0,0.0,0.0,0.0,0.0,0.0,0.0,0.0,0.0,0.0,0.0,0.0,0.0,0.0,0.0,0.0,0.0,0.0,0.0,0.0,0.0,0.0,0.0,0.0,0.0,0.0,0.0,0.0,0.0,0.0,0.0,0.0,0.0,0.0,0.0,0.0,0.0,0.0,0.0,0.0,0.0,0.0,0.0,0.0,0.0,0.0,0.0,0.0,0.0,0.0,0.0,0.0,0.0,0.0,0.0,0.0,0.0,0.0,0.0,0.0,0.0,0.0,0.0,0.0,0.0,0.0,0.0,0.0,0.0,0.0,0.0,0.0,0.0,0.0,0.0,0.0,0.0,0.0,0.0,0.0,0.0,0.0,0.0,0.0,0.0,0.0,0.0,0.0,0.0,0.0,0.0,0.0,0.0,0.0,0.0,0.0,0.0,0.0,0.0,0.0,0.0,0.0,-2.9095,-2.8557,-3.6063,-3.9517,-3.8267,-3.5648,-3.2147,0.0,0.0,0.0,0.0,0.0,0.0,0.0,0.0,0.0,0.0,0.0,0.0,0.0,0.0,0.0,0.0,0.0,0.0,0.0,0.0,0.0,0.0,0.0,0.0,0.0,0.0,0.0,0.0,0.0,0.0,0.0,0.0,0.0,0.0,0.0,0.0,0.0,0.0,0.0,0.0,0.0,0.0,0.0,0.0,0.0,0.0,0.0,0.0,0.0,0.0,0.0,0.0,0.0,0.0,0.0,0.0,0.0,0.0,0.0,0.0,0.0,0.0,0.0,0.0,0.0,0.0,0.0,0.0,0.0,0.0,0.0,0.0,0.0,0.0,0.0,0.0,0.0,0.0,0.0,0.0,0.0,0.0,0.0,0.0,0.0,0.0,0.0,0.0,0.0,0.0,0.0,0.0,0.0,0.0,0.0,0.0,0.0,0.0,0.0,0.0,0.0,0.0,0.0,0.0,0.0,0.0,0.0,0.0,-2.8582,-3.0075,-3.5771,-3.8545,-3.798,-3.5547,-3.333,0.0,0.0,0.0,0.0,0.0,0.0,0.0,0.0,0.0,0.0,0.0,0.0,0.0,0.0,0.0,0.0,0.0,0.0,0.0,0.0,0.0,0.0,0.0,0.0,0.0,0.0,0.0,0.0,0.0,0.0,0.0,0.0,0.0,0.0,0.0,0.0,0.0,0.0,0.0,0.0,0.0,0.0,0.0,0.0,0.0,0.0,0.0,0.0,-1.8387,0.0,0.0,0.0,0.0,0.0,0.0,0.0,0.0,0.0,0.0,0.0,0.0,0.0,0.0,0.0,0.0,0.0,0.0,0.0,0.0,0.0,0.0,0.0,0.0,0.0,0.0,0.0,0.0,0.0,0.0,0.0,0.0,0.0,0.0,0.0,0.0,0.0,0.0,0.0,0.0,0.0,0.0,0.0,0.0,0.0,0.0,0.0,0.0,0.0,0.0,0.0,0.0,0.0,0.0,0.0,0.0,0.0,0.0,0.0,-2.9195,-3.1782,-3.6119,-3.8421,-3.843,-3.6085,-3.3633,0.0,0.0,0.0,0.0,0.0,0.0,0.0,0.0,0.0,0.0,0.0,0.0,0.0,0.0,0.0,0.0,0.0,0.0,0.0,0.0,0.0,0.0,0.0,0.0,0.0,0.0,0.0,0.0,0.0,0.0,0.0,0.0,0.0,0.0,0.0,0.0,0.0,0.0,0.0,0.0,0.0,0.0,0.0,0.0,0.0,0.0,0.0,0.0,0.0,0.0,0.0,0.0,0.0,0.0,0.0,0.0,0.0,0.0,0.0,0.0,0.0,0.0,0.0,0.0,0.0,0.0,0.0,0.0,0.0,0.0,0.0,0.0,0.0,0.0,0.0,0.0,0.0,0.0,0.0,0.0,0.0,0.0,0.0,0.0,0.0,0.0,0.0,0.0,0.0,0.0,0.0,0.0,0.0,0.0,0.0,0.0,0.0,0.0,0.0,0.0,0.0,0.0,0.0,0.0,0.0,0.0,0.0,-2.693,-3.0123,-3.3584,-3.6903,-3.8745,-3.8975,-3.6768,-3.3595,-2.9598,0.0,0.0,0.0,0.0,0.0,0.0,0.0,0.0,0.0,0.0,0.0,0.0,0.0,0.0,0.0,0.0,0.0,0.0,0.0,0.0,0.0,0.0,0.0,0.0,0.0,0.0,0.0,0.0,0.0,0.0,0.0,0.0,0.0,0.0,0.0,0.0,0.0,0.0,-1.7473,-1.7507,0.0,0.0,0.0,0.0,0.0,0.0,0.0,0.0,-2.0966,0.0,0.0,0.0,0.0,0.0,0.0,0.0,0.0,0.0,0.0,0.0,0.0,0.0,0.0,0.0,0.0,0.0,0.0,0.0,0.0,0.0,0.0,0.0,0.0,0.0,0.0,0.0,0.0,0.0,0.0,0.0,0.0,0.0,0.0,0.0,0.0,0.0,0.0,0.0,0.0,0.0,0.0,0.0,0.0,0.0,0.0,0.0,0.0,0.0,0.0,0.0,0.0,0.0,0.0,0.0,0.0,-2.6293,-2.7182,-3.017,-3.5419,-3.8042,-3.9022,-3.8123,-3.653,-3.3591,-2.9231,0.0,0.0,0.0,0.0,0.0,0.0,0.0,0.0,0.0,0.0,0.0,0.0,0.0,0.0,0.0,0.0,0.0,0.0,0.0,0.0,0.0,0.0,0.0,0.0,0.0,0.0,0.0,0.0,0.0,0.0,0.0,0.0,0.0,0.0,0.0,0.0,0.0,0.0,0.0,-1.8808,-1.938,0.0,0.0,0.0,0.0,0.0,0.0,0.0,0.0,-2.2069,0.0,0.0,0.0,0.0,0.0,0.0,0.0,0.0,0.0,0.0,0.0,0.0,0.0,0.0,0.0,0.0,0.0,0.0,0.0,0.0,0.0,0.0,0.0,0.0,0.0,0.0,0.0,0.0,0.0,0.0,0.0,0.0,0.0,0.0,0.0,0.0,0.0,0.0,0.0,0.0,0.0,0.0,0.0,0.0,0.0,0.0,0.0,0.0,0.0,0.0,0.0,0.0,0.0,0.0,0.0,-2.7231,-2.8784,-3.1879,-3.6853,-3.8024,-3.852,-3.8309,-3.5053,-3.2134,0.0,0.0,0.0,0.0,0.0,0.0,0.0,0.0,0.0,0.0,0.0,0.0,0.0,0.0,0.0,0.0,0.0,0.0,0.0,0.0,0.0,0.0,0.0,0.0,0.0,0.0,0.0,0.0,0.0,0.0,0.0,0.0,0.0,0.0,0.0,0.0,0.0,0.0,0.0,0.0,-1.9353,-1.9989,-2.0241,0.0,0.0,0.0,0.0,0.0,0.0,-2.2796,-2.3375,0.0,0.0,0.0,0.0,0.0,0.0,0.0,0.0,0.0,0.0,0.0,0.0,0.0,0.0,0.0,0.0,0.0,0.0,0.0,0.0,0.0,0.0,0.0,0.0,0.0,0.0,0.0,0.0,0.0,0.0,0.0,0.0,0.0,0.0,0.0,0.0,0.0,0.0,0.0,0.0,0.0,0.0,0.0,0.0,0.0,0.0,0.0,0.0,0.0,0.0,0.0,0.0,0.0,0.0,0.0,-2.7581,-3.0078,-3.3405,-3.7584,-3.7857,-3.8114,-3.8665,-3.3933,-3.0827,0.0,0.0,0.0,0.0,0.0,0.0,0.0,0.0,0.0,0.0,0.0,0.0,0.0,0.0,0.0,0.0,0.0,0.0,0.0,0.0,0.0,0.0,0.0,0.0,0.0,0.0,0.0,0.0,0.0,0.0,0.0,0.0,0.0,0.0,0.0,0.0,0.0,0.0,0.0,0.0,0.0,-2.1087,-2.1216,-2.1208,0.0,0.0,0.0,0.0,-2.3482,-2.471,0.0,0.0,0.0,0.0,0.0,0.0,0.0,0.0,0.0,0.0,0.0,0.0,0.0,0.0,0.0,0.0,0.0,0.0,0.0,0.0,0.0,0.0,0.0,0.0,0.0,0.0,0.0,0.0,0.0,0.0,0.0,0.0,0.0,0.0,0.0,0.0,0.0,0.0,0.0,0.0,0.0,0.0,0.0,0.0,0.0,0.0,0.0,0.0,0.0,0.0,0.0,0.0,0.0,0.0,0.0,0.0,-2.6557,-2.9755,-3.3289,-3.708,-3.8185,-3.8689,-3.8713,-3.4297,-3.1105,0.0,0.0,0.0,0.0,0.0,0.0,0.0,0.0,0.0,0.0,0.0,0.0,0.0,0.0,0.0,0.0,0.0,0.0,0.0,0.0,0.0,0.0,0.0,0.0,0.0,0.0,0.0,0.0,0.0,0.0,0.0,0.0,0.0,0.0,0.0,0.0,0.0,0.0,0.0,0.0,0.0,-2.4094,-2.3222,-2.2946,-2.3048,0.0,0.0,-2.5439,-2.7204,-2.908,0.0,0.0,0.0,0.0,0.0,0.0,0.0,0.0,0.0,0.0,0.0,0.0,0.0,0.0,0.0,0.0,0.0,0.0,0.0,0.0,0.0,0.0,0.0,0.0,0.0,0.0,0.0,0.0,0.0,0.0,0.0,0.0,0.0,0.0,0.0,0.0,0.0,0.0,0.0,0.0,0.0,0.0,0.0,0.0,0.0,0.0,0.0,0.0,0.0,0.0,0.0,0.0,0.0,0.0,0.0,-2.4342,-2.7269,-3.0994,-3.4292,-3.7108,-3.84,-3.8814,-3.8334,-3.3464,-3.0304,0.0,0.0,0.0,0.0,0.0,0.0,0.0,0.0,0.0,0.0,0.0,0.0,0.0,0.0,0.0,0.0,0.0,0.0,0.0,0.0,0.0,0.0,0.0,0.0,0.0,0.0,0.0,0.0,0.0,0.0,0.0,0.0,0.0,0.0,0.0,0.0,0.0,0.0,0.0,0.0,0.0,0.0,-2.5847,-2.6549,0.0,0.0,0.0,-2.8818,-2.9415,0.0,0.0,0.0,0.0,0.0,0.0,0.0,0.0,0.0,0.0,0.0,0.0,0.0,0.0,0.0,0.0,0.0,0.0,0.0,0.0,0.0,0.0,0.0,0.0,0.0,0.0,0.0,0.0,0.0,0.0,0.0,0.0,0.0,0.0,0.0,0.0,0.0,0.0,0.0,0.0,0.0,0.0,0.0,0.0,0.0,0.0,0.0,0.0,0.0,0.0,0.0,0.0,0.0,0.0,0.0,0.0,0.0,-2.7739,-3.2202,-3.5405,-3.7248,-3.8757,-3.9134,-3.8338,-3.3693,0.0,0.0,0.0,0.0,0.0,0.0,0.0,0.0,0.0,0.0,0.0,0.0,0.0,0.0,0.0,0.0,0.0,0.0,0.0,0.0,0.0,0.0,0.0,0.0,0.0,0.0,0.0,-1.713,0.0,0.0,0.0,0.0,0.0,0.0,0.0,0.0,0.0,0.0,0.0,0.0,0.0,0.0,-2.903,-2.8333,-2.9791,-3.0769,0.0,0.0,-3.1792,-3.1241,-3.2277,-3.2758,0.0,0.0,0.0,0.0,0.0,0.0,0.0,0.0,0.0,0.0,0.0,0.0,0.0,0.0,0.0,0.0,0.0,0.0,0.0,0.0,0.0,0.0,0.0,0.0,0.0,0.0,0.0,0.0,0.0,0.0,0.0,0.0,0.0,0.0,0.0,0.0,0.0,0.0,0.0,0.0,0.0,0.0,0.0,0.0,0.0,0.0,0.0,0.0,0.0,0.0,0.0,0.0,0.0,0.0,0.0,-2.7314,-3.2967,-3.6475,-3.7568,-3.9373,-4.0083,-3.9471,-3.6291,-3.3004,0.0,0.0,0.0,0.0,0.0,0.0,0.0,0.0,0.0,0.0,0.0,0.0,0.0,0.0,0.0,0.0,0.0,0.0,0.0,0.0,0.0,0.0,0.0,0.0,0.0,0.0,0.0,0.0,0.0,0.0,0.0,0.0,0.0,0.0,0.0,0.0,0.0,0.0,0.0,0.0,0.0,-3.1394,-3.0332,-3.1639,-3.2777,0.0,0.0,-3.347,-3.2996,-3.6192,-3.7477,-3.3811,0.0,0.0,0.0,0.0,0.0,0.0,0.0,0.0,0.0,0.0,0.0,0.0,0.0,0.0,0.0,0.0,0.0,0.0,0.0,0.0,0.0,0.0,0.0,0.0,0.0,0.0,0.0,0.0,0.0,0.0,0.0,0.0,0.0,0.0,0.0,0.0,0.0,0.0,0.0,0.0,0.0,0.0,0.0,0.0,0.0,0.0,0.0,0.0,0.0,0.0,0.0,0.0,0.0,-2.6592,-2.8706,-3.3582,-3.6987,-3.884,-4.0406,-4.0685,-3.962,-3.7057,-3.3906,0.0,0.0,0.0,0.0,0.0,0.0,0.0,0.0,0.0,0.0,0.0,0.0,0.0,0.0,0.0,0.0,0.0,0.0,0.0,0.0,0.0,0.0,0.0,0.0,0.0,0.0,0.0,0.0,-1.9509,-2.063,-2.2413,0.0,0.0,0.0,0.0,0.0,0.0,0.0,0.0,0.0,0.0,-3.3834,-3.4593,-3.5971,0.0,0.0,-3.6276,-3.6419,-3.5629,-3.6526,-3.6791,-3.5271,-3.4727,0.0,0.0,0.0,0.0,0.0,0.0,0.0,0.0,0.0,0.0,0.0,0.0,0.0,0.0,0.0,0.0,0.0,0.0,0.0,0.0,0.0,0.0,0.0,0.0,0.0,0.0,0.0,0.0,0.0,0.0,0.0,0.0,0.0,0.0,0.0,0.0,0.0,0.0,0.0,0.0,0.0,0.0,0.0,0.0,0.0,0.0,0.0,0.0,0.0,0.0,0.0,0.0,-2.6906,-2.9343,-3.4053,-3.7521,-3.9618,-4.1048,-4.1191,-4.0024,-3.7984,-3.5036,0.0,0.0,0.0,0.0,0.0,0.0,0.0,0.0,0.0,0.0,0.0,0.0,0.0,0.0,0.0,0.0,0.0,0.0,0.0,0.0,0.0,0.0,0.0,0.0,0.0,0.0,0.0,0.0,-2.083,-2.2147,-2.4054,0.0,0.0,0.0,0.0,0.0,0.0,0.0,0.0,0.0,0.0,-3.5579,-3.6956,-3.8452,-3.9187,-3.8473,-3.8451,-3.8318,-3.7769,-3.7312,-3.6681,-3.5925,0.0,0.0,0.0,0.0,0.0,0.0,0.0,0.0,0.0,0.0,0.0,0.0,0.0,0.0,0.0,0.0,0.0,0.0,0.0,0.0,0.0,0.0,0.0,0.0,0.0,0.0,0.0,0.0,0.0,0.0,-2.8099,0.0,0.0,0.0,0.0,0.0,0.0,0.0,0.0,0.0,0.0,0.0,0.0,0.0,0.0,0.0,0.0,0.0,0.0,0.0,0.0,0.0,0.0,-2.6903,-2.8612,-3.4354,-3.8071,-3.9717,-4.1213,-4.1714,-4.1044,-3.9284,-3.6567,-3.2834,0.0,0.0,0.0,0.0,0.0,0.0,0.0,0.0,0.0,0.0,0.0,0.0,0.0,0.0,0.0,0.0,0.0,0.0,0.0,0.0,0.0,0.0,0.0,0.0,0.0,0.0,-2.1536,-2.2818,-2.4107,0.0,0.0,0.0,0.0,0.0,0.0,0.0,0.0,0.0,0.0,-3.3963,-3.6447,-3.657,-3.8182,-3.9642,-4.0427,-3.9446,-3.8742,-3.9125,-3.9015,-3.8139,0.0,0.0,0.0,0.0,0.0,0.0,0.0,0.0,0.0,0.0,0.0,0.0,0.0,0.0,0.0,0.0,0.0,0.0,0.0,0.0,0.0,0.0,0.0,0.0,0.0,0.0,0.0,-3.0139,-3.0803,0.0,0.0,0.0,0.0,0.0,0.0,0.0,0.0,0.0,0.0,0.0,-3.5675,-3.5552,0.0,0.0,0.0,0.0,0.0,0.0,0.0,0.0,0.0,0.0,0.0,0.0,-2.8407,-3.1118,-3.5182,-3.8773,-4.1692,-4.1956,-4.1734,-4.111,-3.9753,-3.7176,-3.3304,0.0,0.0,0.0,0.0,0.0,0.0,0.0,0.0,0.0,0.0,0.0,0.0,0.0,0.0,0.0,0.0,0.0,0.0,0.0,0.0,0.0,0.0,0.0,0.0,0.0,-2.277,0.0,0.0,0.0,0.0,0.0,0.0,0.0,0.0,0.0,0.0,0.0,-3.1809,-3.3604,-3.4981,-3.6297,-3.7554,-3.8302,-3.8817,0.0,0.0,0.0,0.0,0.0,0.0,0.0,0.0,0.0,0.0,0.0,0.0,0.0,0.0,-3.8901,-3.7144,-3.6703,-3.6621,-3.6621,0.0,0.0,0.0,0.0,0.0,0.0,0.0,0.0,0.0,0.0,0.0,0.0,0.0,0.0,-3.2476,0.0,-3.2974,0.0,0.0,0.0,0.0,0.0,0.0,0.0,0.0,-3.7181,-3.8258,-3.9185,-3.8818,-3.8198,0.0,-3.7051,-3.4521,0.0,0.0,0.0,0.0,0.0,0.0,0.0,0.0,-2.978,-3.2297,-3.6034,-3.9438,-4.2274,-4.1971,-4.1517,-4.111,-3.9319,-3.6941,-3.3975,-3.0675,-2.8563,0.0,0.0,0.0,0.0,0.0,0.0,0.0,0.0,0.0,0.0,0.0,0.0,0.0,0.0,0.0,0.0,0.0,0.0,0.0,0.0,0.0,0.0,0.0,-2.4615,0.0,0.0,0.0,0.0,0.0,0.0,0.0,0.0,0.0,-3.1569,-3.2108,-3.3365,-3.5549,-3.5848,-3.6487,-3.8236,0.0,0.0,0.0,0.0,0.0,0.0,0.0,-3.9428,-3.9161,-3.9143,-3.8925,-3.8282,-3.8448,-3.8404,-3.7561,0.0,0.0,-3.7307,-3.6933,-3.6818,-3.6818,-3.6568,-3.6699,-3.7853,-3.8334,-3.8634,0.0,0.0,0.0,0.0,0.0,0.0,0.0,0.0,-3.4232,-3.5129,0.0,-3.5675,0.0,0.0,0.0,0.0,0.0,-3.5287,0.0,0.0,-4.0498,-4.1768,-4.1118,-4.0294,-3.9807,-3.978,-3.9764,-3.8602,-3.6297,-3.302,0.0,0.0,0.0,0.0,0.0,0.0,-3.0967,-3.2342,-3.6864,-4.0023,-4.1663,-4.1328,-4.111,-4.0974,-3.8206,-3.6117,-3.4883,-3.3331,-3.1963,-3.0796,-2.8969,0.0,0.0,0.0,0.0,0.0,0.0,0.0,0.0,0.0,0.0,0.0,0.0,0.0,0.0,0.0,0.0,0.0,0.0,0.0,0.0,-2.6901,0.0,0.0,0.0,0.0,0.0,0.0,0.0,0.0,0.0,0.0,-3.1927,-3.3335,-3.5043,-3.6357,0.0,0.0,0.0,0.0,-3.9125,-4.0827,-4.1029,-4.1493,-4.3014,-4.215,-4.0885,-3.9653,0.0,0.0,-3.8611,-3.7896,-3.7432,-3.7371,-3.7235,-3.7359,-3.8331,-3.7838,-3.7374,-3.7405,-3.7174,-3.6965,-3.705,-3.7915,-3.8444,-3.6164,0.0,0.0,0.0,0.0,-3.4147,-3.5499,-3.767,-3.8113,-3.8097,-3.7796,-3.7932,0.0,0.0,0.0,0.0,0.0,0.0,-3.9557,-4.2761,-4.3211,-4.428,-4.5807,-4.4947,-4.408,-4.3219,-4.2372,-4.1194,-3.9688,-3.7865,-3.5061,-3.142,0.0,0.0,0.0,0.0,-3.3215,-3.5638,-3.8423,-4.052,-4.1887,-4.1376,-4.0703,-3.9834,-3.8109,-3.6862,-3.6117,-3.4426,-3.3019,-3.2017,-3.0679,0.0,0.0,0.0,0.0,0.0,0.0,0.0,0.0,0.0,0.0,0.0,0.0,0.0,0.0,0.0,0.0,0.0,0.0,0.0,-2.8598,-2.8754,-2.8756,0.0,0.0,0.0,0.0,0.0,0.0,0.0,0.0,0.0,-3.4983,-3.513,-3.5878,0.0,0.0,-3.6127,-3.6959,-3.7083,-3.7728,-3.9439,-4.0258,0.0,-4.1877,-4.1894,-4.1321,-4.0221,-3.9724,-3.9316,-3.8857,-3.8228,-3.7637,-3.7208,-3.7082,-3.7176,-3.7704,-3.7555,-3.7449,-3.7947,-3.7809,-3.7734,-3.8227,-3.8948,-3.9356,-4.0831,-3.8575,-3.6691,-3.6358,-3.7061,-3.7299,-3.8496,-4.0245,-4.0785,-4.1141,-4.1271,-4.1042,-3.9943,-3.8212,-3.7222,0.0,0.0,0.0,-4.2088,-4.5572,-4.4957,-4.5827,-4.768,-4.6888,-4.5967,-4.5044,-4.4312,-4.347,-4.2521,-4.1113,-3.8933,-3.6,0.0,0.0,-3.255,-3.422,-3.5983,-3.7789,-3.9841,-4.1247,-4.1978,-4.0947,-3.9943,-3.8966,-3.7799,-3.6985,-3.6605,-3.529,-3.4263,-3.345,-3.2171,-3.097,0.0,0.0,0.0,0.0,0.0,0.0,0.0,0.0,0.0,0.0,0.0,-2.4412,-2.3776,0.0,0.0,0.0,-2.6666,-2.8942,-3.0133,-3.0299,0.0,0.0,0.0,0.0,0.0,0.0,0.0,-3.3095,-3.4382,-3.5669,-3.6686,-3.6507,-3.6896,-3.8571,-3.7345,-3.664,-3.7607,0.0,-3.8102,-4.023,-4.0991,-4.1756,-4.2778,-4.2426,-4.1502,-3.9937,-3.9256,-3.8816,-3.8554,-3.7994,-3.7481,-3.7289,-3.7211,-3.7404,-3.7976,-3.7682,-3.7481,-3.7977,-3.7919,-3.7894,-3.8302,-3.9116,-3.9738,-4.4501,-4.3692,-4.0207,-3.9236,-3.996,-4.0569,-4.0999,-4.1509,-4.2656,-4.3919,-4.5132,-4.4516,-4.4108,-4.3761,-4.1343,0.0,-4.1273,-4.2769,-4.4411,-4.6234,-4.6078,-4.653,-4.7559,-4.6846,-4.6182,-4.5533,-4.5533,-4.5207,-4.4556,-4.3022,-4.1651,-4.0529,-3.8898,-3.7263,-3.5831,-3.7635,-3.8711,-3.8863,-4.0823,-4.1822,-4.1761,-4.0078,-3.8884,-3.826,-3.7148,-3.6497,-3.6442,-3.5873,-3.529,-3.4721,-3.3342,-3.2268,-3.1542,0.0,0.0,0.0,0.0,0.0,0.0,0.0,0.0,0.0,0.0,0.0,0.0,0.0,0.0,0.0,-3.0012,0.0,-3.178,-3.178,0.0,0.0,0.0,-3.3903,-3.4533,-3.516,-3.5579,-3.5579,0.0,0.0,-3.7404,-3.7494,-3.7973,-3.926,-3.8242,-3.7888,-3.9305,-3.8908,-3.9529,-4.1884,-4.249,-4.3103,-4.4042,-4.2962,-4.1079,-3.9109,-3.8248,-3.7956,-3.7834,-3.7414,-3.7173,-3.7433,-3.7586,-3.7787,-3.8575,-3.8032,-3.7625,-3.7615,-3.7587,-3.7567,-3.77,-3.8567,-3.9331,-4.5967,-4.5777,-4.4867,-4.3868,-4.2782,-4.2966,-4.3318,-4.39,-4.4746,-4.5099,-4.5052,-4.5444,-4.5069,-4.3992,-4.2783,-4.2838,-4.3938,-4.4333,-4.5602,-4.7387,-4.6841,-4.6706,-4.7002,-4.6654,-4.594,-4.4963,-4.4908,-4.461,-4.3986,-4.3155,-4.2156,-4.1143,-4.0668,-3.921,-3.6875,-3.7701,-3.8588,-3.936,-4.0308,-4.0495,-3.9943,-3.864,-3.7663,-3.7039,-3.6307,-3.571,-3.5209,-3.4639,-3.426,-3.4124,-3.3382,-3.2556,-3.1606,-2.8988,0.0,0.0,0.0,0.0,0.0,0.0,0.0,0.0,0.0,-2.5953,-2.539,0.0,-2.8867,0.0,-3.0895,-3.3066,-3.4412,-3.4083,0.0,0.0,-3.4921,-3.51,-3.525,-3.5881,-3.6267,-3.6237,-3.6806,-3.7434,-3.8093,-3.8153,-3.8452,-3.926,-3.8272,-3.7713,-3.8551,-3.8586,-3.9013,-4.0597,-4.1361,-4.1724,-4.1903,-4.07,-3.9348,-3.8277,-3.7985,-3.7749,-3.7289,-3.7095,-3.7017,-3.7134,-3.7433,-3.7663,-3.7929,-3.7739,-3.7625,-3.7586,-3.7366,-3.725,-3.7528,-3.7891,-3.8098,-4.6535,-4.6535,-4.6535,-4.5937,-4.5014,-4.5014,-4.518,-4.553,-4.5938,-4.6299,-4.6709,-4.723,-4.6836,-4.5857,-4.5063,-4.5068,-4.5769,-4.5769,-4.6367,-4.732,-4.6901,-4.6689,-4.6661,-4.628,-4.575,-4.5098,-4.4827,-4.4529,-4.4176,-4.385,-4.3106,-4.2049,-4.2,-4.0716,-3.8285,-3.8313,-3.8629,-3.9177,-3.9222,-3.9114,-3.8868,-3.7745,-3.6739,-3.5952,-3.5117,-3.431,-3.3551,-3.2963,-3.2738,-3.2978,-3.2482,-3.1926,-3.132,-2.9325,-2.8221,0.0,0.0,0.0,0.0,0.0,0.0,0.0,0.0,0.0,0.0,0.0,-3.1189,-3.1177,-3.2871,-3.4414,-3.54,-3.5462,-3.5639,-3.6297,-3.6626,-3.6896,-3.7225,-3.7584,-3.7793,-3.7793,-3.8093,-3.8452,-3.8811,-3.8841,-3.899,-3.9379,-3.8781,-3.8422,-3.8751,-3.8841,-3.9294,-4.0532,-4.1066,-4.1138,-4.0674,-3.9602,-3.853,-3.773,-3.7519,-3.7404,-3.7056,-3.6978,-3.7095,-3.7443,-3.7558,-3.7739,-3.8014,-3.7787,-3.7625,-3.7548,-3.7317,-3.7095,-3.7317,-3.7471,-3.7625,-4.6589,-4.6535,-4.6535,-4.6535,-4.6535,-4.6535,-4.6535,-4.6535,-4.6535,-4.7312,-4.8667,-4.8934,-4.8698,-4.7985,-4.7224,-4.6838,-4.6838,-4.6838,-4.6806,-4.6661,-4.6689,-4.6582,-4.6372,-4.5831,-4.5505,-4.5343,-4.4827,-4.4556,-4.4474,-4.4393,-4.3719,-4.2662,-4.2479,-4.1376,-3.9355,-3.8727,-3.8437,-3.8358,-3.7767,-3.7702,-3.8049,-3.686,-3.5762,-3.4792,-3.3754,-3.272,-3.1703,-3.1284,-3.1206,-3.1546,-3.1206,-3.1022,-3.1033,-2.9751,-2.9078,0.0,-2.9276,0.0,0.0,0.0,0.0,0.0,0.0,0.0,0.0,-3.3143,-3.3682,-3.4548,-3.5234,-3.5699,-3.5848,-3.6387,-3.6985,-3.7614,-3.8182,-3.8781,-3.9284,-3.9403,-3.9403,-3.9403,-3.9403,-3.9373,-3.9343,-3.9403,-3.9373,-3.9373,-3.9313,-3.9284,-3.9409,-3.9343,-3.9739,-4.0919,-4.0944,-4.042,-3.9869,-3.9148,-3.8245,-3.7247,-3.7017,-3.6978,-3.6978,-3.6978,-3.7211,-3.7787,-3.7749,-3.7787,-3.8472,-3.7976,-3.7586,-3.751,-3.7211,-3.7017,-3.7017,-3.7278,-3.751,-4.6969,-4.6535,-4.6535,-4.6535,-4.6535,-4.6535,-4.6535,-4.6535,-4.6535,-4.7029,-4.7948,-4.861,-4.8496,-4.7712,-4.6929,-4.6569,-4.6596,-4.6596,-4.6548,-4.6553,-4.6553,-4.6258,-4.5828,-4.5641,-4.5071,-4.4149,-4.4013,-4.3687,-4.3226,-4.2738,-4.195,-4.087,-4.0388,-3.9468,-3.8162,0.0,0.0,0.0,-3.6194,-3.6369,-3.64,-3.4948,-3.3831,-3.3172,-3.2554,0.0,-3.054,-3.0828,-3.0618,-2.9869,-3.0566,0.0,0.0,0.0,0.0,0.0,0.0,0.0,0.0,0.0,0.0,0.0,-3.389,-3.3413,-3.2952,-3.3567,-3.4787,-3.6573,-3.6503,-3.6716,-3.7734,-3.7943,-3.8302,-3.896,-3.9104,-3.926,-3.9373,-3.9403,-3.9403,-3.9403,-3.9403,-3.9403,-3.9403,-3.9403,-3.9403,-3.9403,-3.9403,-3.9403,-3.9403,-3.9403,-3.9505,-3.9697,-3.9364,-3.8788,-3.8602,-3.7949,-3.7331,-3.7046,-3.6978,-3.6978,-3.6978,-3.6978,-3.6978,-3.725,-3.7404,-3.751,-3.7404,-3.7443,-3.7366,-3.7134,-3.7056,-3.6978,-3.6978,-3.7056,-3.7095,-4.7241,0.0,-4.6643,-4.6535,0.0,-4.6535,-4.6535,-4.6535,-4.6535,-4.6925,-4.7722,-4.81,-4.805,-4.7643,-4.6873,-4.6535,-4.6535,-4.6535,-4.6535,-4.6535,-4.6535,-4.6209,-4.5587,-4.5288,-4.4664,-4.3818,-4.347,-4.3172,-4.2873,-4.2575,-4.1835,-4.0737,-4.0414,-3.9685,-3.8549,-3.7359,-3.6263,-3.522,-3.5429,-3.5636,-3.5816,-3.5048,-3.4259,-3.3476,-3.2934,0.0,0.0,0.0,0.0,0.0,0.0,0.0,0.0,-3.1581,0.0,-3.3053,-3.3376,-3.4102,-3.5277,-3.6056,-3.662,-3.6937,-3.6966,-3.6388,-3.5017,-3.606,-3.7227,-3.8262,-3.8123,-3.8182,-3.8811,-3.8901,-3.905,-3.9379,-3.9403,-3.9403,-3.9403,-3.9403,-3.9403,-3.9403,-3.9403,-3.9403,-3.9403,-3.9403,-3.9403,-3.9403,-3.9403,-3.9403,-3.9403,-3.9403,-3.9403,-3.9373,-3.8723,-3.8202,-3.8089,-3.7183,-3.6665,-3.6861,-3.6744,-3.6665,-3.694,-3.6978,-3.7056,-3.7211,-3.7056,-3.6783,-3.6794,-3.6559,-3.6338,-3.638,-3.6405,-3.6631,-3.69,-3.6973,-3.6978,-4.7513,-4.735,-4.6779,-4.6535,-4.6535,-4.6535,-4.6535,-4.6535,0.0,0.0,0.0,-4.762,-4.762,-4.7466,-4.6821,-4.6535,-4.6535,-4.6535,-4.6535,-4.6535,-4.6535,-4.6209,-4.556,-4.499,-4.4366,-4.3769,-4.3172,-4.29,-4.2873,-4.2792,-4.2195,-4.1191,-4.1001,-4.035,-3.9156,-3.8136,-3.6884,-3.5463,-3.518,-3.529,-3.5588,-3.54,-3.4902,-3.41,-3.3554,-3.2814,-3.1939,-3.1546,-3.1505,-3.1756,-3.1939,-3.2109,-3.2147,-3.2265,-3.2653,-3.3457,-3.4279,-3.5427,-3.6979,-3.7899,-3.8704,-3.9343,-3.9403,-3.8816,-3.7528,-3.8648,-3.9403,-3.9403,-3.9403,-3.9373,-3.9403,-3.9373,-3.9403,-3.9403,-3.9403,-3.9403,-3.9403,-3.9403,-3.9403,-3.9403,-3.9403,-3.9403,-3.9403,-3.9403,-3.9403,-3.9403,-3.9403,-3.9403,-3.9403,-3.9403,-3.9373,-3.9228,-3.8612,-3.8165,-3.7938,-3.695,-3.631,-3.6665,-3.635,-3.623,-3.6665,-3.6822,-3.694,-3.7134,-3.6468,-3.6084,-3.6203,-3.5655,-3.5194,-3.5614,-3.5764,-3.6033,-3.6561,-3.669,-3.6626,-4.7812,-4.735,-4.6779,-4.6535,-4.6535,-4.6535,-4.6535,-4.656,-4.7208,-4.7208,-4.6717,-4.7414,-4.7312,-4.6692,-4.6508,-4.6535,-4.6535,-4.6535,-4.6535,-4.6535,-4.6535,-4.6157,-4.5587,-4.499,-4.4393,-4.3769,-4.3172,-4.29,-4.2846,-4.2385,-4.1788,-4.1137,-4.0594,-3.9726,-3.864,-3.8369,-3.7648,-3.6414,-3.5531,-3.5127,-3.5182,-3.4309,-3.3816,-3.3697,-3.3119,-3.2502,-3.1939,-3.228,-3.207,-3.1296,-3.2096,-3.2777,-3.3194,-3.3608,-3.4551,-3.6025,-3.6314,-3.6708,-3.7463,-3.8132,-3.8745,-3.9337,-3.9403,-3.9307,-3.9109,-3.9307,-3.9403,-3.9403,-3.9403,-3.9403,-3.9403,-3.9403,-3.9403,-3.9403,-3.9403,-3.9403,-3.9403,-3.9403,-3.9403,-3.9403,-3.9403,-3.9403,-3.9403,-3.9403,-3.9373,-3.9373,-3.9228,-3.9337,-3.9301,-3.9403,-3.9265,-3.8907,-3.8501,-3.8089,-3.7634,-3.6744,-3.6111,-3.6111,-3.6071,-3.5991,-3.627,-3.627,-3.627,-3.623,-3.5669,-3.5237,-3.5277,-3.5155,-3.5071,-3.5422,-3.5289,-3.5344,-3.5777,-3.5602,-3.5521,-4.8355,-4.7785,-4.7215,-4.6834,-4.6535,-4.6535,-4.6535,-4.6535,-4.6873,-4.6873,-4.6587,-4.6925,-4.6873,-4.6535,-4.6535,-4.6535,-4.6535,-4.6535,-4.6535,-4.6535,-4.6535,-4.6157,-4.5614,-4.5316,-4.4691,-4.3845,-4.3547,-4.3199,-4.29,-4.2629,-4.2195,-4.1571,-4.0675,-3.959,-3.8505,-3.8423,-3.7946,-3.7079,-3.629,-3.5776,-3.5413,-3.4955,-3.474,-3.474,-3.4447,-3.4206,-3.3939,-3.418,-3.4073,-3.3604,-3.4086,-3.4433,-3.4619,-3.4861,-3.5531,-3.6598,-3.6733,-3.6978,-3.7567,-3.8165,-3.8789,-3.9337,-3.9403,-3.9403,-3.9403,-3.9403,-3.9403,-3.9403,-3.9403,-3.9403,-3.9403,-3.9403,-3.9403,-3.9403,-3.9403,-3.9403,-3.9403,-3.9403,-3.9403,-3.9403,-3.9403,-3.9403,-3.9403,-3.9403,-3.9228,-3.8973,-3.8649,-3.8501,-3.8575,-3.8285,-3.8285,-3.8649,-3.8277,-3.7672,-3.7106,-3.6163,-3.5683,-3.5911,-3.571,-3.5831,-3.627,-3.627,-3.5991,-3.5911,-3.5223,-3.4605,-3.4522,-3.4189,-3.4157,-3.4224,-3.4476,-3.4616,-3.4876,-3.4729,-3.4759,-4.8707,-4.8137,-4.7622,-4.7078,-4.6535,-4.6535,-4.6535,-4.6535,-4.6535,-4.6535,-4.6535,-4.6535,-4.6535,-4.6535,-4.6535,-4.6535,-4.6535,-4.6535,-4.6535,-4.6535,-4.6535,-4.6209,-4.5614,-4.5451,-4.4827,-4.39,-4.3682,-4.3335,-4.2928,-4.29,-4.2575,-4.1924,-4.0784,-3.9726,-3.883,-3.8667,-3.8271,-3.7675,-3.7121,-3.6524,-3.5927,-3.5751,-3.575,-3.5858,-3.575,-3.5777,-3.5858,-3.575,-3.571,-3.571,-3.571,-3.571,-3.571,-3.571,-3.5911,-3.6429,-3.6468,-3.6794,-3.7529,-3.8014,-3.8567,-3.9119,-3.9192,-3.9156,-3.901,-3.9076,-3.9215,-3.9367,-3.9403,-3.9403,-3.9403,-3.9403,-3.9337,-3.9228,-3.9192,-3.9156,-3.9192,-3.9192,-3.9265,-3.9337,-3.9403,-3.9337,-3.9228,-3.9192,-3.8936,-3.8352,-3.7796,-3.7501,-3.7577,-3.7049,-3.7127,-3.7615,-3.7529,-3.6911,-3.6294,-3.5481,-3.5073,-3.5481,-3.5141,-3.5263,-3.5803,-3.579,-3.5588,-3.5386,-3.4605,-3.3979,-3.3836,-3.3496,-3.324,-3.3308,-3.3624,-3.392,-3.4089,-3.3995,-3.4111,-4.8789,-4.8137,-4.7622,-4.7078,-4.6562,-4.6562,-4.6562,-4.6562,-4.6535,-4.6535,-4.6535,-4.6535,-4.6535,-4.6535,-4.6535,-4.6535,-4.6535,-4.6535,-4.6535,-4.6535,-4.6535,-4.6157,-4.5614,-4.5071,-4.442,-4.3845,-4.328,-4.3036,-4.29,-4.29,-4.2602,-4.1924,-4.0784,-4.016,-3.997,-3.9481,-3.8939,-3.8342,-3.7702,-3.7148,-3.6524,-3.6008,-3.5938,-3.6298,-3.5938,-3.5898,-3.6246,-3.5938,-3.571,-3.571,-3.571,-3.571,-3.571,-3.571,-3.575,-3.579,-3.579,-3.6282,-3.7453,-3.7644,-3.7976,-3.8501,-3.8634,-3.8381,-3.7901,-3.8121,-3.8631,-3.9142,-3.9337,-3.9301,-3.9403,-3.9337,-3.9083,-3.8642,-3.8604,-3.8604,-3.8575,-3.8604,-3.8789,-3.9337,-3.9265,-3.9192,-3.8716,-3.8538,-3.8277,-3.7682,-3.7155,-3.6816,-3.6777,-3.6188,-3.5682,-3.5882,-3.5789,-3.5628,-3.5237,-3.462,-3.4397,-3.4356,-3.4272,-3.4439,-3.4688,-3.4605,-3.4314,-3.4564,-3.3836,-3.3326,-3.3283,-3.3111,-3.3111,-3.3136,-3.3197,-3.324,-3.324,-3.3283,-3.3513,-4.9059,-4.8192,-4.7975,-4.7541,-4.7132,-4.7378,-4.7323,-4.7051,-4.7051,-4.6861,-4.6535,-4.6535,-4.6535,-4.6535,-4.6535,-4.6535,-4.6535,-4.6535,-4.6535,-4.6535,-4.6535,-4.6347,-4.6075,-4.5505,-4.4908,-4.4312,-4.3687,-4.3226,-4.2928,-4.29,-4.2575,-4.2032,-4.1489,-4.0892,-4.0241,-3.9943,-3.9536,-3.8966,-3.8342,-3.7935,-3.7555,-3.6388,-3.579,-3.5938,-3.5817,-3.575,-3.5938,-3.579,-3.571,-3.571,-3.571,-3.571,-3.571,-3.571,-3.571,-3.571,-3.571,-3.6111,-3.7017,-3.7366,-3.7668,-3.7967,-3.8284,-3.8227,-3.7634,-3.7539,-3.7738,-3.8211,-3.8132,-3.8094,-3.8323,-3.8352,-3.8211,-3.8014,-3.7947,-3.7976,-3.7976,-3.7976,-3.806,-3.8315,-3.8323,-3.8248,-3.7976,-3.7672,-3.7222,-3.6716,-3.6175,-3.5816,-3.5615,-3.4965,-3.4594,-3.4594,-3.4413,-3.4288,-3.4356,-3.4272,-3.4131,-3.4089,-3.4089,-3.4173,-3.4439,-3.4272,-3.4131,-3.4089,-3.3539,-3.3111,-3.3154,-3.3136,-3.3136,-3.3136,-3.3136,-3.3136,-3.3136,-3.3136,-3.324,-4.9413,-4.849,-4.8273,-4.8002,-4.7649,-4.8056,-4.7893,-4.7458,-4.7404,-4.7078,-4.6562,-4.6535,-4.6535,-4.6535,-4.6535,-4.6535,-4.6535,-4.6535,-4.6535,-4.6535,-4.6535,-4.6535,-4.6453,-4.5858,-4.5288,-4.4719,-4.4257,-4.3715,-4.3172,-4.2955,-4.2656,-4.2304,-4.2086,-4.1571,-4.0784,-4.054,-4.0133,-3.9563,-3.8939,-3.8586,-3.8233,-3.6916,-3.6185,-3.6143,-3.5832,-3.575,-3.5898,-3.5777,-3.571,-3.571,-3.571,-3.571,-3.571,-3.5873,-3.6035,-3.6198,-3.6198,-3.6401,-3.6877,-3.7405,-3.769,-3.7657,-3.815,-3.8201,-3.7659,-3.7175,-3.7108,-3.7507,-3.7136,-3.7113,-3.7501,-3.7606,-3.7529,-3.7376,-3.7337,-3.7337,-3.7337,-3.7337,-3.7414,-3.7567,-3.772,-3.7529,-3.7299,-3.6783,-3.6151,-3.5803,-3.5155,-3.4688,-3.4439,-3.3979,-3.3641,-3.3793,-3.3411,-3.3368,-3.3751,-3.3793,-3.3836,-3.3836,-3.3793,-3.3894,-3.4371,-3.4021,-3.3836,-3.3581,-3.3283,-3.3154,-3.3136,-3.3136,-3.3136,-3.3136,-3.3136,-3.3136,-3.3136,-3.3136,-3.3136,-4.9657,-4.8978,-4.8408,-4.8164,-4.8164,-4.8192,-4.792,-4.7404,-4.7404,-4.7078,-4.6562,-4.6535,-4.6535,-4.6535,-4.6535,-4.6535,-4.6535,-4.6535,-4.6535,-4.6535,-4.6535,-4.6535,-4.648,-4.5858,-4.5288,-4.48,-4.4637,-4.4284,-4.3737,-4.3145,-4.2873,-4.2819,-4.2304,-4.2005,-4.1761,-4.1327,-4.0784,-4.016,-3.9563,-3.902,-3.8477,-3.7756,-3.7315,-3.7112,-3.6238,-3.5925,-3.6273,-3.5938,-3.5737,-3.5737,-3.5791,-3.5764,-3.5751,-3.628,-3.6822,-3.7268,-3.7377,-3.7399,-3.7507,-3.7964,-3.8088,-3.7696,-3.8086,-3.8131,-3.755,-3.6989,-3.6907,-3.7395,-3.6893,-3.6847,-3.7374,-3.7508,-3.7392,-3.6923,-3.68,-3.6772,-3.6772,-3.6772,-3.6989,-3.7376,-3.7376,-3.7144,-3.6744,-3.579,-3.5304,-3.4977,-3.4356,-3.3852,-3.3742,-3.3411,-3.3283,-3.324,-3.3154,-3.3111,-3.3154,-3.3283,-3.3283,-3.3283,-3.3368,-3.324,-3.3154,-3.3154,-3.3197,-3.3197,-3.3154,-3.3111,-3.3136,-3.3136,-3.3136,-3.3136,-3.3136,-3.3136,-3.3136,-3.3136,-3.3136,-4.9657,-4.9005,-4.8435,-4.8192,-4.8192,-4.8192,-4.7893,-4.7431,-4.7404,-4.7078,-4.6589,-4.6535,-4.6535,-4.6535,-4.6535,-4.6535,-4.6535,-4.6535,-4.6535,-4.6535,-4.6535,-4.6535,-4.6453,-4.5858,-4.5505,-4.5261,-4.4881,-4.4393,-4.3769,-4.3172,-4.29,-4.2873,-4.2683,-4.2385,-4.2032,-4.1788,-4.1381,-4.0784,-4.0187,-3.978,-3.9481,-3.8586,-3.8075,-3.7957,-3.6878,-3.6361,-3.6511,-3.6361,-3.6469,-3.6808,-3.6835,-3.6835,-3.6862,-3.7025,-3.7241,-3.7458,-3.7512,-3.7504,-3.7577,-3.8042,-3.8139,-3.7646,-3.8057,-3.8164,-3.757,-3.6985,-3.6714,-3.6795,-3.6388,-3.6182,-3.6451,-3.7053,-3.7469,-3.7236,-3.6893,-3.6647,-3.6564,-3.6318,-3.6151,-3.6282,-3.6163,-3.5911,-3.5696,-3.5059,-3.4564,-3.4272,-3.4147,-3.3894,-3.3471,-3.3368,-3.3368,-3.3154,-3.3136,-3.3136,-3.3136,-3.3136,-3.3136,-3.3111,-3.3111,-3.3154,-3.3136,-3.3136,-3.3154,-3.3154,-3.3136,-3.3136,-3.3136,-3.3136,-3.3136,-3.3136,-3.3136,-3.3111,-3.3136,-3.324,-3.3197,-4.9766,-4.9331,-4.8707,-4.8463,-4.8463,-4.8273,-4.7893,-4.7458,-4.7404,-4.7078,-4.6589,-4.6535,-4.6535,-4.6535,-4.6535,-4.6535,-4.6535,-4.6535,-4.6535,-4.6535,-4.6535,-4.6535,-4.6401,-4.6048,-4.5777,-4.5505,-4.499,-4.4474,-4.404,-4.347,-4.309,-4.29,-4.29,-4.2683,-4.2358,-4.2304,-4.2005,-4.1408,-4.0974,-4.0703,-4.0404,-3.9509,-3.8884,-3.8586,-3.7718,-3.7094,-3.6931,-3.6904,-3.7025,-3.7431,-3.7512,-3.7567,-3.7729,-3.7826,-3.7865,-3.807,-3.8125,-3.7973,-3.7865,-3.8369,-3.845,-3.7865,-3.8369,-3.8505,-3.8027,-3.7365,-3.7039,-3.6958,-3.6442,-3.609,-3.6591,-3.7338,-3.7621,-3.7268,-3.6849,-3.6604,-3.6614,-3.6155,-3.5695,-3.5358,-3.51,-3.5015,-3.5024,-3.4544,-3.4208,-3.3956,-3.4049,-3.3709,-3.3283,-3.3326,-3.3454,-3.3154,-3.3136,-3.3136,-3.3136,-3.3136,-3.3136,-3.3136,-3.3136,-3.3136,-3.3136,-3.3136,-3.3136,-3.3136,-3.3136,-3.3136,-3.3136,-3.3136,-3.3136,-3.3136,-3.3154,-3.3154,-3.3283,-3.3496,-3.3624,-5.001,-4.9874,-4.9359,-4.8978,-4.8842,-4.8327,-4.7866,-4.7404,-4.735,-4.6997,-4.6562,-4.6535,-4.6535,-4.6535,-4.6535,-4.6535,-4.6535,-4.6535,-4.6535,-4.6535,-4.6535,-4.6535,-4.6508,-4.6428,-4.6182,-4.5668,-4.5044,-4.4746,-4.4664,-4.4013,-4.3492,-4.3009,-4.2928,-4.2846,-4.2873,-4.2792,-4.2548,-4.2086,-4.1896,-4.1625,-4.111,-4.0458,-3.9861,-3.9319,-3.8722,-3.8109,-3.7567,-3.7512,-3.754,-3.7594,-3.7621,-3.7811,-3.8342,-3.8423,-3.8667,-3.9074,-3.9237,-3.8966,-3.8559,-3.8939,-3.8966,-3.8586,-3.8966,-3.9183,-3.8939,-3.8152,-3.7675,-3.7892,-3.7268,-3.6985,-3.7865,-3.8136,-3.7892,-3.6904,-3.682,-3.6787,-3.669,-3.6311,-3.5626,-3.4895,-3.4648,-3.4685,-3.4819,-3.4477,-3.4118,-3.4289,-3.405,-3.3512,-3.3348,-3.3434,-3.3273,-3.3136,-3.3136,-3.3136,-3.3136,-3.3136,-3.3136,-3.3136,-3.3136,-3.3136,-3.3136,-3.3136,-3.3136,-3.3136,-3.3136,-3.3136,-3.3136,-3.3136,-3.3136,-3.3136,-3.3154,-3.3368,-3.3624,-3.392,-3.4272,-5.001,-4.9928,-4.9386,-4.8815,-4.8408,-4.7893,-4.735,-4.6834,-4.6754,-4.6645,-4.6535,-4.6535,-4.6535,-4.6535,-4.6535,-4.6535,-4.6535,-4.6535,-4.6535,-4.6535,-4.6535,-4.6535,-4.6535,-4.6535,-4.6426,-4.613,-4.5587,-4.5316,-4.5126,-4.4284,-4.371,-4.3519,-4.309,-4.29,-4.2928,-4.2873,-4.2765,-4.2602,-4.2222,-4.1896,-4.1679,-4.1137,-4.054,-3.997,-3.9726,-3.9373,-3.8776,-3.8342,-3.8369,-3.8695,-3.8749,-3.883,-3.8993,-3.902,-3.9102,-3.9264,-3.9319,-3.9264,-3.9102,-3.9183,-3.9237,-3.9074,-3.921,-3.9292,-3.9237,-3.8586,-3.8163,-3.8174,-3.7578,-3.7362,-3.7385,-3.7659,-3.779,-3.7916,-3.7621,-3.718,-3.6806,-3.6376,-3.5991,-3.5635,-3.5297,-3.5176,-3.5072,-3.4598,-3.4341,-3.4658,-3.4762,-3.4623,-3.39,-3.4023,-3.4067,-3.3384,-3.3273,-3.3212,-3.3262,-3.3262,-3.3237,-3.3162,-3.3136,-3.3136,-3.3136,-3.3136,-3.3136,-3.3136,-3.3136,-3.3136,-3.3136,-3.3136,-3.3136,-3.3283,-3.3496,-3.3751,-3.4047,-3.4439,-3.4853,-5.001,-4.9928,-4.9386,-4.8869,-4.8463,-4.7948,-4.7486,-4.7106,-4.6889,-4.6944,-4.7079,-4.6889,-4.6944,-4.7106,-4.7134,-4.6998,-4.6835,-4.6861,-4.6752,-4.6562,-4.6535,-4.6535,-4.6535,-4.6535,-4.6535,-4.648,-4.6102,-4.5804,-4.556,-4.4854,-4.4339,-4.4067,-4.3525,-4.3226,-4.3172,-4.3009,-4.29,-4.2846,-4.2521,-4.2331,-4.2168,-4.1544,-4.1055,-4.0784,-4.0214,-3.9807,-3.9563,-3.9047,-3.8912,-3.9237,-3.9319,-3.9319,-3.9319,-3.9292,-3.9319,-3.9319,-3.9319,-3.9292,-3.9319,-3.9292,-3.9319,-3.9319,-3.9319,-3.9319,-3.921,-3.8749,-3.8353,-3.8201,-3.7741,-3.7497,-3.752,-3.7472,-3.7809,-3.8217,-3.79,-3.7413,-3.6772,-3.618,-3.5782,-3.5487,-3.5054,-3.5135,-3.5362,-3.471,-3.4571,-3.4855,-3.5037,-3.4904,-3.4056,-3.427,-3.3944,-3.3745,-3.3834,-3.3671,-3.3445,-3.337,-3.3294,-3.3237,-3.3136,-3.3136,-3.3136,-3.3136,-3.3136,-3.3136,-3.3136,-3.3136,-3.3136,-3.3136,-3.3136,-3.3454,-3.3878,-3.434,-3.4714,-3.51,-3.5521,-4.9897,-4.9816,-4.9301,-4.9057,-4.8922,-4.8463,-4.8164,-4.8029,-4.7649,-4.7676,-4.7948,-4.7595,-4.7676,-4.8056,-4.7975,-4.7812,-4.7459,-4.735,-4.7078,-4.6672,-4.6537,-4.6535,-4.6535,-4.6535,-4.6535,-4.6508,-4.6428,-4.6157,-4.575,-4.5505,-4.5316,-4.4719,-4.4149,-4.3818,-4.3682,-4.3199,-4.2955,-4.29,-4.2846,-4.2819,-4.2765,-4.1869,-4.1462,-4.1815,-4.0431,-3.978,-3.997,-3.9536,-3.9264,-3.9319,-3.9319,-3.9319,-3.9319,-3.9319,-3.9319,-3.9319,-3.9319,-3.9319,-3.9319,-3.9319,-3.9319,-3.9319,-3.9319,-3.9319,-3.9237,-3.8884,-3.8586,-3.8488,-3.8055,-3.7849,-3.8098,-3.8014,-3.7838,-3.773,-3.7584,-3.7142,-3.6431,-3.5927,-3.575,-3.5203,-3.4539,-3.4686,-3.6206,-3.5053,-3.4907,-3.5138,-3.4942,-3.44,-3.3958,-3.4243,-3.4086,-3.4098,-3.4248,-3.4022,-3.3771,-3.3646,-3.352,-3.3212,-3.3136,-3.3136,-3.3136,-3.3136,-3.3136,-3.3136,-3.3136,-3.3136,-3.3136,-3.3136,-3.3368,-3.3793,-3.4298,-3.4948,-3.5372,-3.575,-3.6071,-4.8695,-4.8669,-4.8969,-4.8846,-4.8501,-4.8703,-4.8598,-4.8219,-4.8056,-4.8138,-4.8164,-4.8083,-4.811,-4.8192,-4.8219,-4.8083,-4.7975,-4.7595,-4.7377,-4.7132,-4.6698,-4.6535,-4.6535,-4.6535,-4.6535,-4.6535,-4.6535,-4.6401,-4.6211,-4.5831,-4.5533,-4.5343,-4.4773,-4.423,-4.3796,-4.3682,-4.3308,-4.2955,-4.29,-4.29,-4.2846,-4.2575,-4.2276,-4.1896,-4.1082,-4.0485,-4.0187,-3.9617,-3.9319,-3.9319,-3.9319,-3.9319,-3.9319,-3.9346,-3.9346,-3.9319,-3.9319,-3.9319,-3.9319,-3.9319,-3.9319,-3.9319,-3.9319,-3.9319,-3.9319,-3.9183,-3.9074,-3.9047,-3.8884,-3.8512,-3.8167,-3.814,-3.8009,-3.7356,-3.7047,-3.6759,-3.6527,-3.6553,-3.6641,-3.6488,-3.6508,-3.6812,-3.6899,-3.6523,-3.5989,-3.6293,-3.6004,-3.5473,-3.4768,-3.49,-3.5072,-3.462,-3.453,-3.4299,-3.4098,-3.3947,-3.3696,-3.3262,-3.3136,-3.3136,-3.3136,-3.3136,-3.3136,-3.3136,-3.3136,-3.3136,-3.3136,-3.3136,-3.3581,-3.4047,-3.4553,-3.5102,-3.5763,-3.623,-3.6547,-4.8172,-4.823,-4.8842,-4.8885,-4.8649,-4.9214,-4.9304,-4.8923,-4.8652,-4.8707,-4.8815,-4.8652,-4.8707,-4.8923,-4.895,-4.8761,-4.8572,-4.8246,-4.7975,-4.7622,-4.7187,-4.6806,-4.6564,-4.6535,-4.6535,-4.6535,-4.6535,-4.6535,-4.648,-4.6102,-4.5967,-4.5858,-4.537,-4.4881,-4.4583,-4.4008,-4.3633,-4.328,-4.3063,-4.29,-4.29,-4.2629,-4.2548,-4.2168,-4.1625,-4.0892,-4.0567,-4.0241,-3.9861,-3.9509,-3.9509,-3.9563,-3.9346,-3.9563,-3.9563,-3.9373,-3.9319,-3.9319,-3.9319,-3.9319,-3.9319,-3.9319,-3.9319,-3.9319,-3.9319,-3.9319,-3.9319,-3.9292,-3.9114,-3.8747,-3.8262,-3.8115,-3.7618,-3.6947,-3.6748,-3.6679,-3.6691,-3.6896,-3.7176,-3.7309,-3.743,-3.7663,-3.7927,-3.7227,-3.6847,-3.6713,-3.6308,-3.5731,-3.5234,-3.572,-3.5918,-3.5365,-3.5127,-3.5002,-3.4625,-3.4374,-3.3872,-3.3395,-3.3136,-3.3136,-3.3136,-3.3136,-3.3136,-3.3136,-3.3136,-3.3136,-3.3136,-3.324,-3.3683,-3.4163,-3.4694,-3.5346,-3.6096,-3.6547,-3.6861,-4.7997,-4.8081,-4.8611,-4.8957,-4.9045,-4.9586,-4.9816,-4.9874,-4.9413,-4.9494,-4.9739,-4.9413,-4.944,-5.001,-4.9766,-4.9684,-4.9196,-4.9006,-4.8598,-4.8138,-4.7568,-4.7132,-4.6699,-4.6589,-4.6535,-4.6535,-4.6535,-4.6535,-4.6508,-4.6428,-4.6455,-4.6292,-4.5885,-4.5641,-4.5234,-4.4447,-4.3954,-4.3655,-4.3145,-4.29,-4.2819,-4.2548,-4.2493,-4.2602,-4.1842,-4.1245,-4.1082,-4.0974,-4.0594,-3.9563,-3.9997,-4.0024,-3.9671,-4.0051,-4.0051,-3.9671,-3.959,-3.9481,-3.94,-3.94,-3.9319,-3.9319,-3.9319,-3.9319,-3.9319,-3.9203,-3.9168,-3.933,-3.8889,-3.8599,-3.8299,-3.765,-3.7092,-3.6748,-3.6958,-3.7219,-3.7369,-3.733,-3.7464,-3.7795,-3.7441,-3.7719,-3.7854,-3.7403,-3.6426,-3.6904,-3.6496,-3.5989,-3.5667,-3.5819,-3.5966,-3.5751,-3.5705,-3.5805,-3.5328,-3.4781,-3.4129,-3.3596,-3.3219,-3.3136,-3.3136,-3.3136,-3.3136,-3.3136,-3.3136,-3.3136,-3.3136,-3.3368,-3.3725,-3.433,-3.4897,-3.5709,-3.652,-3.6744,-3.6978,-4.6721,-4.678,-4.7349,-4.7912,-4.8463,-4.9014,-4.9529,-4.9983,-4.9874,-4.9874,-4.9956,-4.9847,-4.9874,-5.001,-5.001,-4.9928,-4.9711,-4.9359,-4.8761,-4.8164,-4.7649,-4.7404,-4.7078,-4.6752,-4.6535,-4.6535,-4.6535,-4.6535,-4.6535,-4.6535,-4.6535,-4.648,-4.6319,-4.6048,-4.5533,-4.4881,-4.423,-4.3769,-4.3199,-4.29,-4.29,-4.2765,-4.2711,-4.2819,-4.2195,-4.1625,-4.1218,-4.1137,-4.1001,-4.0838,-4.0838,-4.0892,-4.0703,-4.0811,-4.0784,-4.0567,-4.0214,-3.9997,-3.9943,-3.9644,-3.9346,-3.9427,-3.9481,-3.9319,-3.9247,-3.906,-3.905,-3.9181,-3.8945,-3.8574,-3.8079,-3.7177,-3.6922,-3.7104,-3.7571,-3.8181,-3.8713,-3.8574,-3.8344,-3.8345,-3.827,-3.8307,-3.8485,-3.7599,-3.7045,-3.7016,-3.6641,-3.6193,-3.61,-3.6006,-3.6031,-3.6006,-3.6056,-3.6056,-3.5529,-3.4956,-3.4379,-3.3803,-3.3445,-3.3136,-3.3136,-3.3136,-3.3136,-3.3136,-3.3136,-3.3136,-3.3136,-3.3197,-3.3496,-3.4272,-3.5032,-3.575,-3.631,-3.6665,-3.6978,-4.6326,-4.6361,-4.6934,-4.7586,-4.823,-4.8842,-4.9415,-4.9897,-5.001,-5.001,-5.001,-5.001,-5.001,-5.001,-5.001,-5.001,-4.9956,-4.9684,-4.9005,-4.8327,-4.7866,-4.7486,-4.6997,-4.6725,-4.6535,-4.6535,-4.6535,-4.6535,-4.6535,-4.6535,-4.6535,-4.6535,-4.6535,-4.6319,-4.5885,-4.5153,-4.4583,-4.4122,-4.3335,-4.29,-4.29,-4.29,-4.29,-4.2873,-4.2575,-4.2249,-4.2032,-4.1978,-4.1978,-4.1951,-4.1924,-4.1652,-4.1226,-4.1354,-4.1381,-4.1082,-4.0865,-4.0621,-4.0513,-4.035,-4.0187,-4.0133,-4.0133,-4.016,-4.0114,-3.9887,-3.9765,-3.9681,-3.9386,-3.8817,-3.8049,-3.763,-3.7459,-3.7901,-3.8449,-3.9065,-3.9372,-3.9076,-3.8819,-3.8819,-3.8535,-3.8239,-3.7913,-3.7588,-3.7278,-3.7108,-3.6705,-3.6326,-3.6301,-3.6279,-3.6304,-3.6304,-3.6355,-3.6132,-3.5655,-3.5082,-3.458,-3.4079,-3.3721,-3.3345,-3.3144,-3.3162,-3.3136,-3.3136,-3.3136,-3.3136,-3.3111,-3.3197,-3.3368,-3.4089,-3.4812,-3.5494,-3.6098,-3.6496,-3.6783,-4.6326,-4.6361,-4.6874,-4.7442,-4.8114,-4.8669,-4.9244,-4.9783,-4.9953,-5.001,-5.001,-5.001,-5.001,-5.001,-5.001,-5.001,-4.9956,-4.9793,-4.9169,-4.8545,-4.8056,-4.7513,-4.6942,-4.6671,-4.6535,-4.6535,-4.6535,-4.6535,-4.6535,-4.6535,-4.6535,-4.6535,-4.6535,-4.648,-4.6236,-4.5343,-4.4664,-4.4474,-4.347,-4.29,-4.29,-4.29,-4.29,-4.2873,-4.2846,-4.2792,-4.2711,-4.2738,-4.2819,-4.29,-4.29,-4.2358,-4.1842,-4.1788,-4.1978,-4.1435,-4.1354,-4.1245,-4.1191,-4.111,-4.1001,-4.1137,-4.1082,-4.1082,-4.0982,-4.0695,-4.0375,-4.0103,-3.9703,-3.9074,-3.8239,-3.7914,-3.8162,-3.8708,-3.934,-3.976,-3.9764,-3.9311,-3.9312,-3.9189,-3.8772,-3.8408,-3.8091,-3.7741,-3.742,-3.7126,-3.6745,-3.6531,-3.6505,-3.6405,-3.6405,-3.6405,-3.6405,-3.6405,-3.5931,-3.5458,-3.4906,-3.4585,-3.4154,-3.3803,-3.3495,-3.342,-3.342,-3.3162,-3.3136,-3.3136,-3.3136,-3.3111,-3.3454,-3.403,-3.446,-3.5012,-3.5642,-3.6286,-3.6457,-4.6326,-4.6301,-4.6421,-4.6815,-4.7442,-4.8114,-4.8726,-4.9244,-4.984,-5.001,-5.001,-5.001,-5.001,-5.001,-5.001,-5.001,-4.9874,-4.9494,-4.9114,-4.8626,-4.8029,-4.7296,-4.6999,-4.6645,-4.6482,-4.6535,-4.6535,-4.6535,-4.6535,-4.6535,-4.6535,-4.6535,-4.6535,-4.6535,-4.6209,-4.537,-4.4644,-4.4482,-4.3562,-4.2993,-4.2852,-4.29,-4.2852,-4.2852,-4.2803,-4.2803,-4.2825,-4.29,-4.29,-4.29,-4.29,-4.2765,-4.2548,-4.2602,-4.2575,-4.2412,-4.2059,-4.1842,-4.1815,-4.1462,-4.1218,-4.1137,-4.1245,-4.1218,-4.1004,-4.0535,-4.042,-4.0125,-3.964,-3.8969,-3.8768,-3.8442,-3.8391,-3.8942,-3.9769,-4.052,-4.0723,-4.0484,-3.9864,-3.9551,-3.9006,-3.8512,-3.8188,-3.7942,-3.7772,-3.745,-3.7129,-3.691,-3.686,-3.6656,-3.6405,-3.6405,-3.6405,-3.6405,-3.6257,-3.5809,-3.5336,-3.5144,-3.4794,-3.451,-3.4184,-3.3953,-3.3753,-3.3596,-3.3312,-3.3136,-3.3136,-3.3136,-3.3368,-3.3793,-3.4134,-3.4484,-3.5039,-3.5534,-3.5521,-4.6326,-4.6326,-4.6326,-4.6636,-4.7265,-4.7938,-4.8521,-4.9129,-4.97,-5.001,-5.001,-5.001,-5.001,-5.001,-5.001,-4.9847,-4.9494,-4.8896,-4.8517,-4.811,-4.7676,-4.7001,-4.6624,-4.6433,-4.6299,-4.6192,-4.6325,-4.6535,-4.6535,-4.6535,-4.6535,-4.6535,-4.6535,-4.6535,-4.624,-4.5331,-4.4609,-4.4205,-4.3667,-4.3022,-4.2587,-4.2706,-4.2803,-4.2533,-4.2435,-4.2338,-4.2141,-4.2387,-4.2484,-4.2533,-4.2728,-4.29,-4.29,-4.29,-4.29,-4.2819,-4.2602,-4.2439,-4.2439,-4.2168,-4.2086,-4.2059,-4.2005,-4.2032,-4.1842,-4.1464,-4.0736,-4.0303,-3.9879,-3.9295,-3.927,-3.8994,-3.9348,-3.9979,-4.0605,-4.0934,-4.1141,-4.0984,-4.045,-3.9666,-3.8885,-3.8409,-3.8258,-3.8086,-3.8014,-3.7789,-3.7513,-3.7387,-3.7337,-3.696,-3.6656,-3.6505,-3.6531,-3.6455,-3.643,-3.6132,-3.5759,-3.559,-3.5444,-3.514,-3.4835,-3.453,-3.4349,-3.4173,-3.3796,-3.3262,-3.3136,-3.3136,-3.3326,-3.3564,-3.3888,-3.4203,-3.447,-3.4726,-3.4752,-4.6361,-4.6481,-4.6361,-4.6601,-4.7087,-4.788,-4.8463,-4.8957,-4.9508,-4.9901,-4.9983,-4.9874,-4.9874,-4.9983,-4.9956,-4.9766,-4.9223,-4.8598,-4.8029,-4.7487,-4.7055,-4.6384,-4.5822,-4.5928,-4.6086,-4.5822,-4.6245,-4.6482,-4.6535,-4.6535,-4.6535,-4.6535,-4.6535,-4.643,-4.6057,-4.5232,-4.4463,-4.4013,-4.3613,-4.3078,-4.2457,-4.2494,-4.2467,-4.1993,-4.1918,-4.172,-4.1521,-4.1918,-4.2115,-4.2289,-4.2582,-4.29,-4.29,-4.2803,-4.2776,-4.2852,-4.2776,-4.2728,-4.2701,-4.2625,-4.249,-4.2683,-4.2819,-4.2846,-4.2625,-4.2003,-4.1343,-4.0542,-3.9981,-3.9647,-3.9597,-3.9647,-4.0032,-4.0541,-4.0869,-4.1121,-4.1071,-4.0919,-4.0641,-3.9828,-3.8843,-3.8592,-3.8642,-3.8718,-3.8743,-3.8567,-3.8291,-3.8015,-3.7889,-3.7362,-3.6985,-3.6782,-3.6656,-3.6556,-3.6505,-3.6405,-3.6107,-3.5909,-3.5812,-3.5658,-3.5332,-3.4981,-3.4876,-3.4726,-3.3922,-3.3463,-3.3269,-3.3119,-3.3222,-3.3401,-3.3682,-3.3854,-3.3913,-3.4082,-3.4244,-4.6601,-4.7027,-4.6541,-4.6301,-4.6661,-4.7703,-4.823,-4.8411,-4.9072,-4.9493,-4.9983,-4.9549,-4.9603,-4.9901,-4.9956,-4.9928,-4.9549,-4.857,-4.7729,-4.7215,-4.6356,-4.5554,-4.5045,-4.5448,-4.5688,-4.5715,-4.6221,-4.6482,-4.6589,-4.6589,-4.6562,-4.6589,-4.6509,-4.6325,-4.5927,-4.5129,-4.4441,-4.3835,-4.3277,-4.2711,-4.2286,-4.2248,-4.1942,-4.1605,-4.1372,-4.1322,-4.1222,-4.162,-4.1993,-4.2145,-4.2609,-4.29,-4.2852,-4.2435,-4.2533,-4.2582,-4.2533,-4.2239,-4.2289,-4.2387,-4.2533,-4.2825,-4.29,-4.29,-4.2533,-4.1868,-4.0971,-3.9955,-3.9697,-3.9697,-3.9697,-3.9697,-3.98,-4.0083,-4.0542,-4.0643,-4.0643,-4.0795,-4.0542,-4.0211,-3.9322,-3.9321,-3.9422,-3.9497,-3.9496,-3.9295,-3.9069,-3.8743,-3.8366,-3.7814,-3.7437,-3.7186,-3.7084,-3.6935,-3.6684,-3.6631,-3.643,-3.6207,-3.6132,-3.6107,-3.5855,-3.5554,-3.5458,-3.5152,-3.4374,-3.3922,-3.3947,-3.3746,-3.3338,-3.3305,-3.3637,-3.3492,-3.3222,-3.3452,-3.3946,-4.6357,-4.7146,-4.6934,-4.6815,-4.6968,-4.8172,-4.8669,-4.8789,-4.9344,-4.9766,-4.9956,-4.9766,-4.9793,-4.9928,-4.9711,-4.9494,-4.9139,-4.7999,-4.7134,-4.6699,-4.5709,-4.4959,-4.4892,-4.5273,-4.5546,-4.5789,-4.6409,-4.6948,-4.6892,-4.6672,-4.6643,-4.6942,-4.6645,-4.6403,-4.5822,-4.513,-4.444,-4.3782,-4.3049,-4.2761,-4.2811,-4.2446,-4.1851,-4.1311,-4.1001,-4.072,-4.0668,-4.1222,-4.1831,-4.2037,-4.2431,-4.2811,-4.2927,-4.2445,-4.1875,-4.2345,-4.1928,-4.1944,-4.2435,-4.2484,-4.2631,-4.2803,-4.2852,-4.2631,-4.2092,-4.1348,-4.0593,-3.9775,-3.9697,-3.9697,-3.9697,-3.9697,-3.9903,-4.0108,-4.0262,-4.0338,-4.0466,-4.0466,-4.0389,-4.0134,-3.9878,-3.98,-3.9697,-3.9672,-3.9622,-3.9496,-3.9245,-3.8969,-3.8592,-3.8165,-3.7889,-3.7688,-3.7563,-3.7462,-3.7161,-3.691,-3.6707,-3.6531,-3.6355,-3.6329,-3.6304,-3.6107,-3.5956,-3.5805,-3.5278,-3.4951,-3.4751,-3.4098,-3.342,-3.342,-3.3545,-3.3545,-3.3571,-3.4016,-3.4401,-4.6027,-4.6795,-4.7077,-4.7205,-4.7324,-4.8553,-4.9072,-4.9186,-4.9511,-4.9847,-4.9983,-4.9983,-4.9983,-4.9928,-4.9603,-4.9467,-4.9249,-4.7509,-4.6781,-4.6134,-4.5273,-4.4565,-4.46,-4.4948,-4.536,-4.5515,-4.6415,-4.6884,-4.6839,-4.6625,-4.6544,-4.7323,-4.6515,-4.614,-4.5768,-4.4967,-4.4165,-4.354,-4.2851,-4.2725,-4.2968,-4.2475,-4.1774,-4.1207,-4.0695,-4.0338,-4.0134,-4.0976,-4.1845,-4.233,-4.2861,-4.3352,-4.3501,-4.2673,-4.2131,-4.2341,-4.1953,-4.2025,-4.2419,-4.2583,-4.2614,-4.2685,-4.265,-4.2339,-4.1718,-4.0978,-4.0542,-4.0102,-3.9747,-3.9722,-3.9697,-3.9697,-3.9852,-4.0057,-4.0211,-4.0262,-4.0313,-4.0338,-4.0262,-3.9955,-3.98,-3.9749,-3.9697,-3.9697,-3.9672,-3.9647,-3.9421,-3.917,-3.8868,-3.8592,-3.8442,-3.8291,-3.8191,-3.8015,-3.7613,-3.7312,-3.7084,-3.681,-3.6659,-3.6505,-3.6455,-3.6405,-3.6279,-3.6081,-3.5906,-3.5508,-3.5082,-3.4299,-3.3596,-3.3872,-3.4098,-3.4098,-3.4248,-3.465,-3.4856,-4.5642,-4.5828,-4.677,-4.7213,-4.7298,-4.8553,-4.9129,-4.911,-4.9162,-4.9494,-4.9901,-5.001,-5.001,-4.9983,-4.9928,-4.9791,-4.9818,-4.8127,-4.7063,-4.6032,-4.493,-4.4138,-4.4198,-4.4571,-4.5089,-4.5562,-4.6273,-4.6556,-4.6379,-4.6022,-4.6434,-4.7109,-4.6089,-4.5394,-4.4938,-4.4479,-4.3782,-4.331,-4.2874,-4.262,-4.2582,-4.2169,-4.172,-4.091,-4.0581,-4.051,-4.0492,-4.1465,-4.2264,-4.2829,-4.3344,-4.3793,-4.3596,-4.2814,-4.2424,-4.2554,-4.2189,-4.232,-4.2628,-4.2277,-4.1825,-4.2004,-4.2172,-4.2213,-4.1905,-4.1517,-4.1102,-4.061,-4.0127,-3.9798,-3.9747,-3.9697,-3.98,-3.9978,-4.0208,-4.0259,-4.0284,-4.0207,-4.013,-3.9799,-3.9823,-4.0049,-3.9998,-4.0022,-3.9772,-3.9722,-3.9672,-3.9371,-3.9446,-3.9245,-3.9094,-3.8969,-3.8843,-3.8567,-3.8115,-3.7814,-3.7663,-3.7412,-3.7186,-3.6835,-3.6581,-3.6531,-3.6606,-3.6304,-3.6031,-3.5755,-3.5483,-3.5027,-3.4675,-3.465,-3.4675,-3.4726,-3.4826,-3.5102,-3.5307,-4.4947,-4.5639,-4.6386,-4.6939,-4.7392,-4.8596,-4.9131,-4.9023,-4.8733,-4.8869,-4.9494,-4.982,-5.001,-4.9983,-4.9953,-4.9783,-4.9308,-4.799,-4.6926,-4.5727,-4.4648,-4.3916,-4.3979,-4.4402,-4.4935,-4.5508,-4.6083,-4.6368,-4.6369,-4.5679,-4.5747,-4.5894,-4.5363,-4.5071,-4.4585,-4.4148,-4.3555,-4.3148,-4.3002,-4.2826,-4.2675,-4.2326,-4.2011,-4.1659,-4.1103,-4.1006,-4.1094,-4.1721,-4.2371,-4.2892,-4.3179,-4.3468,-4.3623,-4.278,-4.2571,-4.2859,-4.2439,-4.2471,-4.2684,-4.2215,-4.1922,-4.195,-4.2086,-4.2084,-4.2128,-4.1635,-4.1123,-4.0713,-4.0379,-4.0149,-3.9772,-3.9722,-3.9772,-4.005,-4.0226,-4.0354,-4.0427,-4.0425,-4.0478,-4.0425,-4.0548,-4.0774,-4.0623,-4.0448,-4.0072,-3.9798,-3.9747,-3.9697,-3.9697,-3.9697,-3.9496,-3.9396,-3.927,-3.9094,-3.8642,-3.8467,-3.8341,-3.8015,-3.7715,-3.7338,-3.7036,-3.6958,-3.6885,-3.6533,-3.6329,-3.6157,-3.6031,-3.5881,-3.5629,-3.5282,-3.5257,-3.5403,-3.5504,-3.5604,-3.573,-4.4016,-4.4868,-4.5783,-4.663,-4.7403,-4.8425,-4.8815,-4.8734,-4.8381,-4.8408,-4.8869,-4.9467,-4.9739,-4.9766,-4.9899,-4.984,-4.9087,-4.7876,-4.6725,-4.5587,-4.4484,-4.3828,-4.389,-4.4199,-4.4572,-4.5221,-4.5566,-4.5796,-4.5433,-4.521,-4.4926,-4.4668,-4.4465,-4.4284,-4.4313,-4.3929,-4.3457,-4.3098,-4.2986,-4.2986,-4.2916,-4.269,-4.2313,-4.2187,-4.1731,-4.1591,-4.1704,-4.2153,-4.2701,-4.3067,-4.3276,-4.3347,-4.3256,-4.2958,-4.2569,-4.2598,-4.271,-4.259,-4.2677,-4.2449,-4.2138,-4.211,-4.2131,-4.2197,-4.2217,-4.1897,-4.1569,-4.1478,-4.1089,-4.0601,-4.0251,-4.0427,-4.0425,-4.0701,-4.0704,-4.0779,-4.0921,-4.0993,-4.1046,-4.11,-4.1225,-4.115,-4.0974,-4.0699,-4.0247,-3.9923,-3.9722,-3.9697,-3.9697,-3.9697,-3.9672,-3.9597,-3.9597,-3.9396,-3.9195,-3.9069,-3.8868,-3.8516,-3.8191,-3.7941,-3.764,-3.7514,-3.7387,-3.7211,-3.6985,-3.6757,-3.6531,-3.6307,-3.6081,-3.5759,-3.5784,-3.5855,-3.5931,-3.6006,-3.6031,-4.3118,-4.3255,-4.4904,-4.6182,-4.7214,-4.794,-4.8219,-4.8192,-4.8137,-4.8164,-4.83,-4.8869,-4.9223,-4.9359,-4.9766,-4.9756,-4.9171,-4.7634,-4.6517,-4.583,-4.4396,-4.3646,-4.3664,-4.3998,-4.4199,-4.4518,-4.4709,-4.4598,-4.4118,-4.4055,-4.3745,-4.3493,-4.3427,-4.3487,-4.3844,-4.3321,-4.3042,-4.2986,-4.2986,-4.2986,-4.2961,-4.2942,-4.2665,-4.2414,-4.2263,-4.212,-4.2239,-4.2554,-4.3,-4.3321,-4.3764,-4.3807,-4.3581,-4.3606,-4.3284,-4.2977,-4.2947,-4.2922,-4.2977,-4.2426,-4.2223,-4.2211,-4.2229,-4.2478,-4.272,-4.2539,-4.2192,-4.2081,-4.1767,-4.1512,-4.1436,-4.1411,-4.1204,-4.1254,-4.1257,-4.1383,-4.1576,-4.1688,-4.1798,-4.1827,-4.1551,-4.13,-4.1125,-4.0874,-4.0475,-4.0099,-3.9798,-3.9697,-3.9722,-3.9697,-3.9697,-3.9697,-3.9697,-3.9622,-3.9471,-3.9572,-3.9445,-3.9091,-3.8765,-3.8492,-3.8241,-3.8066,-3.7965,-3.7864,-3.7563,-3.7186,-3.6935,-3.6782,-3.6609,-3.6508,-3.6257,-3.6304,-3.638,-3.648,-3.6556,-4.3187,-4.357,-4.4177,-4.5093,-4.6163,-4.7243,-4.7649,-4.7649,-4.7649,-4.7649,-4.7893,-4.8653,-4.9086,-4.9304,-4.9518,-4.9532,-4.8652,-4.8395,-4.732,-4.5686,-4.4414,-4.4048,-4.389,-4.379,-4.3865,-4.4016,-4.4066,-4.4016,-4.3872,-4.3457,-4.3237,-4.3011,-4.2874,-4.3098,-4.3209,-4.3042,-4.2986,-4.2986,-4.2986,-4.2986,-4.2986,-4.2961,-4.2886,-4.2715,-4.2715,-4.2675,-4.2637,-4.2946,-4.3136,-4.3325,-4.3687,-4.3572,-4.3376,-4.3376,-4.3265,-4.3042,-4.2986,-4.2986,-4.3017,-4.273,-4.2528,-4.2469,-4.2539,-4.2791,-4.2911,-4.2836,-4.2695,-4.2524,-4.2217,-4.1835,-4.1455,-4.1379,-4.1379,-4.1785,-4.194,-4.2196,-4.2338,-4.2479,-4.2579,-4.261,-4.2434,-4.2123,-4.1868,-4.1551,-4.1103,-4.0573,-4.0322,-3.9973,-3.9898,-3.9772,-3.9697,-3.9697,-3.9697,-3.9697,-3.9697,-3.9697,-3.9697,-3.9418,-3.9268,-3.9169,-3.8944,-3.8617,-3.8417,-3.8241,-3.7939,-3.7638,-3.7337,-3.7209,-3.736,-3.7285,-3.7008,-3.6983,-3.7161,-3.7186,-3.7136,-4.3019,-4.3123,-4.364,-4.441,-4.5326,-4.633,-4.6892,-4.7052,-4.7052,-4.6946,-4.6921,-4.792,-4.8244,-4.8295,-4.8615,-4.8825,-4.7832,-4.7137,-4.6953,-4.5337,-4.44,-4.3998,-4.3765,-4.3614,-4.3489,-4.3514,-4.3514,-4.3489,-4.3382,-4.28,-4.2506,-4.2425,-4.2513,-4.2706,-4.2874,-4.3042,-4.2986,-4.2986,-4.2986,-4.2986,-4.2986,-4.2986,-4.2986,-4.2936,-4.2936,-4.2992,-4.2961,-4.2986,-4.2986,-4.2986,-4.2986,-4.2986,-4.2986,-4.2986,-4.2986,-4.2986,-4.2986,-4.2986,-4.3017,-4.2992,-4.274,-4.2615,-4.2836,-4.2961,-4.2986,-4.2936,-4.2841,-4.264,-4.2489,-4.2258,-4.1957,-4.1856,-4.1957,-4.2418,-4.2494,-4.2695,-4.2771,-4.2886,-4.288,-4.2936,-4.2936,-4.2693,-4.2513,-4.2223,-4.1831,-4.1326,-4.0846,-4.0523,-4.0199,-4.0074,-3.9973,-3.9973,-3.9848,-3.9798,-3.9772,-3.9697,-3.9697,-3.9697,-3.9647,-3.9572,-3.9446,-3.917,-3.8894,-3.8642,-3.8417,-3.8165,-3.7713,-3.7637,-3.7813,-3.7813,-3.7612,-3.7663,-3.7965,-3.7864,-3.7688,-4.2457,-4.1948,-4.3265,-4.4148,-4.4748,-4.5394,-4.5981,-4.6509,-4.6562,-4.606,-4.5394,-4.7001,-4.7244,-4.651,-4.7154,-4.7418,-4.711,-4.5741,-4.5443,-4.4999,-4.4036,-4.3746,-4.3539,-4.3338,-4.3187,-4.3062,-4.3062,-4.3162,-4.2955,-4.2256,-4.1834,-4.172,-4.1834,-4.2287,-4.2737,-4.2986,-4.2986,-4.2986,-4.2986,-4.2986,-4.2986,-4.2986,-4.2986,-4.2986,-4.2986,-4.2986,-4.2986,-4.2986,-4.2986,-4.2986,-4.2986,-4.2986,-4.2986,-4.2986,-4.2986,-4.2986,-4.2986,-4.2986,-4.2986,-4.2986,-4.2961,-4.2891,-4.2911,-4.2986,-4.2986,-4.2986,-4.2886,-4.2861,-4.2785,-4.2861,-4.2836,-4.2785,-4.276,-4.2916,-4.2916,-4.2967,-4.2967,-4.2961,-4.2961,-4.2986,-4.2986,-4.2855,-4.2805,-4.2585,-4.2333,-4.2158,-4.1727,-4.1576,-4.1229,-4.0651,-4.0576,-4.0501,-4.03,-3.9948,-3.9923,-4.0099,-3.9973,-4.0074,-3.9923,-3.9848,-3.9722,-3.9597,-3.9371,-3.9145,-3.8994,-3.8793,-3.8442,-3.8291,-3.8291,-3.8241,-3.8291,-3.8341,-3.8617,-3.8316,-3.8115,-4.2849,-4.2625,-4.3098,-4.3598,-4.4148,-4.4722,-4.5555,-4.6403,-4.6535,-4.6297,-4.6113,-4.7,-4.6786,-4.646,-4.7074,-4.676,-4.62,-4.5608,-4.5234,-4.4611,-4.3929,-4.3796,-4.3539,-4.3288,-4.3037,-4.2986,-4.2986,-4.2986,-4.2818,-4.2061,-4.1606,-4.1606,-4.1606,-4.2174,-4.2681,-4.2986,-4.2986,-4.2986,-4.293,-4.2874,-4.2874,-4.2874,-4.2874,-4.2874,-4.2986,-4.2986,-4.2986,-4.2986,-4.2986,-4.2986,-4.2986,-4.2986,-4.2986,-4.2986,-4.2986,-4.2986,-4.2986,-4.2986,-4.2986,-4.2986,-4.2986,-4.2986,-4.2986,-4.2986,-4.2986,-4.3011,-4.3011,-4.2986,-4.3062,-4.3112,-4.3062,-4.3062,-4.3011,-4.2986,-4.2986,-4.2986,-4.2986,-4.2986,-4.2986,-4.2986,-4.2986,-4.2961,-4.2911,-4.2886,-4.2685,-4.2715,-4.2585,-4.2434,-4.2108,-4.1505,-4.1178,-4.1078,-4.0799,-4.0526,-4.0701,-4.0877,-4.0626,-4.0425,-4.0275,-4.0074,-3.9873,-3.9772,-3.9722,-3.9597,-3.9421,-3.9371,-3.9295,-3.9145,-3.8969,-3.917,-3.9245,-3.922,-3.9145,-3.8843,-3.8718,-4.2793,-4.2513,-4.2849,-4.3321,-4.3955,-4.4476,-4.5154,-4.5715,-4.5768,-4.5635,-4.5368,-4.5955,-4.5953,-4.5299,-4.5613,-4.5549,-4.496,-4.4801,-4.4586,-4.4313,-4.394,-4.384,-4.3589,-4.3263,-4.3037,-4.2986,-4.2986,-4.2986,-4.2762,-4.2118,-4.1606,-4.1606,-4.1606,-4.2174,-4.2762,-4.2986,-4.2986,-4.2849,-4.2681,-4.2513,-4.2513,-4.2513,-4.2457,-4.2625,-4.2737,-4.2986,-4.2986,-4.2986,-4.2986,-4.2986,-4.2986,-4.2762,-4.2569,-4.24,-4.2737,-4.2793,-4.2986,-4.2986,-4.2986,-4.2986,-4.2986,-4.2986,-4.3011,-4.3137,-4.3162,-4.3162,-4.3062,-4.2986,-4.3162,-4.3263,-4.3187,-4.3137,-4.3062,-4.3011,-4.2986,-4.2986,-4.2986,-4.2986,-4.2986,-4.2986,-4.2986,-4.2986,-4.2986,-4.2986,-4.2961,-4.2886,-4.2861,-4.2811,-4.2509,-4.2057,-4.1781,-4.1656,-4.1404,-4.11,-4.1326,-4.1426,-4.1178,-4.0852,-4.0526,-4.0325,-4.0074,-4.0023,-4.0099,-3.9998,-3.9823,-3.9747,-3.9672,-3.9747,-3.9697,-3.9772,-3.9697,-3.9597,-3.9471,-3.9371,-3.9346,-4.2513,-4.1834,-4.2625,-4.3321,-4.3819,-4.4313,-4.4505,-4.4585,-4.4559,-4.4232,-4.3903,-4.4396,-4.4474,-4.4167,-4.427,-4.427,-4.398,-4.3928,-4.391,-4.374,-4.3664,-4.3614,-4.3463,-4.3237,-4.3011,-4.2986,-4.2986,-4.2874,-4.2569,-4.2061,-4.1606,-4.1606,-4.1606,-4.2061,-4.2874,-4.2986,-4.2986,-4.293,-4.2344,-4.1891,-4.2004,-4.1834,-4.172,-4.2004,-4.2513,-4.2986,-4.2986,-4.2986,-4.2961,-4.293,-4.2762,-4.2344,-4.2127,-4.1777,-4.2231,-4.2731,-4.3062,-4.2986,-4.2986,-4.2986,-4.3062,-4.3062,-4.3062,-4.3413,-4.3564,-4.3495,-4.3369,-4.3294,-4.3501,-4.3375,-4.3249,-4.3218,-4.3137,-4.3037,-4.2986,-4.2986,-4.2986,-4.2986,-4.2986,-4.2986,-4.2986,-4.2986,-4.2986,-4.2986,-4.2986,-4.2986,-4.2986,-4.2986,-4.2836,-4.2484,-4.2389,-4.2238,-4.2057,-4.1856,-4.1831,-4.1856,-4.1656,-4.1329,-4.1003,-4.0752,-4.0626,-4.0576,-4.0526,-4.0375,-4.0199,-4.0049,-3.9973,-3.9948,-3.9848,-3.9747,-3.9722,-3.9747,-3.9722,-3.9747,-3.9647,-4.2849,-4.2681,-4.293,-4.3098,-4.3209,-4.3351,-4.3406,-4.3406,-4.3406,-4.3738,-4.4287,-4.4505,-4.4287,-4.3653,-4.3598,-4.3543,-4.3285,-4.3431,-4.3243,-4.3263,-4.3263,-4.3363,-4.3212,-4.3087,-4.2986,-4.2986,-4.293,-4.2681,-4.2287,-4.1834,-4.1663,-4.1663,-4.172,-4.2231,-4.293,-4.2986,-4.2986,-4.293,-4.2344,-4.2061,-4.2287,-4.2569,-4.2681,-4.2625,-4.2986,-4.2986,-4.2986,-4.2986,-4.2513,-4.2118,-4.2004,-4.1973,-4.2223,-4.1825,-4.2389,-4.3269,-4.3237,-4.3087,-4.2986,-4.3011,-4.3137,-4.3438,-4.3614,-4.3966,-4.4066,-4.3897,-4.3803,-4.3809,-4.3708,-4.3532,-4.3325,-4.3319,-4.3212,-4.3112,-4.3011,-4.3011,-4.3011,-4.2986,-4.2986,-4.2986,-4.2986,-4.2986,-4.2986,-4.2986,-4.2986,-4.2986,-4.2986,-4.2986,-4.2986,-4.2785,-4.2735,-4.266,-4.2735,-4.261,-4.2459,-4.2333,-4.2158,-4.1982,-4.1731,-4.1455,-4.115,-4.0874,-4.0752,-4.0701,-4.0576,-4.035,-4.0099,-3.9923,-3.9823,-3.9823,-3.9898,-3.9998,-4.0124,-4.0149,-3.9898,-4.2258,-4.2283,-4.2564,-4.261,-4.266,-4.2861,-4.2986,-4.2986,-4.2986,-4.3073,-4.327,-4.3295,-4.3184,-4.2905,-4.2849,-4.3209,-4.2981,-4.3288,-4.3212,-4.3112,-4.3137,-4.3187,-4.3112,-4.2986,-4.2986,-4.2986,-4.2986,-4.2706,-4.2231,-4.2231,-4.2287,-4.2174,-4.2231,-4.24,-4.2986,-4.2986,-4.2986,-4.2986,-4.24,-4.2344,-4.2569,-4.2457,-4.24,-4.24,-4.2706,-4.2874,-4.2986,-4.293,-4.2457,-4.1818,-4.1514,-4.1847,-4.2161,-4.2384,-4.2856,-4.3405,-4.3514,-4.3237,-4.3087,-4.3112,-4.3313,-4.3689,-4.384,-4.4041,-4.4844,-4.4727,-4.45,-4.445,-4.4709,-4.4583,-4.4048,-4.389,-4.3539,-4.3313,-4.3338,-4.3363,-4.3162,-4.2986,-4.2986,-4.2986,-4.2986,-4.2986,-4.2986,-4.2986,-4.2986,-4.2986,-4.2986,-4.293,-4.293,-4.2986,-4.2986,-4.2986,-4.2986,-4.2986,-4.2811,-4.2735,-4.271,-4.2615,-4.2389,-4.2032,-4.1681,-4.1229,-4.0953,-4.1053,-4.0927,-4.0475,-4.0249,-4.0022,-4.0099,-4.0174,-4.0197,-4.0272,-4.0423,-4.0598,-4.0498,-4.1376,-4.1505,-4.1982,-4.2288,-4.2389,-4.276,-4.2905,-4.2818,-4.293,-4.24,-4.1639,-4.1696,-4.1606,-4.1606,-4.1663,-4.2287,-4.2812,-4.3263,-4.3212,-4.3187,-4.3388,-4.3237,-4.3062,-4.2986,-4.2986,-4.2986,-4.2986,-4.2986,-4.2818,-4.2818,-4.2818,-4.2986,-4.2986,-4.2986,-4.2986,-4.2986,-4.2986,-4.2986,-4.2681,-4.2457,-4.2118,-4.1663,-4.1793,-4.2078,-4.2393,-4.2843,-4.2981,-4.2899,-4.2481,-4.198,-4.1516,-4.1792,-4.2289,-4.2777,-4.3539,-4.3904,-4.4023,-4.3746,-4.3495,-4.3413,-4.3689,-4.3915,-4.394,-4.4418,-4.5296,-4.5447,-4.5196,-4.5196,-4.5397,-4.5263,-4.4727,-4.4342,-4.394,-4.3714,-4.3765,-4.3689,-4.3388,-4.3137,-4.3112,-4.3087,-4.3037,-4.3037,-4.3037,-4.3011,-4.2874,-4.293,-4.293,-4.2874,-4.2874,-4.2986,-4.2986,-4.2986,-4.2986,-4.2986,-4.2986,-4.2961,-4.2936,-4.2836,-4.264,-4.2464,-4.2213,-4.1756,-4.153,-4.158,-4.1354,-4.0752,-4.0398,-4.0195,-4.027,-4.0448,-4.0779,-4.093,-4.1075,-4.1225,-4.1247,-4.1605,-4.2062,-4.2162,-4.2439,-4.276,-4.2911,-4.2569,-4.2061,-4.2681,-4.2093,-4.1067,-4.1296,-4.1606,-4.1606,-4.1606,-4.2118,-4.2899,-4.3187,-4.3137,-4.3062,-4.3187,-4.3087,-4.3011,-4.2986,-4.2986,-4.2986,-4.293,-4.2986,-4.2625,-4.2762,-4.293,-4.2793,-4.293,-4.293,-4.2986,-4.2986,-4.2986,-4.2986,-4.2925,-4.2669,-4.2418,-4.2095,-4.198,-4.2013,-4.1997,-4.2715,-4.3162,-4.3187,-4.2747,-4.2321,-4.197,-4.2161,-4.27,-4.3322,-4.4033,-4.4561,-4.4659,-4.4382,-4.4123,-4.4041,-4.4317,-4.4819,-4.4945,-4.5196,-4.5799,-4.605,-4.5874,-4.5824,-4.5833,-4.5506,-4.5102,-4.4852,-4.4518,-4.4377,-4.4402,-4.4084,-4.3815,-4.3639,-4.3564,-4.3388,-4.3187,-4.3131,-4.3019,-4.2856,-4.2524,-4.2499,-4.2425,-4.2425,-4.2231,-4.2513,-4.2874,-4.2986,-4.2986,-4.2986,-4.2986,-4.2986,-4.2961,-4.2911,-4.2861,-4.2766,-4.2564,-4.2363,-4.2158,-4.2007,-4.153,-4.0877,-4.0623,-4.0442,-4.0467,-4.0724,-4.1364,-4.1695,-4.181,-4.1882,-4.1877]}]]